[[{"header":{"parameterUnit":"m.s-1","parameterCategory":1,"la1":30.6,"la2":28.766,"lo1":-90.7593,"lo2":-88.6598,"dy":0.0162,"dx":0.0183,"nx":116,"ny":114,"refTime":"2023-06-20T12:00:00:Z","depth":0,"parameterNumber":2,"parameterNumberName":"U-component_of_WINDS"},"data":[0.0,0.0,0.0,0.0,0.0,0.0,0.0,0.0,0.0,0.0,0.0,0.0,0.0,0.0,0.0,0.0,0.0,0.0,0.0,0.0,0.0,0.0,0.0,0.0,0.0,0.0,0.0,0.0,0.0,0.0,0.0,0.0,0.0,0.0,0.0,0.0,0.0,0.0,0.0,0.0,0.0,0.0,0.0,0.0,0.0,0.0,0.0,0.0,0.0,0.0,0.0,0.0,0.0,0.0,0.0,0.0,0.0,0.0,0.0,0.0,0.0,0.0,0.0,0.0,0.0,0.0,0.0,0.0,0.0,0.0,0.0,0.0,0.0,0.0,0.0,0.0,0.0,0.0,0.0,0.0,0.0,0.0,0.0,0.0,0.0,0.0,0.0,0.0,0.0,0.0,0.0,0.0,0.0,0.0,0.0,0.0,0.0,0.0,0.0,0.0,0.0,0.0,0.0,0.0,0.0,0.0,0.0,0.0,0.0,0.0,0.0,0.0,0.0,0.0,0.0,0.0,0.0,0.0,0.0,0.0,0.0,0.0,0.0,0.0,0.0,0.0,0.0,0.0,0.0,0.0,0.0,0.0,0.0,0.0,0.0,0.0,0.0,0.0,0.0,0.0,0.0,0.0,0.0,0.0,0.0,0.0,0.0,0.0,0.0,0.0,0.0,0.0,0.0,0.0,0.0,0.0,0.0,0.0,0.0,0.0,0.0,0.0,0.0,0.0,0.0,0.0,0.0,0.0,0.0,0.0,0.0,0.0,0.0,0.0,0.0,0.0,0.0,0.0,0.0,0.0,0.0,0.0,0.0,0.0,0.0,0.0,0.0,0.0,0.0,0.0,0.0,0.0,0.0,0.0,0.0,0.0,0.0,0.0,0.0,0.0,0.0,0.0,0.0,0.0,0.0,0.0,0.0,0.0,0.0,0.0,0.0,0.0,0.0,0.0,0.0,0.0,0.0,0.0,0.0,0.0,0.0,0.0,0.0,0.0,0.0,0.0,0.0,0.0,0.0,0.0,0.0,0.0,0.0,0.0,0.0,0.0,0.0,0.0,0.0,0.0,0.0,0.0,0.0,0.0,0.0,0.0,0.0,0.0,0.0,0.0,0.0,0.0,0.0,0.0,0.0,0.0,0.0,0.0,0.0,0.0,0.0,0.0,0.0,0.0,0.0,0.0,0.0,0.0,0.0,0.0,0.0,0.0,0.0,0.0,0.0,0.0,0.0,0.0,0.0,0.0,0.0,0.0,0.0,0.0,0.0,0.0,0.0,0.0,0.0,0.0,0.0,0.0,0.0,0.0,0.0,0.0,0.0,0.0,0.0,0.0,0.0,0.0,0.0,0.0,0.0,0.0,0.0,0.0,0.0,0.0,0.0,0.0,0.0,0.0,0.0,0.0,0.0,0.0,0.0,0.0,0.0,0.0,0.0,0.0,0.0,0.0,0.0,0.0,0.0,0.0,0.0,0.0,0.0,0.0,0.0,0.0,0.0,0.0,0.0,0.0,0.0,0.0,0.0,0.0,0.0,0.0,0.0,0.0,0.0,0.0,0.0,0.0,0.0,0.0,0.0,0.0,0.0,0.0,0.0,0.0,0.0,0.0,0.0,0.0,0.0,0.0,0.0,0.0,0.0,0.0,0.0,0.0,0.0,0.0,0.0,0.0,0.0,0.0,0.0,0.0,0.0,0.0,0.0,0.0,0.0,0.0,0.0,0.0,0.0,0.0,0.0,0.0,0.0,0.0,0.0,0.0,0.0,0.0,0.0,0.0,0.0,0.0,0.0,0.0,0.0,0.0,0.0,0.0,0.0,0.0,0.0,0.0,0.0,0.0,0.0,0.0,0.0,0.0,0.0,0.0,0.0,0.0,0.0,0.0,0.0,0.0,0.0,0.0,0.0,0.0,0.0,0.0,0.0,0.0,0.0,0.0,0.0,0.0,0.0,0.0,0.0,0.0,0.0,0.0,0.0,0.0,0.0,0.0,0.0,0.0,0.0,0.0,0.0,0.0,0.0,0.0,0.0,0.0,0.0,0.0,0.0,0.0,0.0,0.0,0.0,0.0,0.0,0.0,0.0,0.0,0.0,0.0,0.0,0.0,0.0,0.0,0.0,0.0,0.0,0.0,0.0,0.0,0.0,0.0,0.0,0.0,0.0,0.0,0.0,0.0,0.0,0.0,0.0,0.0,0.0,0.0,0.0,0.0,0.0,0.0,0.0,0.0,0.0,0.0,0.0,0.0,0.0,0.0,0.0,0.0,0.0,0.0,0.0,0.0,0.0,0.0,0.0,0.0,0.0,0.0,0.0,0.0,0.0,0.0,0.0,0.0,0.0,0.0,0.0,0.0,0.0,0.0,0.0,0.0,0.0,0.0,0.0,0.0,0.0,0.0,0.0,0.0,0.0,0.0,0.0,0.0,0.0,0.0,0.0,0.0,0.0,0.0,0.0,0.0,0.0,0.0,0.0,0.0,0.0,0.0,0.0,0.0,0.0,0.0,0.0,0.0,0.0,0.0,0.0,0.0,0.0,0.0,0.0,0.0,0.0,0.0,0.0,0.0,0.0,0.0,0.0,0.0,0.0,0.0,0.0,0.0,0.0,0.0,0.0,0.0,0.0,0.0,0.0,0.0,0.0,0.0,0.0,0.0,0.0,0.0,0.0,0.0,0.0,0.0,0.0,0.0,0.0,0.0,0.0,0.0,0.0,0.0,0.0,0.0,0.0,0.0,0.0,0.0,0.0,0.0,0.0,0.0,0.0,0.0,0.0,0.0,0.0,0.0,0.0,0.0,0.0,0.0,0.0,0.0,0.0,0.0,0.0,0.0,0.0,0.0,0.0,0.0,0.0,0.0,0.0,0.0,0.0,0.0,0.0,0.0,0.0,0.0,0.0,0.0,0.0,0.0,0.0,0.0,0.0,0.0,0.0,0.0,0.0,0.0,0.0,0.0,0.0,0.0,0.0,0.0,0.0,0.0,0.0,0.0,0.0,0.0,0.0,0.0,0.0,0.0,0.0,0.0,0.0,0.0,0.0,0.0,0.0,0.0,0.0,0.0,0.0,0.0,0.0,0.0,0.0,0.0,0.0,0.0,0.0,0.0,0.0,0.0,0.0,0.0,0.0,0.0,0.0,0.0,0.0,0.0,0.0,0.0,0.0,0.0,0.0,0.0,0.0,0.0,0.0,0.0,0.0,0.0,0.0,0.0,0.0,0.0,0.0,0.0,0.0,0.0,0.0,0.0,0.0,0.0,0.0,0.0,0.0,0.0,0.0,0.0,0.0,0.0,0.0,0.0,0.0,0.0,0.0,0.0,0.0,0.0,0.0,0.0,0.0,0.0,0.0,0.0,0.0,0.0,0.0,0.0,0.0,0.0,0.0,0.0,0.0,0.0,0.0,0.0,0.0,0.0,0.0,0.0,0.0,0.0,0.0,0.0,0.0,0.0,0.0,0.0,0.0,0.0,0.0,0.0,0.0,0.0,0.0,0.0,0.0,0.0,0.0,0.0,0.0,0.0,0.0,0.0,0.0,0.0,0.0,0.0,0.0,0.0,0.0,0.0,0.0,0.0,0.0,0.0,0.0,0.0,0.0,0.0,0.0,0.0,0.0,0.0,0.0,0.0,0.0,0.0,0.0,0.0,0.0,0.0,0.0,0.0,0.0,0.0,0.0,0.0,0.0,0.0,0.0,0.0,0.0,0.0,0.0,0.0,0.0,0.0,0.0,0.0,0.0,0.0,0.0,0.0,0.0,0.0,0.0,0.0,0.0,0.0,0.0,0.0,0.0,0.0,0.0,0.0,0.0,0.0,0.0,0.0,0.0,0.0,0.0,0.0,0.0,0.0,0.0,0.0,0.0,0.0,0.0,0.0,0.0,0.0,0.0,0.0,0.0,0.0,0.0,0.0,0.0,0.0,0.0,0.0,0.0,0.0,0.0,0.0,0.0,0.0,0.0,0.0,0.0,0.0,0.0,0.0,0.0,0.0,0.0,0.0,0.0,0.0,0.0,0.0,0.0,0.0,0.0,0.0,0.0,0.0,0.0,0.0,0.0,0.0,0.0,0.0,0.0,0.0,0.0,0.0,0.0,0.0,0.0,0.0,0.0,0.0,0.0,0.0,0.0,0.0,0.0,0.0,0.0,0.0,0.0,0.0,0.0,0.0,0.0,0.0,0.0,0.0,0.0,0.0,0.0,0.0,0.0,0.0,0.0,0.0,0.0,0.0,0.0,0.0,0.0,0.0,0.0,0.0,0.0,0.0,0.0,0.0,0.0,0.0,0.0,0.0,0.0,0.0,0.0,0.0,0.0,0.0,0.0,0.0,0.0,0.0,0.0,0.0,0.0,0.0,0.0,0.0,0.0,0.0,0.0,0.0,0.0,0.0,0.0,0.0,0.0,0.0,0.0,0.0,0.0,0.0,0.0,0.0,0.0,0.0,0.0,0.0,0.0,0.0,0.0,0.0,0.0,0.0,0.0,0.0,0.0,0.0,0.0,0.0,0.0,0.0,0.0,0.0,0.0,0.0,0.0,0.0,0.0,0.0,0.0,0.0,0.0,0.0,0.0,0.0,0.0,0.0,0.0,0.0,0.0,0.0,0.0,0.0,0.0,0.0,0.0,0.0,0.0,0.0,0.0,0.0,0.0,0.0,0.0,0.0,0.0,0.0,0.0,0.0,0.0,0.0,0.0,0.0,0.0,0.0,0.0,0.0,0.0,0.0,0.0,0.0,0.0,0.0,0.0,0.0,0.0,0.0,0.0,0.0,0.0,0.0,0.0,0.0,0.0,0.0,0.0,0.0,0.0,0.0,0.0,0.0,0.0,0.0,0.0,0.0,0.0,0.0,0.0,0.0,0.0,0.0,0.0,0.0,0.0,0.0,0.0,0.0,0.0,0.0,0.0,0.0,0.0,0.0,0.0,0.0,0.0,0.0,0.0,0.0,0.0,0.0,0.0,0.0,0.0,0.0,0.0,0.0,0.0,0.0,0.0,0.0,0.0,0.0,0.0,0.0,0.0,0.0,0.0,0.0,0.0,0.0,0.0,0.0,0.0,0.0,0.0,0.0,0.0,0.0,0.0,0.0,0.0,0.0,0.0,0.0,0.0,0.0,0.0,0.0,0.0,0.0,0.0,0.0,0.0,0.0,0.0,0.0,0.0,0.0,0.0,0.0,0.0,0.0,0.0,0.0,0.0,0.0,0.0,0.0,0.0,0.0,0.0,0.0,0.0,0.0,0.0,0.0,0.0,0.0,0.0,0.0,0.0,0.0,0.0,0.0,0.0,0.0,0.0,0.0,0.0,0.0,0.0,0.0,0.0,0.0,0.0,0.0,0.0,0.0,0.0,0.0,0.0,0.0,0.0,0.0,0.0,0.0,0.0,0.0,0.0,0.0,0.0,0.0,0.0,0.0,0.0,0.0,0.0,0.0,0.0,0.0,0.0,0.0,0.0,0.0,0.0,0.0,0.0,0.0,0.0,0.0,0.0,0.0,0.0,0.0,0.0,0.0,0.0,0.0,0.0,0.0,0.0,0.0,0.0,0.0,0.0,0.0,0.0,0.0,0.0,0.0,0.0,0.0,0.0,0.0,0.0,0.0,0.0,0.0,0.0,0.0,0.0,0.0,0.0,0.0,0.0,0.0,0.0,0.0,0.0,0.0,0.0,0.0,0.0,0.0,0.0,0.0,0.0,0.0,0.0,0.0,0.0,0.0,0.0,0.0,0.0,0.0,0.0,0.0,0.0,0.0,0.0,0.0,0.0,0.0,0.0,0.0,0.0,0.0,0.0,0.0,0.0,0.0,0.0,0.0,0.0,0.0,0.0,0.0,0.0,0.0,0.0,0.0,0.0,0.0,0.0,0.0,0.0,0.0,0.0,0.0,0.0,0.0,0.0,0.0,0.0,0.0,0.0,0.0,0.0,0.0,0.0,0.0,0.0,0.0,0.0,0.0,0.0,0.0,0.0,0.0,0.0,0.0,0.0,0.0,0.0,0.0,0.0,0.0,0.0,0.0,0.0,0.0,0.0,0.0,0.0,0.0,0.0,0.0,0.0,0.0,0.0,0.0,0.0,0.0,0.0,0.0,0.0,0.0,0.0,0.0,0.0,0.0,-0.4057,-0.3567,0.0,0.0,0.0,0.0,0.0,0.0,0.0,0.0,0.0,0.0,0.0,0.0,0.0,0.0,0.0,0.0,0.0,0.0,0.0,0.0,0.0,0.0,0.0,0.0,0.0,0.0,0.0,0.0,0.0,0.0,0.0,0.0,0.0,0.0,0.0,0.0,0.0,0.0,0.0,0.0,0.0,0.0,0.0,0.0,0.0,0.0,0.0,0.0,0.0,0.0,0.0,0.0,0.0,0.0,0.0,0.0,0.0,0.0,0.0,0.0,0.0,0.0,0.0,0.0,0.0,0.0,0.0,0.0,0.0,0.0,0.0,0.0,0.0,0.0,0.0,0.0,0.0,0.0,0.0,0.0,0.0,0.0,0.0,0.0,0.0,0.0,0.0,0.0,0.0,0.0,0.0,0.0,0.0,0.0,0.0,0.0,0.0,0.0,0.0,0.0,0.0,0.0,0.0,0.0,0.0,0.0,0.0,0.0,0.0,0.0,0.0,0.0,0.0,0.0,-0.469,-0.3967,0.0,0.0,0.0,0.0,0.0,0.0,0.0,0.0,0.0,0.0,0.0,0.0,0.0,0.0,0.0,0.0,0.0,0.0,0.0,0.0,0.0,0.0,0.0,0.0,0.0,0.0,0.0,0.0,0.0,0.0,0.0,0.0,0.0,0.0,0.0,0.0,0.0,0.0,0.0,0.0,0.0,0.0,0.0,0.0,0.0,0.0,0.0,0.0,0.0,0.0,0.0,0.0,0.0,0.0,0.0,0.0,0.0,0.0,0.0,0.0,0.0,0.0,0.0,0.0,0.0,0.0,0.0,0.0,0.0,0.0,0.0,0.0,0.0,0.0,0.0,0.0,0.0,0.0,0.0,0.0,0.0,0.0,0.0,0.0,0.0,0.0,0.0,0.0,0.0,0.0,0.0,0.0,0.0,0.0,0.0,0.0,0.0,0.0,0.0,0.0,0.0,0.0,0.0,0.0,0.0,0.0,0.0,0.0,-0.465,-0.5241,-0.6508,-0.5774,-0.597,-0.6774,-0.5229,-0.453,-0.4485,-0.4798,0.0,0.0,0.0,0.0,0.0,0.0,0.0,0.0,0.0,0.0,0.0,0.0,0.0,0.0,0.0,0.0,0.0,0.0,0.0,0.0,0.0,0.0,0.0,0.0,0.0,0.0,0.0,0.0,0.0,0.0,0.0,0.0,0.0,0.0,0.0,0.0,0.0,0.0,0.6003,0.7903,0.835,0.7561,0.7499,0.0,0.0,0.0,0.0,0.0,0.0,0.0,0.0,0.0,0.0,0.0,0.0,0.0,0.0,0.0,0.0,0.0,0.0,0.0,0.0,0.0,0.0,0.0,0.0,0.0,0.0,0.0,0.0,0.0,0.0,0.0,0.0,0.0,0.0,0.0,0.0,0.0,0.0,0.0,0.0,0.0,0.0,0.0,0.1628,0.1479,0.0,0.0,0.0,0.0,0.0,0.0,0.0,0.0,0.0,0.0,0.0,0.0,0.0,-0.3138,-0.4468,-0.4474,-0.5077,-0.6223,-0.5286,-0.5315,-0.6267,-0.6111,-0.6165,-0.6297,-0.6564,0.0,-0.637,-0.5886,0.0,0.0,0.0,0.0,0.0,0.0,0.0,0.0,0.0,0.0,0.0,0.0,0.0,0.0,0.0,0.0,0.0,0.0,0.0,0.0,0.0,0.0,0.0,0.0,0.0,0.0,0.0,0.0,0.0,0.0,0.0,0.0,0.0,0.0,0.0,0.0,0.5423,0.6179,0.6657,0.7894,0.833,0.8077,0.8604,0.8099,0.6772,0.6955,0.0,0.0,0.0,0.0,0.0,0.0,0.0,0.0,0.0,0.0,0.0,0.0,0.0,0.0,0.0,0.0,0.0,0.0,0.0,0.0,0.0,0.0,0.0,0.0,0.0,0.0,0.0,0.0,0.0,0.0,0.0,0.0,0.0,0.0,0.0,0.0,0.0,0.0,0.0,0.1722,0.1134,0.0622,0.0583,0.0744,0.0,0.0,0.0,0.0,0.0,0.0,0.0,0.0,0.0,-0.3753,-0.3777,-0.4132,-0.4809,-0.4873,-0.5114,-0.5605,-0.5616,-0.6044,-0.6818,-0.7481,-0.8099,-0.8724,-0.9138,-0.9222,-0.9061,-0.7682,-0.7111,-0.7009,0.0,0.0,0.0,0.0,-0.524,-0.5715,0.0,0.0,0.0,0.0,0.0,0.0,0.0,0.0,0.0,0.0,0.0,0.0,0.0,0.0,0.0,0.1651,0.0,0.0,0.0,0.0,0.0,0.0,0.0,0.0,0.0,0.0,0.0,0.0,0.462,0.5227,0.6398,0.7538,0.7967,0.7903,0.8926,0.8551,0.7241,0.7645,0.6798,0.0,0.0,0.0,0.0,0.0,0.0,0.0,0.0,0.0,0.0,0.0,0.0,0.0,0.0,0.0,0.0,0.0,0.0,0.0,0.0,0.0,0.0,0.0,0.0,0.0,0.0,0.0,0.0,0.0,0.0,0.0,0.0,0.0,0.0,0.0,0.0,0.0,0.0,0.0754,-0.0134,-0.0,-0.033,-0.0702,0.0,0.0,0.0,0.0,0.0,0.0,-0.3215,-0.431,-0.4957,-0.4926,-0.5022,-0.5152,-0.5366,-0.5321,-0.5521,-0.5941,-0.652,-0.7178,-0.7926,-0.8857,-0.9728,-1.0529,-1.0943,-1.1102,-1.0943,-0.9229,-0.8333,-0.797,-0.7936,-0.757,-0.7074,-0.6838,-0.6917,-0.724,0.0,0.0,0.0,0.0,0.0,0.0,0.0,0.0,0.0,0.0,0.0,0.0,0.0,0.0,0.2448,0.4328,0.3612,0.2462,0.0,0.0,0.0,0.0,0.0,0.0,0.0,0.0,0.0,0.3675,0.3648,0.3792,0.4134,0.688,0.7935,0.7466,0.8144,0.8228,0.7916,0.8543,0.7867,0.6235,0.0,0.0,0.0,0.0,0.0,0.0,0.0,0.0,0.0,0.0,0.0,0.0,0.0,0.0,0.0,0.0,0.0,0.0,0.0,0.0,0.0,0.0,0.0,0.0,0.0,0.0,0.0,0.0,0.0,0.0,0.0,0.0,0.0,0.0,0.0,0.0,0.0,0.0,0.0,-0.0346,-0.1222,0.0,0.0,0.0,0.0,-0.4394,-0.4657,-0.4756,-0.4692,-0.4927,-0.5039,-0.4913,-0.4877,-0.5303,-0.6122,-0.6269,-0.7178,-0.8795,-0.8429,-0.8708,-0.9603,-0.9923,-1.0053,-1.0203,-1.0979,-1.1403,-1.1308,-1.0086,-0.9934,-1.0194,-0.8132,-0.784,-0.8386,-0.7442,-0.783,-0.8924,0.0,0.0,0.0,0.0,0.0,0.0,0.0,0.0,0.0,0.0,0.0,0.0,0.0,-0.0574,0.0553,0.1044,0.309,0.3934,0.3003,0.0,0.0,0.0,0.0,0.0,0.0,0.0,0.0444,0.1488,0.214,0.2853,0.372,0.495,0.5406,0.5226,0.5661,0.5836,0.5793,0.7388,0.7101,0.5526,0.5117,0.4304,0.0,0.0,0.0,0.0,0.0,0.0,0.0,0.0,0.0,0.0,0.0,0.0,0.0,0.0,0.0,0.0,0.0,0.0,0.0,0.0,0.0,0.0,0.0,0.0,0.0,0.0,0.0,0.0,0.0,0.0,0.0,0.0,0.0,0.0,0.0,0.0,0.0,-0.144,-0.1851,0.0,-0.4613,-0.4246,-0.4164,-0.4858,-0.4903,-0.4907,-0.4988,-0.5065,-0.5422,-0.601,-0.6081,-0.6459,-0.7346,-0.7418,-0.7852,-0.8647,-0.902,-0.9462,-0.9977,-1.0874,-1.1282,-1.1294,-1.1761,-1.1884,-1.1703,-1.1248,-1.1109,-1.1016,-1.0238,-1.0123,-1.0366,-1.0026,-1.0142,-1.0555,0.0,0.0,0.0,0.0,0.0,0.0,0.0,0.0,0.0,0.0,0.0,-0.1499,-0.1899,0.0613,0.1548,-0.0433,0.1283,0.243,0.2297,0.0,0.0,0.0,0.0,0.0,0.0,-0.1595,-0.1137,-0.0558,0.0353,0.1144,0.1807,0.2329,0.2562,0.2573,0.2826,0.2951,0.3094,0.4433,0.5177,0.536,0.538,0.4697,0.3684,0.0,0.0,0.0,0.0,0.0,0.0,0.0,0.0,0.0,0.0,0.0,0.0,0.0,0.0,0.0,0.0,0.0,0.0,0.0,0.0,0.0,0.0,0.0,0.0,0.0,0.0,0.0,0.0,0.0,0.0,0.0,0.0,0.0,0.0,0.0,-0.2418,-0.3003,-0.3069,-0.3583,-0.4862,-0.4889,-0.4907,-0.5008,-0.5085,-0.521,-0.5505,-0.5723,-0.6292,-0.7272,-0.7341,-0.7846,-0.8716,-0.8721,-0.893,-0.9423,-1.014,-1.0554,-1.074,-1.1663,-1.1726,-1.125,-1.1972,-1.1899,-1.1243,-1.1779,-1.1897,-1.1703,-1.1503,-1.149,-1.1577,-1.1577,-1.1703,-1.187,0.0,0.0,0.0,0.0,0.0,0.0,0.0,0.0,0.0,0.0,-0.0217,0.0305,-0.1599,0.3677,0.5358,0.0378,-0.1636,-0.2186,-0.1022,-0.1475,0.0,0.0,0.0,0.0,-0.2723,-0.2921,-0.278,-0.2237,-0.1594,-0.1486,-0.1854,-0.0815,-0.0343,-0.0316,-0.0316,-0.0268,-0.0166,-0.0166,0.2088,0.5685,0.5727,0.5553,0.5101,0.0,0.0,0.0,0.0,0.0,0.0,0.0,0.0,0.0,0.0,0.0,0.0,0.0,0.0,0.0,0.0,0.0,0.0,0.0,0.0,0.0,0.0,0.0,0.0,0.0,0.0,0.0,0.0,0.0,0.0,0.0,0.0,0.0,-0.4585,-0.4687,-0.4809,-0.4888,-0.4901,-0.4989,-0.5135,-0.5064,-0.4996,-0.5006,-0.5342,-0.5763,-0.6421,-0.6971,-0.7586,-0.8342,-0.861,-0.9216,-1.0065,-1.0089,-1.0591,-1.1443,-1.173,-1.1877,-1.1904,-1.2184,-1.1486,-1.0116,-1.1611,-1.146,-1.0122,-1.1702,-1.2318,-1.2258,-1.1677,-1.163,-1.1884,-1.1884,-1.2318,-1.2802,0.0,0.0,0.0,0.0,0.0,0.0,0.0,0.0,0.0,0.0,-0.1045,-0.0724,-0.1698,-0.1006,-0.0707,-0.127,-0.1517,-0.1729,-0.1833,0.0,0.0,0.0,0.0,0.0,-0.3763,-0.3684,-0.3582,-0.3424,-0.3541,-0.3509,-0.3401,-0.3332,-0.3303,-0.3304,-0.3326,-0.3299,-0.3239,-0.3239,-0.1774,0.066,0.2147,0.3527,0.4662,0.0,0.0,0.0,0.0,0.0,0.0,0.0,0.0,0.0,0.0,0.0,0.0,0.0,0.0,0.0,0.0,0.0,0.0,0.0,0.0,0.0,0.0,0.0,0.0,0.0,0.0,0.0,0.0,0.0,0.0,0.0,0.0,-0.4923,-0.4718,-0.4867,-0.5012,-0.4896,-0.5434,-0.5973,-0.6369,-0.6958,-0.739,-0.7692,-0.782,-0.7926,-0.8142,-0.7338,-0.7228,-0.8069,-0.8196,-0.8612,-0.9509,-1.0562,-1.1253,-1.175,-1.183,-1.2163,-1.2587,-1.2661,-1.2496,-1.2335,-1.2579,-1.2438,-1.2018,-1.2492,-1.2625,-1.2585,-1.2204,-1.2111,-1.2184,-1.2184,-1.2285,-1.2257,0.0,0.0,0.0,0.0,0.0,0.0,0.0,0.0,0.0,0.0,-0.1787,-0.161,-0.1771,-0.2897,-0.3417,-0.2951,-0.2576,-0.2381,-0.2485,0.0,0.0,0.0,0.0,-0.3845,-0.4466,-0.4721,-0.4872,-0.4922,-0.511,-0.5162,-0.5083,-0.5233,-0.5305,-0.5352,-0.5358,-0.5205,-0.4916,-0.4916,-0.407,-0.267,-0.1498,0.0469,0.2611,0.2616,0.1564,0.0041,-0.065,-0.091,-0.0836,-0.0346,0.0,0.0,0.0,0.0,0.0,0.0,0.0,0.0,0.0,0.0,0.0,0.0,0.0,0.0,0.0,0.0,0.0,0.0,0.0,0.0,0.0,0.0,0.0,0.0,-0.5165,-0.5272,-0.5632,-0.5392,-0.5343,-0.5704,-0.6285,-0.6911,-0.7611,-0.8163,-0.8539,-0.8803,-0.8846,-0.9074,-0.9329,-0.8864,-0.8627,-0.8762,-0.9726,-1.0128,-0.9915,-1.1435,-1.2258,-1.2432,-1.2432,-1.2612,-1.2939,-1.2939,-1.2689,-1.2254,-1.2722,-1.2583,-1.2011,-1.2656,-1.2939,-1.2926,0.0,0.0,0.0,0.0,-1.2893,-1.255,0.0,0.0,0.0,0.0,0.0,0.0,0.0,0.0,0.0,0.0,0.0,-0.2291,-0.1926,-0.2935,-0.3807,-0.4295,-0.3966,-0.3509,0.0,0.0,0.0,-0.3581,-0.4112,-0.4645,-0.5181,-0.5952,-0.6365,-0.6447,-0.6292,-0.635,-0.6583,-0.6487,-0.6503,-0.6588,-0.6588,-0.6273,-0.5681,-0.5681,-0.5376,-0.486,-0.4786,-0.3064,-0.0529,-0.0529,-0.1308,-0.2458,-0.2458,-0.2458,-0.2452,-0.2454,0.0,0.0,0.0,0.0,0.0,0.0,0.0,0.0,0.0,0.0,0.0,0.0,0.0,0.0,0.0,0.0,0.0,0.0,0.0,0.0,0.0,0.0,0.0,0.0,-0.5559,-0.6174,-0.7007,-0.6352,-0.6156,-0.699,-0.7422,-0.799,-0.8936,-0.9076,-0.9157,-0.9179,-0.9387,-0.9719,-1.0389,0.0,0.0,0.0,0.0,-1.2292,-1.0857,-1.2402,-1.324,-1.3213,-1.324,-1.326,-1.326,-1.3293,-1.2503,-1.1217,-1.2692,-1.2457,-1.1262,-1.2665,-1.328,-1.33,-1.324,-1.3367,-1.3532,-1.3692,-1.3492,-1.3233,0.0,0.0,0.0,0.0,0.0,0.0,0.0,0.0,0.0,-0.2107,-0.2411,-0.2605,-0.2524,-0.3261,-0.3814,-0.3893,-0.3591,-0.3333,0.0,0.0,-0.3606,-0.5544,-0.5607,-0.5961,-0.6812,-0.6985,-0.6927,-0.6577,-0.6531,-0.6556,-0.6588,-0.6597,-0.6602,-0.6588,-0.6588,-0.6683,-0.6793,-0.6793,-0.684,-0.6929,-0.6701,-0.5405,-0.3644,-0.3644,-0.3815,-0.4072,-0.4072,-0.4072,-0.4072,-0.4059,-0.4046,-0.4072,-0.4072,0.0,0.0,0.0,0.0,0.0,0.0,0.0,0.0,0.0,0.0,0.0,0.0,0.0,0.0,0.0,0.0,0.0,0.0,0.0,0.0,-0.6967,-0.6998,-0.7203,-0.8314,-0.8438,-0.8416,-0.8438,-0.9125,-0.9757,-1.0176,-1.0914,-1.1365,-1.1589,-1.1659,-1.1848,-1.2254,-1.125,-1.0775,-1.0775,-1.1184,-1.1247,-1.0929,-1.2674,-1.344,-1.3213,-1.3447,0.0,-1.3567,-1.3808,-1.3788,-1.3506,-1.3814,-1.3566,-1.3074,-1.3386,-1.3701,-1.3874,-1.3394,-1.3247,-1.3134,-1.2011,-1.2305,-1.3034,0.0,0.0,0.0,0.0,0.0,0.0,0.0,0.0,0.0,0.0,-0.2275,-0.2706,-0.316,-0.3315,-0.3729,-0.4572,-0.4059,0.0,0.0,-0.4212,-0.473,-0.6298,-0.6683,-0.7007,-0.7179,-0.7764,-0.7915,-0.7723,-0.8025,-0.8025,-0.7723,-0.8025,-0.8025,-0.7729,-0.7858,-0.7822,-0.7666,-0.7783,-0.773,-0.7467,-0.7359,-0.6789,-0.5944,-0.5643,-0.5576,-0.5576,-0.5576,-0.5576,-0.5479,-0.5103,-0.5017,-0.4966,-0.4616,-0.4503,-0.4368,0.0,0.0,0.0,0.0,0.0,0.0,0.0,0.0,0.0,0.0,0.0,0.0,0.0,0.0,-0.442,0.0,0.0,-0.6049,-0.848,-0.7917,-0.7794,-0.9455,-0.9968,-1.0063,-0.9762,-1.0116,-1.0683,-1.1405,-1.1867,-1.2144,-1.2291,-1.2438,-1.2592,-1.2815,-1.2385,-1.1795,-1.1132,-1.2183,-1.2349,-1.1532,-1.3372,-1.4155,-1.3868,-1.4015,-1.4082,-1.4088,-1.4235,-1.4302,-1.4309,-1.4462,-1.4355,-1.4082,-1.4082,-1.4168,-1.4262,-1.3821,-1.3647,-1.3594,-1.2824,-1.3021,-1.3587,0.0,0.0,0.0,0.0,0.0,0.0,0.0,0.0,0.0,0.0,-0.2148,-0.2638,-0.3339,-0.3196,-0.355,0.0,0.0,0.0,0.0,-0.5642,-0.6075,-0.7083,-0.7812,-0.7989,-0.7633,-0.8403,-0.8857,-0.9008,-0.951,-0.9614,-0.9211,-0.9614,-0.9546,-0.9111,-0.9186,-0.8963,-0.8561,-0.8774,-0.8592,-0.8094,-0.8045,-0.7995,-0.7848,-0.7305,-0.6926,-0.6703,-0.6603,-0.6588,-0.6534,-0.5923,-0.5706,-0.5597,-0.5062,-0.4897,-0.4782,-0.4246,-0.4608,0.0,0.0,0.0,0.0,0.0,0.0,0.0,0.0,0.0,-0.4662,-0.5408,-0.5892,-0.6722,-0.8602,-0.7322,-0.6965,-0.9802,-0.9045,-0.8745,-1.0731,-1.1265,-1.1268,-1.0985,-1.104,-1.1391,-1.2224,-1.2305,-1.2325,-1.2385,-1.2688,-1.2876,-1.2913,-1.3434,-1.3091,-1.1889,-1.3607,-1.3992,-1.2694,-1.4268,-1.4903,-1.4603,-1.4603,-1.4603,-1.4603,-1.4603,-1.4603,-1.4623,-1.4863,-1.483,-1.4603,-1.4543,-1.4522,-1.4489,-1.4202,-1.4088,-1.4088,-1.4088,-1.4088,-1.4088,0.0,0.0,0.0,0.0,0.0,0.0,0.0,0.0,0.0,0.0,0.0,0.0,0.0,0.0,0.0,0.0,0.0,0.0,-0.5743,-0.6607,-0.7751,-0.9298,-0.9289,-0.9311,-0.949,-0.902,-0.9106,-0.9666,-0.9762,-1.0064,-1.0568,-1.0064,-0.9918,-1.01,-0.9494,-0.9475,-0.99,-0.9926,-1.003,-1.0246,-0.9923,-0.9669,-0.9408,-0.9032,-0.812,-0.7023,-0.6713,-0.6588,-0.6588,-0.648,-0.6475,-0.648,-0.6372,-0.6372,-0.6284,-0.5851,0.0,-0.558,-0.4118,-0.3015,-0.2608,-0.3833,-0.4587,-0.5242,0.0,0.0,-0.762,-0.7958,-0.8372,-0.8832,-0.9351,-0.9385,-0.9771,-1.1087,-1.0989,-1.1188,-1.2405,-1.2322,-1.2177,-1.2111,-1.2131,-1.215,-1.2298,-1.2305,-1.2412,-1.2755,-1.2802,-1.2979,-1.3514,-1.3861,-1.4108,-1.4091,-1.4689,-1.4863,-1.4674,-1.515,-1.5204,-1.4917,-1.4917,-1.4917,-1.4917,-1.4917,-1.4917,-1.4917,-1.495,-1.4943,-1.4897,-1.4629,-1.4522,-1.4489,-1.4202,-1.4088,-1.4088,-1.4088,-1.4088,-1.4088,0.0,0.0,0.0,0.0,0.0,0.0,0.0,0.0,0.0,0.0,0.0,0.0,0.0,0.0,0.0,0.0,0.0,0.0,-0.5813,-0.6641,-0.7913,-0.9865,-1.0055,-1.0097,-1.0162,-1.0015,-1.0115,-1.0364,-1.0762,-1.0914,-1.0813,-1.0914,-1.0845,-1.0601,-1.074,-1.0902,-1.1133,-1.1112,-1.1167,-1.1274,-1.0664,-1.02,-0.99,-0.9606,-0.8984,-0.8159,-0.7081,-0.6724,0.0,0.0,-0.6055,-0.6149,-0.6476,-0.6197,-0.5769,-0.5955,-0.5646,0.0,-0.4484,-0.4543,-0.4941,0.0,-0.7025,-0.8287,-0.8486,-0.8988,-0.9325,-0.9062,-0.9227,-0.9669,-1.0519,-1.0115,-1.0279,0.0,-1.187,-1.1714,-1.2643,-1.2714,-1.2432,-1.2091,-1.1305,-1.0923,-1.1185,-1.188,-1.2131,-1.1636,-1.2483,-1.3273,-1.3868,-1.4021,-1.4295,-1.4763,-1.4897,-1.5044,-1.5211,-1.5504,-1.5504,-1.5217,-1.5217,-1.5217,-1.5217,-1.5217,-1.5304,-1.5458,-1.5291,-1.5311,-1.5444,-1.515,-1.503,-1.5003,-1.471,-1.4596,-1.4556,-1.4215,-1.4088,-1.4115,0.0,0.0,0.0,0.0,0.0,0.0,0.0,0.0,0.0,0.0,0.0,0.0,0.0,0.0,0.0,0.0,0.0,0.0,0.0,-0.701,-0.8241,-1.0234,-1.0596,-1.0718,-1.0612,-1.0731,-1.0914,-1.1065,-1.1566,-1.1674,-1.1384,-1.1665,-1.1578,-1.1251,-1.1569,-1.1804,-1.1816,-1.1819,-1.1797,-1.1737,-1.0916,-1.0437,-1.0141,-0.9697,-0.917,-0.8449,-0.7218,-0.6816,0.0,0.0,-0.5908,-0.6365,-0.6482,-0.6323,-0.6129,-0.6147,-0.5519,-0.4883,-0.5203,0.0,0.0,-0.7387,-0.902,-1.0438,-1.0541,-1.0798,-1.0953,-1.0703,-1.0627,-1.0929,-1.1907,-1.1194,-1.1081,-1.2942,-1.2466,-1.2054,-1.2719,-1.2681,-1.2285,-1.148,-1.0375,-0.9542,-0.9244,-1.0679,-1.165,-1.147,-1.2524,-1.3467,-1.4055,-1.4242,-1.4522,-1.495,-1.5117,-1.5304,-1.5518,-1.5725,-1.5725,-1.5518,-1.5438,-1.5438,-1.5518,-1.5518,-1.5631,-1.5818,-1.5605,-1.5631,-1.5805,-1.5518,-1.5398,-1.5364,-1.5077,-1.4963,-1.491,-1.4482,-1.4329,-1.4362,0.0,0.0,0.0,0.0,0.0,0.0,0.0,0.0,0.0,0.0,0.0,0.0,0.0,0.0,0.0,0.0,0.0,0.0,0.0,-0.8122,-0.9251,-1.0809,-1.1075,-1.1172,-1.119,-1.0929,-1.1116,-1.1765,-1.1814,-1.2187,-1.2822,-1.2129,-1.1939,-1.2228,-1.1595,-1.1464,-1.1727,-1.1696,-1.1704,-1.1648,-1.0986,-1.0524,-1.0235,-0.9467,-0.8326,-0.7031,-0.6853,0.0,0.0,0.0,-0.6426,-0.7811,-0.6599,-0.7387,0.0,-0.7031,-0.587,-0.5347,0.0,0.0,-0.6247,-0.8428,-0.9425,-1.0327,-1.1853,-1.2492,-1.2872,-1.3386,-1.3287,-1.3187,-1.3479,-1.3287,-1.3101,-1.3206,-1.2939,-1.2739,-1.2822,-1.2331,-1.146,-1.0323,-0.9876,-0.8734,0.0,-0.8606,-1.0975,-1.2981,-1.3193,-1.3467,-1.4055,-1.4629,-1.4943,-1.4963,-1.5504,-1.5805,-1.5812,-1.5825,-1.5825,-1.5812,-1.5531,-1.5545,-1.5812,-1.5812,-1.5818,-1.5832,-1.5818,-1.5818,-1.5805,-1.5518,-1.5398,-1.5364,-1.5077,-1.4963,-1.4963,-1.4943,-1.4937,-1.4937,0.0,0.0,0.0,0.0,0.0,0.0,0.0,0.0,0.0,0.0,0.0,0.0,0.0,0.0,0.0,0.0,0.0,0.0,0.0,-0.6646,-0.7992,-0.9687,-1.0539,-1.116,-1.1445,-1.1397,-1.1556,-1.2082,-1.2082,-1.234,-1.2881,-1.2666,-1.2586,-1.2698,-1.2749,-1.2831,-1.2865,-1.2634,-1.252,-1.241,-1.1679,-1.0925,-1.0163,-0.9146,-0.8143,-0.7117,0.0,0.0,0.0,0.0,0.0,-0.5584,-0.6042,-0.6283,-0.6194,-0.5186,-0.5665,-0.6675,-0.7311,0.0,-0.9824,-1.0975,-1.2218,-1.3174,-1.3131,-1.342,-1.3634,-1.3641,-1.27,-1.1893,-1.1846,-1.096,-1.0498,-1.1598,-1.0953,-1.0898,-1.2556,-1.0855,-0.991,-1.1145,-0.9479,0.0,0.0,0.0,0.0,-1.0396,-1.2101,-1.3641,-1.4616,-1.4669,-1.4937,-1.5518,-1.5538,-1.5631,-1.5825,-1.5832,-1.5832,-1.5832,-1.5732,-1.5732,-1.5832,-1.5832,-1.5832,-1.5832,-1.5832,-1.5832,-1.5818,-1.5725,-1.5685,-1.5671,-1.5578,-1.5538,-1.5538,-1.5538,-1.5538,-1.5511,0.0,0.0,0.0,0.0,0.0,0.0,0.0,0.0,0.0,0.0,0.0,0.0,0.0,0.0,0.0,0.0,0.0,0.0,0.0,0.0,-0.6728,-0.8317,-0.9207,-0.9886,-1.0302,-1.0928,-1.1341,-1.1535,-1.1994,-1.2312,-1.2459,-1.2459,-1.2459,-1.2469,-1.2695,-1.2812,-1.2774,-1.2538,-1.2439,-1.231,-1.1158,-1.0366,-0.9655,-0.8237,-0.7159,0.0,0.0,0.0,0.0,0.0,0.0,-0.4872,-0.5279,-0.5201,-0.5115,-0.5828,-0.6882,-0.8116,-0.9509,-1.1308,-1.3087,-1.4081,-1.5192,-1.5782,-1.4792,-1.458,-1.4406,-1.3628,-1.2619,-1.1686,-1.0974,-1.0043,-0.9693,-1.0527,-0.9856,-1.003,-1.2204,-1.066,-0.9825,-1.1119,-0.957,-0.9024,0.0,0.0,0.0,-0.9696,-1.1471,-1.3011,-1.3926,-1.3905,-1.4402,-1.5645,-1.5591,-1.5645,-1.5825,-1.5832,-1.5832,-1.5832,-1.5832,-1.5832,-1.5832,-1.5832,-1.5464,-1.4896,-1.5497,-1.5457,-1.4903,-1.5503,-1.5832,-1.5832,-1.5832,-1.5832,-1.5832,-1.5832,-1.5832,-1.5805,0.0,0.0,0.0,0.0,0.0,0.0,0.0,0.0,0.0,0.0,0.0,0.0,0.0,0.0,0.0,0.0,0.0,0.0,0.0,0.0,0.0,-0.6754,-0.7253,-0.7657,-0.7957,-0.9606,-1.0381,-1.0187,-1.1476,-1.1845,-1.1465,-1.1436,-1.1436,-1.1455,-1.1436,-1.1436,-1.1436,-1.1436,-1.1436,-1.1271,-0.9559,-0.8859,-0.8615,-0.6855,0.0,0.0,0.0,0.0,0.0,0.0,0.0,0.0,0.0,-0.4631,-0.5641,-0.8728,-0.9308,-0.9659,-1.2771,-1.4585,-1.5903,-1.7429,-1.8051,-1.7946,-1.6638,-1.5883,-1.5076,-1.3454,-1.3001,-1.239,0.0,0.0,-1.0418,-1.0114,-0.9724,-1.0049,-1.164,-1.1507,-1.1012,0.0,0.0,0.0,0.0,0.0,0.0,-1.0906,0.0,-1.1848,-1.2209,-1.272,-1.3724,-1.5391,-1.5685,-1.5832,-1.5832,-1.5832,-1.5832,-1.5832,-1.5832,-1.5832,-1.5832,-1.5832,-1.4896,-1.3447,-1.508,-1.4877,-1.3465,-1.51,-1.5832,-1.5832,-1.5832,-1.5832,-1.5832,-1.5832,-1.5832,-1.5832,0.0,0.0,0.0,0.0,0.0,0.0,0.0,0.0,0.0,0.0,0.0,0.0,0.0,0.0,0.0,0.0,0.0,0.0,0.0,0.0,0.0,0.0,0.0,0.0,0.0,0.0,0.0,0.0,0.0,-0.9188,-0.9364,-0.915,-0.9168,-0.9364,-0.915,-0.905,-0.905,-0.905,-0.905,-0.9032,0.0,-0.8086,-0.7492,0.0,0.0,0.0,0.0,0.0,0.0,0.0,0.0,0.0,0.0,-0.8047,-0.8203,-0.8569,-1.0564,-1.2802,-1.3655,-1.6231,-1.8822,-1.9368,-1.9422,-1.8801,-1.7008,-1.6228,-1.5142,-1.2645,-1.1182,-0.9848,0.0,0.0,0.0,-0.8749,-0.7901,0.0,-1.0418,-0.9934,0.0,-1.0505,0.0,-1.1206,-1.2209,-1.2896,0.0,0.0,-1.283,-1.3808,-1.4517,-1.4701,-1.5068,-1.5705,-1.5792,-1.5832,-1.5832,-1.5832,-1.5832,-1.5832,-1.5832,-1.5832,-1.5832,-1.5832,-1.551,-1.5119,-1.5637,-1.551,-1.5126,-1.5637,-1.5832,-1.5832,-1.5832,-1.5832,-1.5832,-1.5832,-1.5832,-1.5832,0.0,0.0,0.0,0.0,0.0,0.0,0.0,0.0,0.0,0.0,0.0,0.0,0.0,0.0,0.0,0.0,0.0,0.0,0.0,0.0,0.0,0.0,0.0,0.0,0.0,0.0,0.0,0.0,0.0,0.0,0.0,-0.7938,-0.7974,-0.825,-0.8078,-0.8026,-0.8026,-0.8026,0.0,0.0,0.0,0.0,0.0,0.0,0.0,0.0,0.0,0.0,0.0,0.0,0.0,-0.7249,-1.0027,-1.0741,-1.0882,-1.2196,0.0,-1.5728,-1.6875,-1.9052,-2.1061,-2.1203,-2.0735,-1.9611,-1.6953,-1.5627,-1.4087,-1.1086,-0.9831,0.0,-0.7186,0.0,0.0,0.0,0.0,0.0,-0.9627,-0.9462,-0.9554,0.0,-1.1064,0.0,-1.3652,-1.4222,-1.421,0.0,-1.3496,-1.3767,-1.4339,-1.4385,-1.4878,-1.5812,-1.5832,-1.5832,-1.5832,-1.5832,-1.5832,-1.5832,-1.5832,-1.5832,-1.5832,-1.5832,-1.5424,-1.4707,-1.547,-1.5417,-1.4714,-1.5477,-1.5832,-1.5832,-1.5832,-1.5832,-1.5832,-1.5832,-1.5832,-1.5832,0.0,0.0,0.0,0.0,0.0,0.0,0.0,0.0,0.0,0.0,0.0,0.0,0.0,0.0,0.0,0.0,0.0,0.0,0.0,0.0,0.0,0.0,0.0,0.0,0.0,0.0,0.0,0.0,0.0,0.0,0.0,0.0,0.0,0.0,0.0,0.0,0.0,0.0,0.0,0.0,0.0,0.0,0.0,0.0,0.0,0.0,0.0,0.0,0.0,0.0,-0.8303,-0.8454,-1.2145,-1.3201,-1.3699,-1.6908,-1.7889,-1.8381,-2.0342,-2.1724,-2.2578,-2.2519,-2.1826,-2.0284,-1.6938,-1.4889,-1.2797,-0.9662,0.0,-0.8518,-0.7104,-0.7328,-0.783,-0.8064,0.0,-0.8525,-0.8837,-0.9566,-1.0147,-1.0386,-1.1138,-1.2397,-1.4024,-1.4469,-1.488,-1.5418,-1.4015,-1.325,-1.3349,-1.3473,-1.4198,-1.571,-1.5832,-1.5832,-1.5832,-1.5832,-1.5832,-1.5832,-1.5832,-1.5832,-1.5832,-1.5832,-1.4935,-1.3634,-1.5113,-1.4916,-1.3647,-1.5225,-1.5832,-1.5832,-1.5832,-1.5832,-1.5832,-1.5832,-1.5832,-1.5832,0.0,0.0,0.0,0.0,0.0,0.0,0.0,0.0,0.0,0.0,-0.1958,-0.2078,0.0,0.0,0.0,0.0,0.0,0.0,0.0,0.0,0.0,0.0,0.0,0.0,0.0,0.0,0.0,0.0,0.0,0.0,0.0,0.0,0.0,0.0,0.0,0.0,0.0,0.0,0.0,0.0,0.0,0.0,0.0,0.0,0.0,0.0,0.0,0.0,0.0,0.0,-0.9022,-1.0539,-1.4326,-1.6234,-1.6994,-1.6893,-1.8634,-2.0362,-1.9687,-2.1216,-2.2949,-2.2598,-2.1592,-2.0226,-1.8481,-1.6053,0.0,0.0,-0.8993,-0.8015,-0.8003,-0.7709,-0.787,-0.9103,0.0,0.0,0.0,0.0,-1.0423,0.0,0.0,0.0,0.0,0.0,0.0,0.0,-1.5424,-1.5332,-1.5332,-1.5378,-1.5477,-1.5825,-1.5832,-1.5832,-1.5832,-1.5832,-1.5832,-1.5832,-1.5832,-1.5832,-1.5832,-1.5832,-1.5651,-1.5417,-1.5664,0.0,-1.5324,-1.567,-1.5832,-1.5832,-1.5832,-1.5832,-1.5832,-1.5832,-1.5832,-1.5832,0.0,0.0,0.0,0.0,0.0,0.0,0.0,-0.149,-0.1448,-0.1624,-0.1698,-0.1804,-0.1967,-0.1881,0.0,0.0,0.0,0.0,0.0,0.0,0.0,0.0,0.0,0.0,0.0,0.0,0.0,0.0,0.0,0.0,0.0,0.0,0.0,0.0,0.0,0.0,0.0,0.0,0.0,0.0,0.0,0.0,0.0,0.0,0.0,0.0,0.0,0.0,0.0,0.0,-0.7943,-0.9671,-1.4544,-1.7109,-1.8191,-1.7572,-1.9355,-2.1264,-1.9944,-2.132,-2.293,-2.206,-2.0869,-1.9136,-1.605,0.0,0.0,0.0,-0.7074,-0.6547,-0.6701,0.0,0.0,0.0,0.0,0.0,0.0,0.0,0.0,0.0,0.0,0.0,0.0,0.0,0.0,-1.4339,-1.4481,-1.487,-1.571,-1.5832,-1.5832,-1.5832,-1.5832,-1.5832,-1.5832,-1.5832,-1.5832,-1.5832,-1.5832,-1.5832,-1.5832,-1.5832,-1.5832,-1.5832,-1.5832,-1.5278,-1.4519,-1.5444,-1.5271,-1.4532,-1.5457,-1.5832,-1.5832,-1.5832,-1.5832,-1.5832,0.0,0.0,0.0,0.0,0.0,0.0,0.0,-0.1232,-0.1195,-0.1464,-0.1496,-0.1571,-0.1771,-0.1761,-0.1859,0.0,0.0,0.0,0.0,0.0,0.0,0.0,0.0,0.0,0.0,0.0,0.0,-0.4712,0.0,0.0,0.0,0.0,0.0,0.0,0.0,0.0,0.0,0.0,0.0,0.0,0.0,0.0,0.0,0.0,0.0,0.0,0.0,0.0,0.0,0.0,-0.6775,-0.8146,-1.3283,-1.6004,-1.7351,-1.784,-1.9457,-2.1029,-2.063,-2.1702,-2.2725,-2.1533,-2.0185,-1.8016,-1.38,-1.1559,0.0,0.0,-0.5588,-0.5496,-0.5886,0.0,0.0,0.0,0.0,0.0,0.0,0.0,0.0,0.0,0.0,0.0,0.0,0.0,0.0,-1.3767,-1.3785,-1.4345,-1.5697,-1.5832,-1.5832,-1.5832,-1.5832,-1.5832,-1.5832,-1.5832,-1.5832,-1.5832,-1.5832,-1.5832,-1.5832,-1.5832,-1.5832,-1.5832,-1.5832,-1.4851,-1.3316,-1.508,-1.4739,-1.3334,-1.51,-1.5832,-1.5832,-1.5832,-1.5832,-1.5832,0.0,0.0,0.0,0.0,0.0,0.0,0.0,-0.1378,-0.1195,-0.1464,-0.1496,-0.1571,-0.1771,-0.1634,-0.1713,0.0,0.0,0.0,0.0,0.0,0.0,0.0,0.0,0.0,0.0,0.0,0.0,-0.444,-0.5009,0.0,0.0,0.0,0.0,0.0,0.0,-0.513,0.0,0.0,0.0,0.0,0.0,0.0,0.0,0.0,0.0,0.0,0.0,0.0,0.0,0.0,0.0,-0.7236,-1.0065,-1.1927,-1.3609,-1.6591,0.0,0.0,-2.162,-2.2395,-2.2353,-2.1465,-1.9951,-1.7949,-1.5213,0.0,0.0,-0.7959,-0.6543,-0.6166,-0.7717,-0.8268,-0.8849,0.0,0.0,-0.7866,0.0,0.0,0.0,0.0,0.0,0.0,0.0,0.0,0.0,-1.5437,-1.5516,-1.5644,-1.5825,-1.5832,-1.5832,-1.5832,-1.5832,-1.5832,-1.5832,-1.5832,-1.5832,-1.5832,-1.5832,-1.5832,-1.5832,-1.5832,-1.5832,-1.5832,-1.5832,-1.4851,0.0,-1.508,-1.4739,-1.3334,-1.51,-1.5832,-1.5832,-1.5832,-1.5832,-1.5832,0.0,0.0,0.0,0.0,0.0,0.0,-0.1448,-0.1177,-0.1061,-0.1286,-0.1351,-0.1491,-0.1761,-0.1613,-0.1569,0.0,0.0,0.0,0.0,0.0,0.0,0.0,0.0,0.0,0.0,0.0,0.0,-0.4402,-0.4816,0.0,0.0,0.0,0.0,0.0,0.0,-0.521,-0.511,0.0,0.0,0.0,0.0,0.0,0.0,0.0,0.0,0.0,0.0,0.0,0.0,0.0,0.0,0.0,-0.65,-0.7202,0.0,0.0,-1.5053,-1.7723,-1.7665,-1.9827,-2.1797,-2.041,-1.9346,-1.7523,-1.3424,0.0,0.0,-0.6881,-0.5846,-0.5712,-0.6571,-0.6975,-0.7493,-0.8475,0.0,0.0,0.0,0.0,0.0,0.0,0.0,0.0,0.0,0.0,-1.3454,-1.4166,-1.4198,-1.4694,-1.5704,-1.5832,-1.5832,-1.5832,-1.5832,-1.5832,-1.5832,-1.5832,-1.5832,-1.5832,-1.5832,-1.5832,-1.5832,-1.5832,-1.5832,-1.5832,-1.5832,-1.4198,0.0,-1.4682,-1.4166,-1.1899,-1.4714,-1.5832,-1.5832,-1.5832,-1.5832,-1.5832,0.0,0.0,0.0,0.0,0.0,-0.1182,-0.1226,-0.1039,-0.0976,-0.1177,-0.1258,-0.141,-0.1677,-0.1581,-0.1492,-0.1496,0.0,0.0,0.0,0.0,0.0,0.0,0.0,0.0,0.0,0.0,0.0,-0.4402,-0.4668,-0.496,0.0,0.0,-0.5309,-0.5309,0.0,0.0,0.0,0.0,0.0,0.0,0.0,0.0,0.0,0.0,0.0,0.0,0.0,0.0,0.0,0.0,0.0,0.0,0.0,0.0,0.0,0.0,-1.2377,-1.5714,-1.5271,-1.8119,-2.0791,-1.9434,-1.8309,-1.6329,0.0,0.0,0.0,-0.5885,-0.545,-0.5631,-0.5805,-0.6159,-0.6793,-0.7818,0.0,-0.8555,0.0,0.0,0.0,0.0,0.0,0.0,0.0,0.0,-1.3975,-1.3975,-1.3975,-1.4513,-1.5697,-1.5832,-1.5832,-1.5832,-1.5832,-1.5832,-1.5832,-1.5832,-1.5832,-1.5832,-1.5832,-1.5497,-1.5067,-1.5516,-1.549,-1.5067,-1.5617,-1.4147,0.0,-1.4551,-1.4025,-1.1628,-1.4682,-1.5832,-1.5832,-1.5832,-1.5832,-1.5832,0.0,0.0,0.0,0.0,0.0,0.0,-0.1204,-0.1076,-0.0976,-0.1177,-0.1258,-0.1356,-0.1485,-0.1496,-0.1502,-0.1495,0.0,0.0,0.0,0.0,0.0,0.0,0.0,0.0,0.0,0.0,0.0,-0.4402,-0.4668,-0.496,-0.5309,-0.5309,-0.5309,-0.5309,0.0,0.0,0.0,0.0,0.0,0.0,0.0,0.0,0.0,0.0,0.0,0.0,0.0,0.0,0.0,0.0,0.0,0.0,0.0,0.0,0.0,0.0,-1.0442,-1.2635,-1.5928,-1.8043,-1.9209,-1.876,-1.6699,-1.4175,0.0,0.0,0.0,-0.5653,-0.5779,-0.6189,-0.6189,-0.6627,-0.7459,-0.8853,-0.8971,0.0,0.0,0.0,0.0,0.0,0.0,0.0,0.0,0.0,-1.5818,-1.5818,-1.5818,0.0,-1.5832,-1.5832,-1.5832,-1.5832,-1.5832,-1.5832,-1.5832,-1.5832,-1.5832,-1.5832,-1.5832,-1.4896,-1.3291,-1.5047,-1.4877,-1.3309,-1.5067,-1.4844,0.0,-1.508,-1.4733,-1.3322,-1.51,-1.5832,-1.5832,-1.5832,-1.5832,-1.5832,0.0,0.0,0.0,0.0,0.0,0.0,0.0,-0.0954,-0.0921,-0.0988,-0.1171,-0.1356,-0.1485,-0.1791,-0.1845,-0.1522,0.0,0.0,0.0,0.0,0.0,0.0,0.0,0.0,0.0,0.0,-0.3908,-0.4402,-0.4496,-0.4796,-0.5309,-0.5309,-0.5309,-0.5277,-0.496,0.0,0.0,0.0,0.0,0.0,0.0,0.0,0.0,0.0,0.0,0.0,0.0,0.0,0.0,0.0,0.0,0.0,0.0,0.0,0.0,0.0,0.0,0.0,-1.1028,-1.3046,-1.4736,-1.3976,-1.3204,-1.1957,-0.9392,0.0,0.0,-0.5653,-0.5585,-0.5919,-0.6156,-0.6473,-0.7231,-0.8822,-0.8971,0.0,0.0,0.0,0.0,0.0,0.0,0.0,0.0,0.0,-1.4519,-1.569,-1.4701,-1.4532,-1.5704,-1.5832,-1.5832,-1.5832,-1.5832,-1.5832,-1.5832,-1.5832,-1.5832,-1.5832,-1.5832,-1.489,-1.3279,-1.5041,-1.487,-1.3297,-1.506,-1.4851,-1.3316,-1.508,-1.4739,-1.3334,-1.51,-1.5832,-1.5832,-1.5832,-1.6386,-1.6943,0.0,0.0,0.0,0.0,0.0,0.0,0.0,-0.0818,-0.0899,-0.0899,-0.1094,-0.1276,-0.141,-0.1839,-0.1983,-0.1643,0.0,0.0,0.0,0.0,0.0,0.0,0.0,0.0,0.0,-0.3506,-0.3738,-0.4242,-0.4349,-0.4649,-0.5117,-0.523,-0.5309,-0.5284,-0.4794,0.0,0.0,0.0,0.0,0.0,0.0,0.0,-0.3986,0.0,0.0,0.0,0.0,0.0,0.0,0.0,0.0,0.0,0.0,0.0,0.0,0.0,-0.6412,0.0,0.0,-1.0373,-1.2024,-1.1518,-1.0876,0.0,0.0,0.0,0.0,0.0,-0.6047,-0.6569,-0.6276,-0.6939,-0.7652,-0.795,-0.8987,0.0,0.0,0.0,0.0,0.0,0.0,0.0,0.0,-1.4728,-1.4669,-1.569,-1.4746,-1.4682,-1.5704,-1.5832,-1.5832,-1.5832,-1.5832,-1.5832,-1.5832,-1.5832,-1.5832,-1.5832,-1.5832,-1.489,-1.3279,-1.5041,-1.487,-1.3297,-1.506,-1.5132,0.0,-1.5311,-1.5119,-1.4314,-1.5417,-1.5832,-1.5832,-1.6386,-1.7037,-1.7692,0.0,0.0,0.0,0.0,0.0,0.0,0.0,0.0,-0.0902,-0.0912,-0.1055,-0.1201,-0.1336,-0.1768,-0.1977,-0.184,0.0,0.0,0.0,0.0,0.0,0.0,0.0,0.0,0.0,-0.3506,-0.3674,-0.3992,-0.4242,-0.4509,-0.4814,-0.5117,-0.5264,-0.5284,-0.4794,0.0,0.0,0.0,0.0,0.0,0.0,0.0,0.0,0.0,0.0,0.0,0.0,0.0,0.0,0.0,0.0,0.0,0.0,0.0,0.0,0.0,0.0,0.0,0.0,0.0,0.0,0.0,0.0,0.0,0.0,0.0,0.0,0.0,0.0,0.0,0.0,-0.7965,-0.8662,-0.6706,0.0,0.0,0.0,0.0,0.0,0.0,0.0,0.0,-1.4912,-1.5464,-1.5832,-1.5832,-1.5832,-1.5832,-1.5832,-1.5832,-1.5832,-1.5832,-1.5832,-1.5832,-1.5832,-1.5832,-1.571,-1.567,-1.571,-1.487,-1.3049,-1.4929,-1.487,0.0,-1.506,-1.5832,-1.5832,-1.5832,-1.5832,-1.5832,-1.592,-1.592,-1.6109,-1.7318,-1.787,-1.8141,0.0,0.0,0.0,0.0,0.0,0.0,0.0,0.0,0.0,0.0,-0.1388,-0.1682,-0.1824,-0.2213,-0.237,0.0,0.0,0.0,0.0,0.0,0.0,0.0,0.0,0.0,0.0,-0.3506,-0.3674,-0.3992,-0.4066,-0.4335,-0.4807,-0.488,-0.5063,-0.5277,-0.4473,0.0,0.0,0.0,0.0,0.0,0.0,0.0,0.0,0.0,0.0,0.0,-0.3345,-0.3291,0.0,0.0,0.0,0.0,0.0,0.0,0.0,0.0,-0.5309,-0.5401,-0.5913,0.0,-0.6626,-0.6626,-0.636,0.0,0.0,0.0,0.0,0.0,0.0,0.0,0.0,0.0,0.0,0.0,0.0,0.0,0.0,0.0,0.0,0.0,0.0,0.0,-1.3646,-1.4852,-1.5832,-1.5832,-1.5832,-1.5832,-1.5832,-1.5832,-1.5832,-1.5832,-1.5832,-1.5832,-1.5832,-1.5832,-1.5217,-1.3945,-1.523,-1.4195,-1.1483,-1.4466,-1.487,-1.3297,-1.506,-1.5832,-1.5832,-1.5832,-1.5832,-1.592,-1.685,-1.7225,-1.7404,-1.8588,-1.967,-2.0395,0.0,0.0,0.0,0.0,0.0,0.0,0.0,0.0,0.0,0.0,0.0,0.0,0.0,0.0,0.0,0.0,0.0,0.0,0.0,0.0,0.0,0.0,0.0,0.0,-0.3485,-0.3506,-0.3674,-0.3992,-0.4126,-0.4402,-0.4807,-0.4947,-0.5001,-0.4953,-0.4081,0.0,0.0,0.0,0.0,0.0,-0.3035,0.0,0.0,0.0,0.0,0.0,-0.356,-0.3626,0.0,-0.3717,-0.4171,-0.4734,0.0,0.0,0.0,0.0,-0.5309,-0.5309,-0.5309,-0.5309,-0.5474,-0.6253,-0.5878,-0.5554,0.0,0.0,0.0,0.0,0.0,0.0,0.0,0.0,0.0,0.0,0.0,0.0,0.0,0.0,0.0,0.0,0.0,-1.4699,0.0,-1.5281,-1.6386,-1.5825,-1.5832,-1.5832,-1.5832,-1.5832,-1.5832,-1.5832,-1.5832,-1.5832,-1.5832,-1.5832,-1.4958,-1.3393,-1.5065,-1.4425,-1.2076,-1.4679,-1.5278,-1.4468,-1.5147,-1.5585,-1.5805,-1.5538,-1.5958,-1.6756,-1.7412,-1.8048,-1.868,-1.9852,-2.0755,-2.1293,0.0,0.0,0.0,0.0,0.0,0.0,0.0,0.0,0.0,0.0,0.0,0.0,0.0,0.0,0.0,0.0,0.0,0.0,0.0,0.0,0.0,0.0,0.0,-0.3199,-0.3572,-0.3526,-0.3694,-0.4059,-0.4235,-0.4509,-0.4814,-0.5097,-0.4979,-0.4468,-0.3653,-0.3045,0.0,0.0,0.0,0.0,-0.2779,0.0,0.0,0.0,0.0,0.0,0.0,0.0,0.0,-0.4004,-0.4566,-0.5273,-0.5297,0.0,0.0,0.0,0.0,0.0,-0.5309,-0.5279,-0.5637,-0.7355,-0.6449,-0.5665,0.0,0.0,0.0,0.0,0.0,0.0,0.0,0.0,0.0,0.0,0.0,0.0,0.0,0.0,0.0,0.0,0.0,0.0,-1.3534,-1.5882,-1.7037,-1.6204,-1.592,-1.592,-1.6109,-1.5927,-1.5832,-1.5832,-1.5832,-1.5832,-1.5832,-1.5832,-1.4958,-1.3393,-1.5065,-1.4946,-1.3405,-1.5084,-1.5832,-1.5798,-1.5311,-1.5463,-1.6069,-1.5572,-1.638,-1.7956,-1.8141,-1.8864,-1.9943,-2.1123,-2.1569,-2.1765,0.0,0.0,0.0,0.0,0.0,0.0,0.0,0.0,0.0,0.0,0.0,0.0,0.0,0.0,0.0,0.0,0.0,0.0,0.0,0.0,0.0,0.0,-0.2875,-0.3129,-0.3894,-0.3632,-0.3772,-0.4335,-0.416,-0.4309,-0.4807,-0.4854,-0.4606,-0.4081,-0.342,-0.2971,-0.2712,-0.2712,-0.2712,-0.2746,-0.3068,0.0,0.0,0.0,0.0,0.0,0.0,0.0,0.0,-0.3955,-0.4515,-0.5166,-0.5261,0.0,0.0,0.0,0.0,0.0,-0.5309,-0.5123,-0.5424,-0.7334,-0.6086,-0.4936,-0.705,0.0,0.0,0.0,0.0,0.0,0.0,0.0,0.0,0.0,0.0,0.0,0.0,0.0,0.0,0.0,0.0,-1.6514,-1.4726,-1.5493,-1.648,-1.7318,-1.6386,-1.6292,-1.7318,-1.6386,-1.5832,-1.5832,-1.5832,-1.5832,-1.5832,-1.5832,-1.4958,-1.3393,-1.5065,-1.4946,-1.3405,-1.5084,-1.5832,-1.5825,-1.5732,-1.6303,-1.7404,-1.7309,-1.8041,-1.9314,-2.0305,-2.0845,-2.1203,-2.2403,-2.2862,-2.2911,0.0,0.0,0.0,0.0,0.0,0.0,0.0,0.0,0.0,0.0,0.0,0.0,0.0,0.0,0.0,0.0,0.0,0.0,0.0,0.0,0.0,-0.3089,-0.3113,-0.34,-0.3992,-0.3841,-0.4055,-0.4608,-0.4349,-0.4367,-0.4673,-0.4199,-0.3846,-0.3588,-0.3119,-0.2809,-0.2716,-0.294,-0.3035,-0.3068,0.0,0.0,0.0,0.0,0.0,0.0,0.0,0.0,0.0,0.0,-0.466,-0.5221,-0.5206,0.0,0.0,0.0,0.0,0.0,-0.5309,-0.4885,-0.5057,-0.7803,-0.6633,-0.5597,-0.8604,0.0,0.0,0.0,0.0,0.0,0.0,0.0,0.0,0.0,0.0,0.0,0.0,0.0,-1.4314,0.0,0.0,-1.6931,-1.5106,-1.6698,-1.8033,-1.8588,-1.749,-1.7037,-1.7692,-1.648,-1.5832,-1.5832,-1.5832,-1.5832,-1.5832,-1.5832,-1.4958,-1.3393,-1.5065,-1.4946,-1.3405,-1.5084,-1.5832,-1.5812,-1.6211,-1.689,-1.7755,-1.8014,-1.9052,-2.0486,-2.1114,-2.1658,-2.2306,-2.2862,-2.3135,-2.3203,0.0,0.0,0.0,0.0,0.0,0.0,0.0,0.0,0.0,0.0,0.0,0.0,0.0,0.0,0.0,0.0,0.0,0.0,0.0,0.0,-0.2611,-0.3089,-0.3434,-0.3772,-0.4093,-0.4099,-0.4322,-0.4807,-0.4499,-0.439,-0.4441,-0.3639,-0.3285,-0.329,-0.2834,-0.2682,-0.2712,-0.3134,-0.329,-0.3355,0.0,0.0,0.0,0.0,0.0,0.0,0.0,0.0,0.0,0.0,0.0,0.0,0.0,0.0,0.0,-0.4698,-0.4928,-0.5277,-0.5151,-0.461,-0.4765,-0.7723,0.0,-0.5826,-0.9897,0.0,0.0,0.0,0.0,0.0,0.0,0.0,0.0,0.0,0.0,0.0,-1.4974,-1.5544,-1.5975,-1.6117,-1.7303,-1.7676,-1.6616,-1.8353,-1.9497,-1.9497,-1.8411,-1.7692,-1.7692,-1.6756,-1.6197,-1.6197,-1.6197,-1.6197,-1.6197,-1.6197,-1.5491,-1.3945,-1.5504,-1.5485,-1.4049,-1.5511,-1.6197,-1.6264,-1.6777,-1.756,-1.8548,-1.9071,-2.0228,-2.1747,-2.1747,-2.2306,-2.3135,-2.3135,-2.3203,-2.334,0.0,0.0,0.0,0.0,0.0,0.0,0.0,0.0,0.0,0.0,0.0,0.0,0.0,0.0,0.0,0.0,0.0,0.0,0.0,0.0,-0.3046,-0.3089,-0.3647,-0.4095,-0.4369,-0.4369,-0.4502,-0.4807,-0.441,-0.4152,-0.4021,-0.341,-0.3166,-0.3286,-0.2745,-0.2579,-0.2712,-0.3134,-0.329,-0.3388,-0.4205,0.0,0.0,0.0,0.0,0.0,0.0,0.0,0.0,0.0,0.0,0.0,0.0,0.0,-0.4634,-0.4602,-0.4928,-0.5214,-0.4762,-0.4432,-0.4562,-0.618,-0.4908,0.0,-0.9426,-0.7394,0.0,0.0,0.0,0.0,0.0,0.0,0.0,0.0,0.0,-1.5141,-1.644,0.0,-1.9343,-2.0625,-1.9962,-1.9791,-2.0704,-2.0073,-1.9497,-1.9497,-1.8411,-1.7692,-1.7692,-1.7598,-1.7598,-1.7598,-1.7598,-1.7598,-1.7598,-1.7598,-1.6922,-1.567,-1.6922,-1.6922,-1.567,-1.7016,-1.7598,-1.7591,-1.7639,-1.8899,-2.1016,-2.1051,-2.1887,-2.296,-2.296,-2.3047,-2.3135,-2.3135,-2.3398,-2.375,0.0,0.0,0.0,0.0,0.0,0.0,0.0,0.0,0.0,0.0,0.0,0.0,0.0,0.0,0.0,0.0,0.0,0.0,0.0,0.0,-0.3275,-0.3651,-0.4033,-0.4375,-0.4641,-0.4648,-0.4672,-0.4673,-0.3977,-0.3514,-0.3317,-0.2991,-0.2881,-0.2937,-0.2966,-0.3038,-0.313,-0.3816,-0.3946,-0.3788,-0.4371,-0.4344,0.0,0.0,0.0,0.0,0.0,0.0,0.0,0.0,-0.4861,-0.5163,0.0,-0.4794,-0.4985,-0.4698,-0.504,-0.5445,-0.493,-0.4624,-0.4891,-0.6659,0.0,0.0,0.0,0.0,0.0,0.0,0.0,0.0,0.0,0.0,0.0,0.0,0.0,-1.7938,-1.91,-1.9739,-2.0413,-2.1159,-2.0935,-2.0845,-2.1293,-2.0625,-2.0687,-2.1658,-2.014,-1.9272,-1.9597,-1.8799,-1.8356,-1.8356,-1.7942,-1.8048,-1.8772,-1.8048,-1.7863,-1.8118,-1.8588,-1.8588,-1.8126,-1.8588,-1.8864,-1.8864,-1.9579,-2.0486,-2.1382,-2.212,-2.2677,-2.3135,-2.3135,-2.3135,-2.3135,-2.3135,-2.3242,-2.3389,0.0,0.0,0.0,0.0,0.0,0.0,0.0,0.0,0.0,0.0,0.0,0.0,0.0,0.0,0.0,0.0,0.0,0.0,0.0,-0.3181,-0.3418,-0.3821,-0.4202,-0.4496,-0.4668,-0.4701,-0.4617,-0.4418,-0.3551,-0.3021,-0.2835,-0.2729,-0.2779,-0.2907,0.0,0.0,0.0,-0.4081,-0.4248,-0.4026,-0.4441,-0.4441,0.0,0.0,0.0,0.0,0.0,0.0,0.0,0.0,-0.4922,0.0,0.0,0.0,-0.5036,-0.4832,-0.5217,-0.5622,-0.5216,-0.4849,-0.5042,0.0,0.0,0.0,0.0,0.0,0.0,0.0,0.0,0.0,0.0,0.0,0.0,0.0,-1.6918,-1.938,-2.021,-2.0445,-2.0757,-2.1604,-2.1386,-2.1344,-2.1836,-2.1484,-2.1547,-2.2282,-2.0851,-1.9974,-1.9904,-1.9478,-1.9267,-1.9385,-1.8929,-1.9109,-2.0034,-1.9222,-1.9222,-2.0034,-2.0486,-2.0223,-1.9488,-1.9852,-2.0034,-2.0124,-2.0935,-2.148,-2.1933,-2.2765,-2.3135,-2.3135,-2.3135,-2.3135,-2.3135,-2.3135,-2.3135,-2.3135,0.0,0.0,0.0,0.0,0.0,0.0,0.0,0.0,0.0,0.0,0.0,0.0,0.0,0.0,0.0,0.0,0.0,0.0,0.0,-0.3357,-0.3513,-0.3513,-0.407,-0.4409,-0.4409,-0.4521,-0.4412,-0.4004,-0.3127,-0.2704,-0.2716,-0.2716,-0.294,-0.329,0.0,0.0,0.0,0.0,-0.4031,-0.4026,-0.4441,-0.4602,-0.4573,0.0,0.0,0.0,0.0,0.0,0.0,0.0,-0.4992,-0.4602,0.0,0.0,0.0,-0.502,-0.5409,-0.5674,-0.556,-0.506,-0.505,0.0,0.0,0.0,0.0,0.0,0.0,0.0,0.0,-1.3317,-1.3784,0.0,0.0,-1.578,-1.7284,-1.8589,-1.9453,-1.9868,-2.0613,-2.2272,-2.1425,-2.1314,-2.2902,-2.2744,-2.1959,-2.0802,-2.0242,-1.951,-1.8329,-1.9349,-2.0207,-2.0688,-2.0706,-2.0896,-2.1275,-2.1284,-2.1284,-2.1293,-2.2482,-2.1854,-1.9579,-2.0755,-2.1293,-2.1293,-2.1293,-2.2031,-2.3135,-2.3135,-2.3135,-2.3135,-2.3135,-2.3135,-2.3135,-2.3135,-2.3135,-2.3135,0.0,0.0,0.0,0.0,0.0,0.0,0.0,0.0,0.0,0.0,0.0,0.0,0.0,0.0,0.0,0.0,0.0,0.0,0.0,-0.3676,-0.3935,-0.4135,-0.4482,-0.4803,-0.5017,-0.4647,-0.4315,-0.4007,-0.373,-0.3605,-0.3597,-0.3597,-0.3663,-0.3836,0.0,0.0,0.0,0.0,-0.5557,-0.4458,-0.48,-0.4798,-0.4614,0.0,0.0,0.0,0.0,0.0,0.0,0.0,0.0,0.0,0.0,0.0,0.0,-0.6622,-0.6548,-0.6209,-0.6929,-0.6437,0.0,0.0,0.0,0.0,0.0,0.0,0.0,0.0,0.0,-1.3487,-1.3629,0.0,0.0,-1.6465,-1.8406,-2.011,-2.0633,-2.0824,-2.1154,-2.2021,-2.1717,-2.1765,-2.2246,-2.1865,-2.1564,-2.152,-2.0862,-2.0415,-2.0309,-2.0655,-2.0885,-2.1091,-2.0503,-2.0704,-2.1721,-2.0824,-2.0961,-2.215,-2.2223,-2.2207,-2.2041,-2.2403,-2.2589,-2.2589,-2.2589,-2.2775,-2.3135,-2.3135,-2.3135,-2.3135,-2.3135,-2.3135,-2.3135,-2.3135,-2.3135,-2.3135,0.0,0.0,0.0,0.0,0.0,0.0,0.0,0.0,0.0,0.0,0.0,0.0,0.0,0.0,0.0,0.0,0.0,0.0,0.0,0.0,-0.4222,-0.4395,-0.4655,-0.488,-0.5017,-0.4852,-0.4599,-0.4248,-0.4029,-0.3934,-0.3993,-0.3993,-0.3993,-0.4036,0.0,-0.5242,0.0,0.0,-0.5645,-0.4792,-0.4879,-0.4967,-0.5045,0.0,0.0,0.0,0.0,0.0,0.0,0.0,0.0,0.0,0.0,0.0,0.0,-0.6848,-0.7003,-0.7165,-0.7871,0.0,0.0,0.0,0.0,0.0,0.0,0.0,0.0,0.0,0.0,-1.5185,-1.5656,-1.7384,0.0,-1.8229,-1.9564,-2.0654,-2.0937,-2.0967,-2.1133,-2.1572,-2.1621,-2.1699,-2.1865,-2.1494,-2.1348,-2.1611,-2.0967,-2.0684,-2.0957,-2.0967,-2.1045,-2.123,-2.0712,-2.0919,-2.1885,-2.1172,-2.1296,-2.2266,-2.2012,-2.2236,-2.2881,-2.2715,-2.2646,-2.2646,-2.2822,-2.2988,-2.3135,-2.3135,-2.3135,-2.3135,-2.3135,-2.3135,-2.3135,-2.3135,-2.3135,-2.3135,0.0,0.0,0.0,0.0,0.0,0.0,0.0,0.0,0.0,0.0,0.0,0.0,0.0,0.0,0.0,0.0,0.0,0.0,0.0,0.0,-0.4442,-0.4442,-0.4694,-0.4786,-0.466,-0.5087,-0.5087,-0.4666,-0.418,-0.4007,-0.4123,0.0,-0.4123,-0.4156,0.0,-0.4566,0.0,0.0,-0.4907,-0.5036,-0.4787,-0.5071,-0.5618,-0.508,0.0,0.0,0.0,0.0,0.0,0.0,0.0,0.0,0.0,-0.6084,-0.7347,-0.6201,-0.6958,-0.8215,0.0,0.0,0.0,0.0,0.0,0.0,0.0,0.0,0.0,0.0,0.0,-1.77,-1.8939,-1.9125,-1.9441,-2.0401,-2.0566,-2.0566,-2.0566,-2.0566,-2.0713,-2.1123,-2.1172,-2.1328,-2.1728,-2.1406,-2.1172,-2.1172,-2.0791,-2.0566,-2.0566,-2.0566,-2.0752,-2.1162,-2.1172,-2.1367,-2.1758,-2.1768,-2.1787,-2.1826,-2.1787,-2.2012,-2.2441,-2.21,-2.1963,-2.2021,-2.2402,-2.2783,-2.3135,-2.3135,-2.3135,-2.3135,-2.3135,-2.3135,-2.3135,-2.3135,-2.3135,-2.3135,0.0,0.0,0.0,0.0,0.0,0.0,0.0,0.0,0.0,0.0,0.0,0.0,0.0,0.0,0.0,0.0,0.0,0.0,0.0,0.0,-0.4714,-0.4714,-0.5023,-0.5186,-0.5151,-0.5246,-0.5246,-0.5151,-0.5023,-0.4991,0.0,0.0,0.0,-0.5074,0.0,-0.589,0.0,0.0,-0.5723,-0.4886,-0.5085,-0.5254,-0.5384,-0.5484,-0.5424,0.0,0.0,0.0,0.0,0.0,0.0,0.0,-0.49,-0.5294,-0.5987,-0.6784,-0.7157,-0.7608,0.0,0.0,0.0,0.0,0.0,0.0,0.0,0.0,0.0,0.0,0.0,-1.8072,-1.9898,-2.0245,-2.0323,-2.0566,-2.0566,-2.0566,-2.0566,-2.0566,-2.0596,-2.0703,-2.0713,-2.0742,-2.084,-2.0762,-2.0713,-2.0713,-2.0625,-2.0566,-2.0566,-2.0566,-2.0605,-2.0703,-2.0713,-2.0752,-2.085,-2.085,-2.1025,-2.1367,-2.1016,-2.126,-2.2031,-2.2266,-2.2559,-2.2881,-2.2959,-2.3057,-2.3135,-2.3135,-2.3135,-2.3135,-2.3135,-2.3135,-2.3135,-2.3135,-2.3135,-2.3135,0.0,0.0,0.0,0.0,0.0,0.0,0.0,0.0,0.0,0.0,0.0,0.0,0.0,0.0,0.0,0.0,0.0,0.0,0.0,0.0,0.0,-0.505,-0.5197,-0.5309,-0.5309,-0.5309,-0.5309,-0.5309,-0.5309,0.0,0.0,0.0,0.0,-0.4998,0.0,-0.5609,0.0,0.0,0.0,-0.4821,-0.4973,-0.5157,-0.5329,-0.5451,-0.5324,-0.507,-0.507,0.0,0.0,0.0,0.0,0.0,0.0,0.0,-0.6308,-0.639,-0.6973,-0.7787,0.0,0.0,0.0,0.0,0.0,0.0,0.0,0.0,0.0,0.0,0.0,-1.9381,-2.0439,-2.0566,-2.0566,-2.0566,-2.0566,-2.0566,-2.0566,-2.0566,-2.0566,-2.0566,-2.0566,-2.0566,-2.0566,-2.0566,-2.0566,-2.0566,-2.0566,-2.0566,-2.0566,-2.0566,-2.0566,-2.0566,-2.0566,-2.0566,-2.0566,-2.0566,-2.0684,-2.0908,-2.0674,-2.1035,-2.1894,-2.2119,-2.2441,-2.2832,-2.2832,-2.2949,-2.3135,-2.3135,-2.3135,-2.3135,-2.3135,-2.3135,-2.3135,-2.3135,-2.3135,-2.3135,0.0,0.0,0.0,0.0,0.0,0.0,0.0,0.0,0.0,0.0,0.0,0.0,0.0,0.0,0.0,0.0,0.0,0.0,0.0,0.0,0.0,0.0,-0.5309,-0.5309,-0.5309,-0.5309,-0.5309,-0.5309,0.0,0.0,0.0,0.0,0.0,-0.4901,0.0,0.0,0.0,0.0,0.0,0.0,0.0,0.0,-0.5309,-0.5309,-0.5097,-0.4807,-0.4807,-0.4621,-0.4409,-0.4462,0.0,0.0,0.0,0.0,-0.6808,-0.5582,-0.6535,-0.7931,0.0,0.0,0.0,0.0,0.0,0.0,0.0,0.0,0.0,0.0,-2.0508,-2.0566,-2.0566,-2.0566,-2.0566,-2.0566,-2.0566,-2.0566,-2.0566,-2.0566,-2.0566,-2.0566,-2.0566,-2.0566,-2.0566,-2.0566,-2.0566,-2.0566,-2.0566,-2.0566,-2.0566,-2.0566,-2.0566,-2.0566,-2.0566,-2.0566,-2.0566,-2.0566,-2.0566,-2.0566,-2.0644,-2.1103,-2.1885,-2.1963,-2.2217,-2.2617,-2.2617,-2.2822,-2.3135,-2.3135,-2.3135,-2.3135,-2.3135,-2.3135,-2.3135,-2.3135,-2.3135,-2.3135,0.0,0.0,0.0,0.0,0.0,0.0,0.0,0.0,0.0,0.0,0.0,0.0,0.0,0.0,0.0,0.0,0.0,0.0,-0.5789,0.0,0.0,-0.5309,-0.5309,-0.5309,-0.5309,-0.5309,-0.5309,-0.5309,0.0,0.0,0.0,0.0,0.0,-0.6016,0.0,0.0,0.0,0.0,0.0,0.0,0.0,0.0,-0.5309,-0.5309,-0.5097,-0.4807,-0.4807,-0.4621,-0.4442,-0.4661,-0.4748,0.0,0.0,0.0,-0.549,-0.502,-0.5793,-0.6874,0.0,0.0,0.0,0.0,0.0,0.0,0.0,0.0,0.0,0.0,-2.0303,-2.0566,-2.0566,-2.0566,-2.0566,-2.0566,-2.0566,-2.0566,-2.0566,-2.0566,-2.0566,-2.0566,-2.0566,-2.0566,-2.0566,-2.0566,-2.0566,-2.0566,-2.0566,-2.0566,-2.0566,-2.0566,-2.0566,-2.0566,-2.0566,-2.0566,-2.0566,-2.0566,-2.0566,-2.0566,-2.0957,-2.1406,-2.1894,-2.2266,-2.2656,-2.3057,-2.3057,-2.3086,-2.3135,-2.3135,-2.3135,-2.3135,-2.3135,-2.3135,-2.3135,-2.3135,-2.3135,-2.3135,0.0,0.0,0.0,0.0,0.0,0.0,0.0,0.0,0.0,0.0,0.0,0.0,0.0,0.0,0.0,-0.5906,-0.5734,-0.5617,-0.5554,-0.5404,-0.5309,-0.5309,-0.5309,-0.5204,-0.5037,-0.503,-0.495,0.0,0.0,0.0,0.0,-0.7115,-0.6971,0.0,0.0,0.0,0.0,0.0,0.0,0.0,0.0,0.0,0.0,-0.5097,-0.5057,-0.5063,-0.4867,-0.4621,-0.4422,-0.4522,-0.4568,-0.4595,-0.4754,0.0,0.0,0.0,-0.5564,0.0,0.0,0.0,0.0,0.0,0.0,0.0,0.0,0.0,0.0,0.0,-2.0264,-2.0566,-2.0566,-2.0566,-2.0566,-2.0566,-2.0566,-2.0566,-2.0566,-2.0566,-2.0566,-2.0566,-2.0566,-2.0566,-2.0566,-2.0566,-2.0566,-2.0566,-2.0566,-2.0566,-2.0566,-2.0566,-2.0566,-2.0566,-2.0566,-2.0566,-2.0566,-2.081,-2.0937,-2.0947,-2.1143,-2.1465,-2.1894,-2.208,-2.2519,-2.3135,-2.3135,-2.3135,-2.3135,-2.3135,-2.3135,-2.3135,-2.3135,-2.3135,-2.3135,-2.3135,-2.3135,-2.3135,0.0,0.0,0.0,0.0,0.0,0.0,0.0,0.0,0.0,0.0,0.0,0.0,0.0,0.0,0.0,0.0,-0.5944,-0.5765,-0.546,-0.546,-0.5404,-0.5316,-0.5204,-0.5063,-0.4814,-0.4734,0.0,0.0,0.0,0.0,-0.7509,-0.7747,-0.7968,0.0,-0.8733,0.0,0.0,0.0,0.0,0.0,0.0,0.0,0.0,0.0,-0.5264,-0.5351,-0.5057,-0.4734,-0.4509,-0.4509,-0.4509,-0.4542,-0.4827,-0.492,0.0,0.0,0.0,0.0,0.0,0.0,0.0,0.0,0.0,0.0,0.0,0.0,0.0,0.0,-1.9954,-2.0566,-2.0566,-2.0566,-2.0566,-2.0566,-2.0566,-2.0566,-2.0566,-2.0566,-2.0566,-2.0566,-2.0566,-2.0566,-2.0566,-2.0566,-2.0566,-2.0566,-2.0566,-2.0566,-2.0566,-2.0566,-2.0566,-2.0566,-2.0566,-2.0566,-2.0566,-2.0898,-2.1064,-2.1064,-2.1064,-2.1357,-2.1885,-2.1885,-2.2344,-2.3135,-2.3135,-2.3135,-2.3135,-2.3135,-2.3135,-2.3135,-2.3135,-2.3135,-2.3135,-2.3135,-2.3135,-2.3135,0.0,0.0,0.0,0.0,0.0,0.0,0.0,0.0,0.0,0.0,0.0,0.0,-0.6545,-0.6175,-0.6068,-0.6427,-0.6129,-0.5882,-0.5882,-0.5859,-0.5703,-0.5309,-0.501,0.0,-0.4807,-0.4542,0.0,0.0,0.0,0.0,-0.7253,-0.8143,-0.8999,-0.9731,-0.8889,-0.847,-0.8377,0.0,0.0,0.0,0.0,0.0,0.0,0.0,0.0,0.0,0.0,-0.5063,-0.4787,-0.4787,-0.4787,-0.4834,-0.5164,-0.5289,-0.5264,0.0,0.0,0.0,0.0,0.0,0.0,0.0,0.0,0.0,0.0,0.0,0.0,0.0,-1.8963,-2.0566,-2.0566,-2.0566,-2.0566,-2.0566,-2.0566,-2.0566,-2.0566,-2.0566,-2.0566,-2.0566,-2.0566,-2.0566,-2.0566,-2.0566,-2.0566,-2.0566,-2.0566,-2.0566,-2.0566,-2.0566,-2.0566,-2.0566,-2.0566,-2.0566,-2.0566,-2.0586,-2.0596,-2.0596,-2.0596,-2.1055,-2.1885,-2.1885,-2.2344,-2.3135,-2.3135,-2.3135,-2.3135,-2.3135,-2.3135,-2.3135,-2.3135,-2.3135,-2.3135,-2.3135,-2.3135,-2.3212,0.0,0.0,0.0,0.0,0.0,0.0,0.0,0.0,0.0,0.0,0.0,0.0,0.0,-0.7136,-0.7008,-0.691,-0.6097,-0.548,-0.5222,-0.5211,-0.5123,-0.4991,-0.4857,-0.4801,-0.4801,-0.4534,0.0,0.0,0.0,-0.5078,-0.6996,-0.7073,-0.8074,-0.9804,-1.0868,-1.0214,-0.8417,-0.9663,0.0,0.0,0.0,0.0,0.0,0.0,0.0,0.0,0.0,0.0,0.0,-0.6082,-0.5558,-0.5384,-0.5304,-0.5309,-0.5309,-0.5309,-0.5309,0.0,0.0,0.0,0.0,0.0,0.0,0.0,0.0,0.0,0.0,-1.5041,-1.8046,-2.0226,-1.8872,-1.9697,-2.0566,-2.0566,-2.0566,-2.0566,-2.0566,-2.0566,-2.0566,-2.0566,-2.0566,-2.0566,-2.0566,-2.0566,-2.0566,-2.0566,-1.9583,-1.944,-2.0537,-1.9573,-1.9526,-2.0547,-2.0566,-2.0703,-2.0996,-2.1269,-2.1416,-2.1416,-2.1416,-2.1719,-2.2275,-2.2012,-2.2344,-2.3135,-2.3135,-2.3135,-2.3135,-2.3135,-2.3135,-2.3135,-2.3135,-2.3135,-2.3222,-2.3877,-2.4211,-2.4382,0.0,0.0,0.0,0.0,0.0,0.0,0.0,0.0,0.0,-0.7695,0.0,0.0,0.0,0.0,-0.7346,-0.6928,-0.619,-0.5572,-0.5177,-0.5128,-0.5083,-0.4929,-0.4755,-0.4673,-0.4657,-0.429,0.0,0.0,0.0,0.0,0.0,-0.6715,-0.7637,-0.9099,-1.1113,-1.1044,0.0,0.0,0.0,-0.8426,0.0,0.0,-0.8248,0.0,0.0,0.0,0.0,0.0,0.0,0.0,0.0,-0.673,-0.6449,-0.5892,-0.5309,-0.5309,-0.5309,0.0,-0.6226,0.0,0.0,0.0,0.0,0.0,0.0,0.0,-1.4469,-1.4156,-1.7515,-2.0226,-1.8834,-1.9678,-2.0566,-2.0566,-2.0566,-2.0566,-2.0566,-2.0566,-2.0566,-2.0566,-2.0566,-2.0566,-2.0566,-2.0566,-2.0566,-2.0566,-1.9564,-1.9421,-2.0537,-1.9554,-1.9431,-2.0547,-2.0566,-2.0713,-2.1006,-2.1445,-2.167,-2.167,-2.1816,-2.2109,-2.25,-2.2217,-2.248,-2.3135,-2.3135,-2.3135,-2.3135,-2.3135,-2.3135,-2.3135,-2.3135,-2.3299,-2.38,-2.4542,-2.5041,-2.5546,0.0,0.0,0.0,0.0,0.0,0.0,0.0,0.0,-0.7695,-0.7695,0.0,0.0,0.0,0.0,0.0,-0.6538,-0.6423,-0.6202,-0.579,-0.5781,-0.5599,-0.5197,-0.4702,-0.4425,-0.4448,-0.3864,-0.3696,0.0,0.0,0.0,0.0,0.0,-0.7817,-0.7648,-0.9456,-1.073,-1.1565,0.0,-1.1845,-1.2094,0.0,-1.0974,-1.1239,0.0,0.0,0.0,-1.1704,-1.1166,0.0,-1.123,0.0,0.0,0.0,0.0,-0.5322,-0.5322,-0.5322,0.0,0.0,0.0,0.0,0.0,0.0,0.0,0.0,0.0,-1.4098,-1.4107,-1.7521,-2.0488,-2.0508,-2.0537,-2.0566,-2.0566,-2.0566,-2.0566,-2.0566,-2.0566,-2.0566,-2.0566,-2.0566,-2.0566,-2.0566,-2.0566,-2.0566,-2.0566,-2.0537,-2.0537,-2.0566,-2.0566,-2.0566,-2.0566,-2.0566,-2.0566,-2.0566,-2.1025,-2.125,-2.126,-2.1699,-2.2129,-2.2529,-2.2519,-2.2744,-2.3135,-2.3135,-2.3135,-2.3135,-2.3135,-2.3135,-2.3135,-2.3135,-2.3887,-2.4872,-2.4872,-2.563,-2.6719,0.0,0.0,0.0,0.0,0.0,0.0,-0.7754,-0.7695,-0.7695,0.0,0.0,0.0,-0.7539,-0.7539,-0.7243,-0.6575,-0.627,-0.5814,-0.5114,-0.5037,-0.4944,-0.4838,-0.5032,-0.5218,-0.5397,-0.5354,-0.5347,0.0,0.0,0.0,0.0,0.0,0.0,0.0,-0.8419,-0.9393,-1.034,-1.1872,0.0,0.0,-1.3185,-1.2666,0.0,0.0,0.0,0.0,0.0,-1.2587,-1.2334,0.0,-1.0864,-0.8996,0.0,0.0,0.0,0.0,0.0,0.0,-0.5591,0.0,0.0,0.0,0.0,0.0,0.0,0.0,0.0,-1.2068,-1.5299,-1.8218,-1.8366,-1.962,-2.0566,-2.0566,-2.0566,-2.0566,-2.0566,-2.0566,-2.0566,-2.0566,-2.0566,-2.0566,-2.0566,-2.0566,-2.0566,0.0,-1.944,-1.9288,-2.0537,-2.0566,-2.0566,-2.0566,-2.0566,-2.0566,-2.0566,-2.1328,-2.1709,-2.1709,-2.2139,-2.2559,-2.2959,-2.2646,-2.2744,-2.3135,-2.3135,-2.3135,-2.3135,-2.3135,-2.3551,-2.4296,-2.4296,-2.5052,-2.613,-2.6942,-2.736,-2.7855,0.0,0.0,0.0,0.0,0.0,-0.8336,-0.7783,-0.7695,-0.7695,0.0,0.0,0.0,-0.7998,-0.7802,-0.7434,-0.6802,-0.6407,-0.5953,-0.5489,-0.5437,-0.5418,-0.5418,-0.5561,-0.5736,-0.5875,-0.5838,-0.5882,-0.6006,0.0,0.0,0.0,0.0,0.0,0.0,0.0,0.0,0.0,0.0,0.0,0.0,-1.3704,0.0,0.0,-1.4329,-1.444,0.0,0.0,0.0,-1.4851,-1.5017,-1.3141,0.0,0.0,0.0,0.0,0.0,0.0,0.0,0.0,0.0,0.0,0.0,0.0,0.0,-0.7328,-0.9866,-1.2206,0.0,-1.5548,-1.819,-1.771,-1.8571,-1.9372,-1.9372,-1.9372,-1.9639,-2.0488,-2.0566,-2.0566,-2.0566,-2.0566,-2.0566,-2.0566,-2.0566,-2.0566,-2.0566,-1.9707,-1.9564,-2.0537,-2.0566,-2.0566,-2.0566,-2.0566,-2.0566,-2.0566,-2.1445,-2.1797,-2.1621,-2.2402,-2.2812,-2.2881,-2.2803,-2.291,-2.3135,-2.3637,-2.38,-2.3887,-2.4307,-2.4638,-2.4872,-2.5294,-2.6213,-2.7197,-2.7844,-2.8426,-2.8937,0.0,0.0,-0.9542,-0.8816,-0.8679,-0.8477,-0.7871,-0.7773,-0.7783,0.0,-0.8164,-0.8411,-0.8411,-0.7988,-0.753,-0.7139,-0.6729,-0.6465,-0.6416,-0.6406,-0.6406,-0.6406,-0.6225,-0.6129,-0.6129,-0.5948,-0.5941,-0.6194,0.0,0.0,0.0,0.0,0.0,0.0,0.0,0.0,0.0,0.0,0.0,-1.4398,-1.334,-1.462,0.0,0.0,-1.5843,-1.6384,-1.7639,-1.7598,-1.7157,-1.8081,-1.6064,0.0,0.0,0.0,0.0,0.0,-0.7759,0.0,0.0,0.0,0.0,0.0,0.0,0.0,-0.7852,-1.0751,-1.3365,0.0,-1.6449,-1.8658,-1.7591,-1.7315,-1.7352,-1.7422,-1.738,-1.8059,-2.0013,-2.0478,-2.0508,-2.0284,-2.0478,-2.0566,-2.0566,-2.0566,-2.0566,-2.0566,-2.0566,-2.0566,-2.0566,-2.0566,-2.0566,-2.0566,-2.0566,-2.0586,-2.0635,-2.1578,-2.1794,-2.1469,-2.2735,-2.312,-2.2689,-2.3189,-2.3387,-2.3387,-2.4457,-2.4957,-2.5041,-2.6213,-2.6047,-2.5284,-2.6295,-2.7371,-2.8267,-2.8267,-2.8937,-2.9792,0.0,0.0,-0.8789,-0.8052,-0.7918,-0.798,-0.8224,-0.8252,-0.8369,-0.8711,-0.8535,-0.8411,-0.8411,-0.7988,-0.753,-0.7139,-0.7021,-0.6807,-0.6426,-0.6406,-0.6406,-0.6406,-0.6716,-0.6884,-0.6884,-0.7157,-0.7329,-0.7357,-0.7463,0.0,0.0,0.0,0.0,0.0,0.0,0.0,0.0,0.0,0.0,-1.2793,-1.3937,0.0,-1.5459,-1.6902,-1.6664,-1.5834,-1.7784,-1.8008,-1.7311,-1.6967,-1.6684,-1.5937,0.0,0.0,0.0,-0.9395,0.0,0.0,0.0,0.0,0.0,0.0,0.0,0.0,-0.7915,-0.8681,-0.9835,0.0,-1.2681,-1.4035,-1.5571,-1.5688,-1.5787,-1.6302,-1.6186,-1.6566,-1.8021,-1.9601,-2.0023,-1.8394,-1.962,-2.0566,-2.0566,-2.0566,-2.0566,-2.0566,-2.0566,-2.0566,-2.0566,-2.0566,-2.0566,-2.0566,-2.0566,-2.0742,-2.1103,-2.2028,-2.2697,-2.2897,-2.4416,-2.4612,-2.3753,-2.5185,-2.5305,-2.4542,-2.563,-2.6141,-2.6224,-2.736,-2.7683,-2.751,-2.7683,-2.845,-2.9456,-2.9456,-2.9624,-2.9792,0.0,0.0,-0.8526,-0.777,-0.7834,-0.8098,-0.8342,-0.8411,-0.8489,-0.8662,-0.8506,-0.8411,-0.8411,-0.8184,-0.7881,-0.7451,-0.7384,-0.7402,-0.7393,-0.7187,-0.7158,-0.7383,-0.7402,-0.752,-0.7734,-0.7705,-0.7802,-0.8057,-0.7802,0.0,0.0,0.0,0.0,0.0,0.0,0.0,0.0,0.0,-0.9932,-1.2041,-1.3769,0.0,-1.5918,-1.7432,-1.8058,-1.8151,-1.8459,-1.8643,-1.8475,-1.7552,-1.7273,0.0,0.0,-1.3357,-1.1558,0.0,-0.9529,-0.8755,0.0,0.0,0.0,-0.9039,0.0,0.0,0.0,-0.9495,-1.0571,-1.1731,-1.2724,-1.3578,-1.4138,-1.4192,-1.4216,-1.4572,-1.4499,-1.4735,-1.556,-1.7951,-1.9451,-1.9144,-2.0013,-2.0566,-2.0566,-2.0566,-2.0566,-2.0566,-2.0566,-2.0566,-2.0566,-2.0566,-2.0566,-2.0566,-2.0566,-2.0888,-2.1565,-2.2315,-2.3069,-2.385,-2.4713,-2.5087,-2.4946,-2.5665,-2.5898,-2.5714,-2.6789,-2.7279,-2.736,-2.8518,-2.8937,-2.8937,-2.8937,-2.9287,-2.9792,-2.9792,-2.9792,-2.9792,-0.8019,0.0,-0.8426,-0.768,-0.7976,-0.8332,-0.8405,-0.8411,-0.844,-0.8518,-0.8528,-0.8629,-0.895,-0.8691,-0.8481,-0.8408,-0.8419,-0.8447,-0.8518,-0.8436,-0.8447,-0.8518,-0.8164,-0.8135,-0.8496,-0.8076,-0.8027,-0.8411,-0.7939,-0.7695,0.0,0.0,0.0,0.0,0.0,0.0,0.0,0.0,0.0,-1.2639,0.0,-1.5651,-1.6602,-1.8095,-1.9445,-2.0491,-1.9768,-2.0018,-2.0346,-1.8894,-1.8105,-1.7716,-1.7268,-1.4721,0.0,0.0,0.0,0.0,0.0,0.0,0.0,0.0,0.0,-0.9569,0.0,0.0,0.0,0.0,0.0,0.0,0.0,0.0,0.0,0.0,0.0,0.0,0.0,-1.5966,0.0,-1.917,-1.9594,-1.9824,-1.9824,-2.0049,-2.0293,-2.0547,-2.0789,-2.0789,-2.0644,-2.0944,-2.1011,-2.0644,-2.0934,-2.1492,-2.2164,-2.2915,-2.3766,-2.4714,-2.5279,-2.5722,-2.6132,-2.6303,-2.6565,-2.6883,-2.7936,-2.8426,-2.8518,-2.9456,-2.9792,-2.9792,-2.9792,-2.9792,-2.9792,-2.9792,-2.9792,-2.9792,-0.7917,-0.8157,0.0,-0.7551,-0.7921,-0.8332,-0.8405,-0.8411,-0.8538,-0.8887,-0.8936,-0.9461,-1.0897,0.0,0.0,0.0,0.0,0.0,-0.9008,-1.0214,-1.0358,-0.8999,-0.8887,-0.8887,-0.8936,-0.8516,-0.8362,-0.8411,-0.7939,-0.7695,0.0,0.0,0.0,0.0,-0.8525,0.0,0.0,0.0,-1.3701,0.0,-1.8035,-1.7573,0.0,-1.9598,-2.0455,-1.9945,-2.2166,-2.297,-2.2765,0.0,-1.9839,-1.9344,0.0,-1.5391,-1.4231,-1.3491,0.0,0.0,0.0,0.0,0.0,0.0,-1.0025,0.0,0.0,0.0,-1.0085,-0.9908,0.0,0.0,0.0,0.0,0.0,0.0,0.0,0.0,-1.283,-1.3931,-1.4609,-1.4601,-1.6081,-1.7168,-1.7168,-1.8193,-1.9336,-2.0478,-2.1375,-2.1441,-2.0644,-2.2264,-2.2414,-2.0634,-2.2264,-2.2982,-2.2646,-2.451,-2.5695,-2.6264,-2.7712,-2.798,-2.7167,-2.8631,-2.8809,-2.8004,-2.9118,-2.9624,-2.9624,-2.9792,-2.9792,-2.9792,-2.9792,-2.9792,-2.9792,-2.9792,-2.9792,-2.9792,-0.7936,-0.8239,0.0,0.0,-0.7948,-0.8332,-0.8405,-0.8584,-0.8721,-0.8652,-0.8848,-0.9732,0.0,0.0,0.0,0.0,0.0,-1.3399,0.0,0.0,-1.1535,-1.076,-0.9607,-0.9004,-0.9004,-0.8594,-0.8411,-0.8411,-0.7939,-0.7695,0.0,0.0,0.0,0.0,-0.8594,0.0,-1.1848,0.0,-1.4516,0.0,0.0,0.0,0.0,-2.085,-2.1664,-2.1605,-2.2509,-2.311,-2.2978,0.0,-2.0148,0.0,0.0,0.0,0.0,0.0,0.0,0.0,0.0,0.0,0.0,0.0,0.0,0.0,-1.1993,0.0,-1.0912,0.0,0.0,0.0,0.0,0.0,0.0,0.0,-1.1291,0.0,0.0,0.0,-1.288,0.0,0.0,0.0,-1.7383,-1.7275,-1.7686,-1.8984,-1.9981,-2.0393,-1.9981,-2.219,-2.3158,-2.2339,-2.3073,-2.37,-2.4062,-2.5222,-2.6322,-2.7422,-2.8114,-2.855,-2.8762,-2.9085,-2.9222,-2.9106,-2.9611,-2.9792,-2.9792,-2.9792,-2.9792,-2.9792,-2.9792,-2.9792,-2.9792,-2.9792,-2.9792,-2.9792,-0.8691,0.0,0.0,0.0,-0.803,-0.8332,-0.8405,-0.9018,-0.944,0.0,0.0,0.0,-1.2796,-1.2207,0.0,0.0,-1.5554,-1.5555,0.0,0.0,-1.3228,-1.3288,-1.0863,-0.9688,-1.0051,-0.9308,-0.8763,-0.8411,-0.8057,-0.7959,0.0,0.0,0.0,0.0,0.0,-1.0281,-1.2605,0.0,0.0,-1.8325,-1.8904,-2.0094,-2.1649,-2.2194,-2.3029,-2.3851,-2.3608,-2.3898,-2.3791,-2.0216,-2.0967,0.0,-1.964,0.0,-1.8284,0.0,0.0,0.0,-1.5343,0.0,0.0,0.0,0.0,0.0,0.0,0.0,0.0,0.0,0.0,0.0,0.0,0.0,-1.1895,-1.1498,0.0,-1.1528,0.0,-1.1035,0.0,0.0,0.0,0.0,0.0,-1.6574,-1.6695,-1.7236,-1.8885,-1.9759,-1.9507,-2.2601,-2.4108,-2.3514,-2.4036,-2.4611,-2.5206,-2.6009,-2.7078,-2.8335,-2.8499,-2.9001,-2.9779,-2.9365,-2.9402,-2.9792,-2.9792,-2.9792,-2.9792,-2.9792,-2.9792,-2.9792,-2.9792,-2.9792,-2.9792,-2.9792,-2.9792,-2.9792,-1.0518,-0.9459,0.0,0.0,0.0,0.0,-0.8405,0.0,0.0,0.0,0.0,0.0,0.0,0.0,0.0,0.0,0.0,-1.6088,-1.6634,0.0,-1.603,-1.6527,-1.2889,-1.1439,0.0,-1.1113,-0.9619,-0.8411,-0.8401,-0.8564,-0.8955,0.0,0.0,0.0,0.0,-1.0763,-1.1939,-1.6227,-1.8872,-2.0523,-2.3968,-2.5737,-2.6058,0.0,-2.446,-2.6346,-2.6364,0.0,0.0,-2.3713,-2.3023,-2.2903,-2.1832,0.0,0.0,0.0,0.0,0.0,0.0,0.0,0.0,-1.4418,0.0,0.0,0.0,0.0,-1.1606,0.0,0.0,0.0,0.0,-1.1626,-1.1489,-1.1006,-1.1279,0.0,0.0,0.0,0.0,0.0,0.0,0.0,0.0,-1.598,-1.6926,-1.5576,-1.8808,-2.044,-1.9573,-2.3863,-2.5499,-2.3588,-2.5358,-2.619,-2.5791,-2.7249,-2.8287,-2.8913,-2.9478,-2.9754,-2.9792,-2.9779,-2.9779,-2.9792,-2.9792,-2.9792,-2.9792,-2.9792,-2.9792,-2.9792,-2.9792,-2.9792,-2.9792,-2.9792,-2.9792,-2.9792,0.0,0.0,0.0,0.0,0.0,0.0,0.0,-0.9467,0.0,0.0,0.0,0.0,0.0,-1.7337,-1.7307,0.0,0.0,-2.0098,-1.8774,-1.8601,0.0,0.0,0.0,-1.4268,0.0,-1.2733,-1.1521,-0.9675,-0.9355,-0.9424,-0.9834,0.0,0.0,0.0,0.0,-1.1397,0.0,0.0,0.0,0.0,0.0,-2.3614,-2.3885,0.0,-2.5827,-2.6533,-2.6533,-2.6533,-2.6133,-2.3863,-2.4087,-2.4999,-2.3179,-2.2282,-2.2363,-2.428,-2.2416,-1.9899,-2.0915,-2.1457,-2.1231,-1.936,0.0,0.0,0.0,0.0,0.0,0.0,0.0,0.0,0.0,-1.2479,-1.2295,-1.1855,-1.1904,-1.1699,0.0,0.0,0.0,0.0,0.0,0.0,0.0,0.0,-1.328,-1.3733,-1.5477,-1.6552,-1.6537,-2.1163,-2.3782,-2.3798,-2.5918,-2.7114,-2.7347,-2.8213,-2.875,-2.8938,-2.9515,-2.9792,-2.9792,-2.9792,-2.9792,-2.9792,-2.9792,-2.9792,-2.9792,-2.9792,-2.9792,-2.9792,-2.9792,-2.9792,-2.9792,-2.9792,-2.9792,-2.9792,-1.2065,0.0,0.0,0.0,0.0,0.0,0.0,0.0,0.0,0.0,-1.4766,0.0,-1.9474,0.0,-1.9198,0.0,-2.1018,-2.128,-2.0941,-1.9336,0.0,-2.0459,-1.7809,0.0,0.0,0.0,-1.3744,-1.2733,-1.0782,-1.0507,-1.1675,0.0,0.0,0.0,0.0,-1.1357,-1.3015,0.0,-1.9265,0.0,0.0,-2.313,0.0,0.0,-2.579,-2.6533,0.0,-2.6533,-2.6289,-2.4801,-2.5294,-2.6264,-2.4777,-2.4435,-2.4871,-2.6358,-2.4816,-2.2951,-2.4025,-2.4597,-2.4463,-2.2636,-2.1835,0.0,-1.9627,0.0,-1.587,0.0,0.0,0.0,0.0,-1.4256,-1.375,-1.2626,-1.2334,-1.1973,0.0,-1.1279,0.0,0.0,0.0,0.0,0.0,-1.2118,-1.2075,-1.1979,-1.3436,-1.4479,-1.4953,-1.9698,-2.287,-2.3874,-2.6126,-2.7645,-2.8398,-2.875,-2.9038,-2.9239,-2.9616,-2.9792,-2.9792,-2.9792,-2.9792,-2.9792,-2.9792,-2.9792,-2.9792,-2.9792,-2.9792,-2.9792,-2.9792,-2.9792,-2.9792,-2.9792,-2.9792,-2.9817,0.0,0.0,0.0,0.0,-1.0407,0.0,0.0,0.0,-1.4069,0.0,-1.7627,-1.7102,-1.9649,-1.8199,-1.7788,-1.9673,-1.9,-1.9736,-2.268,-1.8582,0.0,0.0,-1.8522,-1.7326,-2.0122,0.0,0.0,0.0,-1.2744,-1.185,-1.4318,0.0,0.0,0.0,-1.0908,0.0,-1.0686,-1.6542,-1.8844,-1.8881,-2.1728,-2.4275,-2.6083,-2.3876,-2.4501,-2.6533,-2.6533,-2.6533,-2.6533,-2.6533,-2.6533,-2.6533,-2.6533,-2.6841,-2.7281,-2.7281,-2.767,-2.7865,-2.6914,-2.7385,-2.7333,-2.4237,-2.4105,-2.4097,-2.1935,0.0,-2.129,0.0,0.0,0.0,0.0,-1.6786,-1.5616,-1.3412,-1.2606,-1.209,-1.1724,-1.1973,-1.208,0.0,0.0,0.0,0.0,-1.2887,-1.3051,-1.0508,-1.2689,-1.4381,0.0,-1.9477,-2.2625,-2.3911,-2.5933,-2.761,-2.895,-2.8813,-2.9088,-2.9792,-2.9792,-2.9792,-2.9792,-2.9792,-2.9792,-2.9792,-2.9792,-2.9792,-2.9792,-2.9792,-2.9792,-2.9792,-2.9792,-2.9792,-2.9792,-2.9792,-2.9817,-2.9905,-1.2743,-1.248,-1.2293,0.0,-1.2073,-1.2651,0.0,0.0,0.0,0.0,-1.8548,-1.9275,-2.0306,-2.1027,-2.0839,-1.9305,-2.0084,0.0,0.0,0.0,0.0,-2.299,-2.2283,-2.1628,-2.1086,-2.0711,0.0,-1.9041,0.0,0.0,-1.5185,0.0,0.0,0.0,0.0,0.0,-1.0686,-1.6542,-2.01,-2.1764,-2.0559,-2.1619,-2.3839,0.0,-2.4233,-2.6533,-2.6533,-2.6533,-2.6533,-2.6533,-2.6533,-2.6533,-2.6533,-2.6841,-2.7281,-2.7281,-2.767,-2.8024,-2.7791,-2.7865,-2.7923,-2.7028,-2.5725,-2.4534,-2.3977,-2.2504,-2.129,-2.129,-2.1186,-2.08,-1.9787,-1.8123,-1.658,-1.5606,-1.3608,-1.2305,-1.251,0.0,0.0,-1.252,0.0,0.0,-1.1508,-1.1644,-1.1506,-1.0781,-1.1095,-1.2401,-1.4877,-1.6198,-1.925,-2.4359,-2.3323,-2.4921,-2.9541,-2.7792,-2.7853,-2.9792,-2.9792,-2.9792,-2.9792,-2.9792,-2.9792,-2.9792,-2.9792,-2.9792,-2.9792,-2.9792,-2.9792,-2.9792,-2.9792,-2.9792,-2.9792,-2.9792,-3.0055,-3.0419,-1.3081,0.0,0.0,-1.251,0.0,0.0,-1.5257,-1.6074,0.0,-1.9617,-1.9903,0.0,-2.1562,-2.2524,-2.2446,-2.0851,-2.0722,0.0,-2.0729,0.0,0.0,-2.3414,-2.3319,-2.2862,-2.2174,-2.2432,0.0,-2.1176,0.0,0.0,-1.6372,0.0,0.0,0.0,0.0,-1.0686,0.0,-1.6317,-2.0333,-2.2674,-2.1331,-2.2332,0.0,-2.3177,-2.4255,-2.6533,-2.6533,-2.6533,-2.6533,-2.6533,-2.6684,-2.6816,-2.6816,-2.7369,-2.7996,-2.7996,-2.8398,-2.8837,-2.8837,-2.8837,-2.8837,-2.8837,-2.7902,-2.6917,-2.6917,-2.5908,-2.5042,-2.5042,-2.478,-2.4242,-2.2906,-2.0461,-1.7754,0.0,-1.353,0.0,0.0,0.0,0.0,0.0,-1.3948,0.0,-1.3041,-1.19,-1.1239,-1.1246,-1.1267,-1.1995,0.0,-1.6171,-1.8853,-2.1661,-2.2862,-2.4554,-2.6866,-2.6,-2.6553,-2.8335,-2.8586,-2.9076,-2.9792,-2.9792,-2.9792,-2.9792,-2.9792,-2.9792,-2.9792,-2.9792,-2.9792,-2.9792,-2.9792,-2.9942,-3.0156,-3.0156,-3.0357,-3.0645,0.0,0.0,0.0,0.0,0.0,0.0,0.0,-1.7754,0.0,-2.2312,0.0,-2.0925,-2.2583,-2.299,-2.3015,-2.2924,0.0,-2.0853,-2.2727,-1.9785,-1.9743,-2.3841,-2.312,-2.2862,-2.3403,-2.3477,-2.3526,0.0,-1.8565,-1.6692,-1.7594,0.0,0.0,0.0,0.0,0.0,0.0,-1.6097,-1.9696,-2.2517,-2.2929,-2.4288,-2.5852,-2.4214,-2.4777,-2.6533,-2.6533,-2.6533,-2.6533,-2.6609,-2.6879,-2.7293,-2.7369,-2.8097,-2.8925,-2.8925,-2.934,-2.9792,-2.9792,-2.9792,-2.9792,-2.9792,-2.9792,-2.9792,-2.9792,-2.9792,-2.9792,-2.9792,-2.939,-2.8413,-2.6308,-2.306,-1.9101,0.0,0.0,0.0,0.0,0.0,0.0,0.0,0.0,0.0,-1.4855,-1.3002,-1.1948,-1.2013,-1.2382,0.0,0.0,0.0,-1.9526,-1.8588,-2.303,-2.4866,-2.359,-2.4191,-2.5369,-2.6904,-2.708,-2.8097,-2.9792,-2.9792,-2.9792,-2.9792,-2.9792,-2.9792,-2.9792,-2.9792,-2.9792,-2.9804,-2.988,-3.0193,-3.062,-3.0696,-3.0758,-3.0884,0.0,0.0,0.0,0.0,0.0,-1.8296,-2.0469,-2.1443,-2.1728,-2.1119,-2.1888,-2.2154,-2.1144,-2.229,-2.2761,-2.1857,-2.1418,0.0,0.0,0.0,0.0,-2.3929,-2.468,-2.5015,-2.5159,-2.5657,-2.5907,-2.5875,-2.0941,-1.8586,-1.8746,-1.3997,0.0,0.0,0.0,0.0,-1.69,-1.5964,0.0,-2.2977,-2.3074,-2.3344,-2.3851,-2.5331,-2.6133,-2.6533,-2.6533,-2.6533,-2.6596,-2.6979,-2.7205,-2.7369,-2.7821,-2.8411,-2.8925,-2.8925,-2.934,-2.9792,-2.9792,-2.9792,-2.9792,-2.9792,-2.9792,-2.9792,-2.9792,-2.9792,-2.9792,-2.9792,-2.9716,-2.9402,-2.8475,-2.4401,-2.031,0.0,0.0,0.0,0.0,0.0,0.0,0.0,0.0,-1.7019,0.0,-1.405,0.0,0.0,0.0,0.0,0.0,0.0,-1.7201,-2.1403,-2.0522,-2.192,-2.585,-2.4153,-2.5259,-2.9189,-2.7444,-2.772,-2.9792,-2.9792,-2.9792,-2.9792,-2.9792,-2.9792,-2.9792,-2.9792,-2.9792,-2.9829,-3.0294,-3.0532,-3.067,-3.1097,-3.1537,-3.1938,0.0,0.0,0.0,0.0,0.0,0.0,0.0,-2.2498,-2.3267,-2.2491,-2.2807,-2.2805,-2.1975,-2.2907,-2.3376,-2.2836,-2.2523,-2.2585,-2.3175,-2.2924,-2.3364,-2.477,-2.5322,-2.5335,-2.4782,-2.5887,-2.59,-2.4732,-2.1207,-1.9196,-1.8585,-1.4461,0.0,0.0,0.0,-1.4609,0.0,0.0,0.0,-2.2858,-2.4316,-2.4839,-2.4992,-2.6083,-2.664,-2.6879,-2.6879,-2.7067,-2.7306,-2.7293,-2.7657,-2.8185,-2.8448,-2.8925,-2.9377,-2.9377,-2.9578,-2.9792,-2.9792,-2.9792,-2.9792,-2.9792,-2.9792,-2.9792,-2.9792,-2.9792,-2.9792,-2.9792,-2.9792,-2.9263,-2.7446,-2.5171,-2.2687,-2.0109,0.0,0.0,0.0,0.0,-1.7335,0.0,0.0,0.0,0.0,0.0,0.0,0.0,0.0,0.0,0.0,0.0,-1.8139,-2.0434,-2.111,-2.2482,-2.472,-2.4174,-2.5277,-2.8059,-2.7268,-2.7908,-2.9792,-2.9792,-2.9792,-2.9792,-2.9792,-2.9792,-2.9792,-2.9792,-2.9955,-3.0244,-3.0507,-3.0959,-3.1474,-3.1725,-3.2177,-3.2616,0.0,-1.6961,0.0,0.0,-1.9158,0.0,-2.1455,-2.2636,-2.3602,-2.3954,-2.3489,-2.3078,-2.3078,-2.354,-2.3715,-2.3489,-2.3376,-2.3439,-2.374,-2.369,-2.4079,-2.5034,-2.5523,-2.5385,-2.4544,-2.5799,-2.5598,-2.3841,-2.1606,-1.984,-1.8532,-1.5488,-1.3642,0.0,0.0,0.0,0.0,0.0,-2.2763,-2.3464,-2.5615,-2.6596,-2.6697,-2.6697,-2.6979,-2.7457,-2.7457,-2.7808,-2.821,-2.777,-2.821,-2.895,-2.9076,-2.9428,-2.9792,-2.9792,-2.9792,-2.9792,-2.9792,-2.9792,-2.9792,-2.9792,-2.9792,-2.9792,-2.9792,-2.9792,-2.9792,-2.9792,-2.9792,-2.9099,-2.6797,-2.6039,-2.4808,-2.2135,0.0,0.0,0.0,0.0,0.0,0.0,0.0,0.0,-1.9108,-1.8493,0.0,0.0,0.0,0.0,-1.5704,0.0,-1.9057,-1.8939,-2.1654,-2.3125,-2.3078,-2.4017,-2.5372,-2.7168,-2.713,-2.8059,-2.9792,-2.9792,-2.9792,-2.9792,-2.9792,-2.9854,-2.9967,-2.9967,-3.0294,-3.0796,-3.0909,-3.1474,-3.2227,-3.2353,-3.2692,-3.3006,0.0,0.0,0.0,0.0,0.0,-2.1518,-2.4054,-2.2887,-2.2272,-2.3803,-2.3489,-2.3078,-2.3078,-2.3128,-2.2811,-2.1807,-2.3062,-2.2887,-2.0426,-2.3464,-2.477,-2.3366,-2.5297,-2.6395,-2.6294,-2.6445,-2.6433,-2.6219,-2.3916,-2.17,-1.9634,-1.7852,-1.6695,0.0,0.0,0.0,-2.1813,-2.2226,-2.3836,-2.6163,-2.6377,-2.6753,-2.7205,-2.7205,-2.7544,-2.8034,-2.8034,-2.8386,-2.885,-2.8787,-2.885,-2.9026,-2.9541,-2.9741,-2.9792,-2.9792,-2.9792,-2.9792,-2.9792,-2.9792,-2.9792,-2.9792,-2.9792,-2.9792,-2.9792,-2.9792,-2.9792,-2.9792,-2.9792,-2.9729,-2.9439,-2.7748,-2.5657,-2.3306,-2.0628,0.0,0.0,0.0,-1.8867,-1.8921,0.0,0.0,-1.8995,-1.6748,0.0,0.0,-1.6111,0.0,0.0,-1.7468,-1.748,-1.8946,-1.9759,-2.1142,-2.3053,-2.3238,-2.5372,-2.9465,-2.7482,-2.7682,-2.9792,-2.9792,-2.9792,-2.9792,-2.9792,-3.008,-3.0545,-3.0545,-3.0846,-3.1373,-3.1863,-3.2127,-3.2277,-3.2805,-3.3031,-3.3068,0.0,0.0,0.0,0.0,0.0,0.0,0.0,-2.3351,-2.3351,-2.4356,-2.3703,-2.3078,-2.3078,-2.3679,-2.3966,-2.3527,-2.4707,-2.4996,-2.3879,-2.5247,-2.5812,-2.5159,-2.5988,-2.6533,-2.6533,-2.6533,-2.6533,0.0,-2.3565,-2.1518,-2.0288,-1.8643,-1.8296,-1.9143,-2.0791,-2.2191,-2.3455,-2.4437,-2.5503,-2.6559,-2.6816,-2.708,-2.7318,-2.7657,-2.8122,-2.8599,-2.8599,-2.8963,-2.9453,-2.9453,-2.9453,-2.949,-2.9716,-2.9792,-2.9792,-2.9792,-2.9792,-2.9792,-2.9792,-2.9792,-2.9792,-2.9792,-2.9792,-2.9792,-2.9792,-2.9792,-2.9792,-2.9792,-2.9792,-2.9792,-2.9792,-2.9063,-2.7733,-2.5485,-2.419,-2.2772,0.0,0.0,0.0,-2.2815,0.0,-2.1154,-2.2811,-1.897,-1.6873,0.0,0.0,0.0,0.0,-1.7953,-1.9409,-2.143,-2.1694,-2.3514,-2.7092,-2.5799,-2.6703,-2.9779,-2.8888,-2.8925,-2.9792,-2.9792,-2.998,-3.0281,-3.0281,-3.0583,-3.1085,-3.1085,-3.1399,-3.1901,-3.2127,-3.2428,-3.2754,-3.2993,-3.3081,-3.3131,-2.3276,0.0,-2.1945,0.0,-2.3088,-2.369,-2.3153,-2.3766,-2.4205,-2.4092,-2.3816,-2.3565,-2.3414,-2.4104,-2.4506,-2.4343,-2.5485,-2.5862,-2.5046,-2.598,-2.6307,-2.5762,-2.6269,0.0,-2.6533,-2.6533,-2.6533,-2.6533,-2.4104,-2.241,-2.1368,-2.02,-2.0451,-2.1958,-2.3452,-2.4343,-2.4795,-2.5963,-2.6533,-2.6584,-2.7055,-2.7381,-2.7582,-2.8134,-2.8699,-2.9176,-2.9176,-2.9453,-2.9792,-2.9792,-2.9792,-2.9792,-2.9792,-2.9792,-2.9792,-2.9792,-2.9792,-2.9792,-2.9792,-2.9792,-2.9792,-2.9792,-2.9792,-2.9792,-2.9792,-2.9792,-2.9792,-2.9792,-2.9792,-2.9792,-2.9792,-2.9792,-2.9063,-2.6829,-2.6533,-2.5686,0.0,-2.3078,0.0,-2.4506,-2.2347,-2.1782,-2.4381,-2.0376,0.0,0.0,0.0,0.0,0.0,-1.8041,-1.9786,-2.18,-2.14,-2.3326,-2.7795,-2.6276,-2.6942,-2.9792,-2.9955,-3.003,-3.0043,-3.0193,-3.0482,-3.0846,-3.0846,-3.1148,-3.1637,-3.1637,-3.1964,-3.2466,-3.2466,-3.2717,-3.3093,-3.3257,-3.3319,-3.3395,-2.3879,-2.4406,-2.4933,-2.5448,-2.5548,-2.5021,-2.3315,-2.4092,-2.4217,-2.256,-2.3778,-2.4594,-2.4054,-2.4004,-2.3778,-2.314,-2.4657,-2.4456,-2.1732,-2.4632,-2.5737,0.0,0.0,-2.6533,-2.6533,-2.6533,-2.6533,-2.6533,0.0,-2.5272,-2.304,-2.3027,-2.3616,-2.482,-2.5925,-2.6496,-2.6496,-2.6521,-2.6533,-2.6584,-2.7055,-2.7607,-2.816,-2.8712,-2.9277,-2.9779,-2.9779,-2.9779,-2.9792,-2.9792,-2.9792,-2.9792,-2.9792,-2.9792,-2.9792,-2.9792,-2.9792,-2.9792,-2.9792,-2.9792,-2.9792,-2.9792,-2.9792,-2.9792,-2.9792,-2.9792,-2.9792,-2.9792,-2.9792,-2.9792,-2.9792,-2.9792,-2.9063,-2.6829,-2.6533,-2.5686,-2.3452,-2.3078,0.0,-2.241,-2.0401,-1.9872,-2.2133,-1.9823,0.0,0.0,0.0,0.0,0.0,-1.7405,-1.7325,-1.8983,-1.7463,-1.8682,-2.3115,-2.3128,-2.5398,-2.9804,-3.0344,-3.0608,-3.062,-3.1135,-3.1373,-3.1386,-3.1386,-3.1687,-3.2202,-3.2202,-3.2541,-3.3068,-3.3068,-3.3068,-3.3144,-3.3684,-3.3884,-3.3972,-2.2322,-2.3653,-2.4632,-2.4029,-2.4845,-2.5423,-2.4895,-2.482,-2.4757,-2.4569,-2.4707,-2.4895,-2.5071,-2.5084,-2.5008,0.0,-2.4268,-2.4192,0.0,-2.4443,-2.4632,-2.5636,-2.5096,-2.4782,-2.4782,-2.4782,-2.4782,-2.4782,-2.5159,-2.4983,-2.428,-2.3904,-2.4519,-2.595,-2.637,-2.6533,-2.6533,-2.6533,-2.6747,-2.7067,-2.762,-2.8596,-2.9731,-3.0264,-3.0948,-3.1683,-3.1683,-3.1328,-3.0758,-3.0758,-3.0355,-2.9934,-3.0558,-3.0355,-2.9792,-2.9792,-2.9792,-2.9792,-2.9792,-2.9792,-2.9792,-2.9792,-2.9792,-2.9792,-2.9792,-2.9792,-2.9792,-2.9792,-2.9792,-2.9792,-2.9792,-2.9792,-2.9063,-2.6829,-2.7733,-2.7959,-2.5711,-2.5398,-2.5335,-2.5159,-2.2849,-2.2284,-2.4883,-2.2297,0.0,0.0,0.0,0.0,0.0,-2.0248,-2.197,-2.4029,-2.3577,-2.4707,-2.7645,-2.6163,-2.7067,-3.0357,-3.0532,-3.0809,-3.1148,-3.1311,-3.1599,-3.1951,-3.1951,-3.2277,-3.2805,-3.2805,-3.2918,-3.3081,-3.3081,-3.3307,-3.3658,-3.3834,-3.4135,-3.4537,-2.2559,-2.3748,-2.4607,-2.3829,-2.4958,-2.5711,-2.5096,-2.5247,-2.5335,-2.5034,-2.5247,-2.5561,-2.5887,-2.5925,-2.5925,-2.5925,-2.4983,-2.4971,-2.6433,-2.5159,-2.5008,-2.6471,-2.5473,-2.4921,-2.4921,-2.4921,-2.4921,-2.4921,-2.5272,-2.5536,-2.5737,-2.5184,-2.5586,-2.6753,-2.6622,-2.6533,-2.6521,-2.685,-2.71,-2.7402,-2.8621,-2.9607,-3.05,-3.1395,-3.2105,-3.2593,-3.2593,-3.2249,-3.1742,-3.1742,-3.1328,-3.0908,-3.1536,-3.1328,-3.0771,-3.0419,-3.0355,-3.0355,-3.0355,-3.0355,-3.0355,-3.0355,-3.0075,-2.9792,-2.9792,-2.9792,-2.9792,-2.9792,-2.9792,-2.9792,-2.9792,-2.9792,-2.934,-2.7934,-2.8888,-2.9315,-2.7908,-2.6992,-2.6533,-2.6533,-2.418,-2.364,-2.6282,-2.4582,-2.364,0.0,0.0,0.0,-2.1769,-2.1857,-2.2899,-2.5134,-2.5209,-2.6289,-2.8524,-2.7155,-2.8062,-3.1214,-3.1624,-3.2111,-3.2636,-3.2263,-3.2215,-3.2541,-3.2541,-3.2742,-3.3081,-3.3081,-3.3081,-3.3106,-3.3307,-3.3596,-3.3947,-3.4361,-3.4738,-3.5115,-2.3953,-2.4484,-2.4795,-2.4784,-2.574,-2.5937,-2.4406,-2.5473,-2.5912,-2.4368,-2.5511,-2.6521,-2.6589,-2.6521,-2.6521,-2.6658,-2.6451,-2.6302,-2.6521,-2.6382,-2.6425,-2.6589,-2.6476,-2.6413,-2.6413,-2.6357,-2.6408,-2.6589,-2.6589,-2.6867,-2.7468,-2.6892,-2.7012,-2.7518,-2.7069,-2.684,-2.6828,-2.7535,-2.7738,-2.7774,-2.9902,-3.0703,-3.0828,-3.2187,-3.2749,-3.282,-3.282,-3.2749,-3.2678,-3.2678,-3.2664,-3.2593,-3.2664,-3.2664,-3.2464,-3.1536,-3.1254,-3.118,-3.118,-3.118,-3.1106,-3.118,-3.0558,-2.9934,-3.0011,-2.9856,-2.9792,-2.9856,-2.9869,-2.9792,-2.9792,-2.9792,-2.9792,-2.9792,-2.9792,-2.9741,-2.9578,-2.777,-2.6471,-2.6251,-2.4531,-2.418,-2.6319,-2.6672,-2.6697,-2.6533,0.0,0.0,0.0,-2.2627,-2.1335,-2.3527,-2.3602,-2.4582,-2.6791,-2.6854,-2.8769,-3.2439,-3.3449,-3.419,-3.4664,-3.3628,-3.3154,-3.3081,-3.3081,-3.3081,-3.3081,-3.3119,-3.3131,-3.3194,-3.3746,-3.3985,-3.4135,-3.5165,-3.5567,-3.5667,-2.1889,-2.3392,-2.4735,-2.4455,-2.5601,-2.6395,-2.6005,-2.6282,-2.6382,-2.5925,-2.6282,-2.6714,-2.7351,-2.6837,-2.704,-2.8298,-2.5625,-2.4644,-2.642,-2.5459,-2.5628,-2.7339,-2.6203,-2.5484,-2.5484,-2.4925,-2.5497,-2.7417,-2.7417,-2.8093,-2.9307,-2.8516,-2.889,-3.0106,-2.997,-2.9902,-2.9916,-2.9318,-2.972,-3.0744,-3.0569,-3.1525,-3.3196,-3.3545,-3.4124,-3.4839,-3.4839,-3.4327,-3.3671,-3.3671,-3.3171,-3.2749,-3.3449,-3.3171,-3.2522,-3.2321,-3.1742,-3.118,-3.118,-3.0696,-3.0279,-3.1044,-3.1044,-3.1044,-3.1756,-3.0846,-2.9998,-3.0696,-3.0279,-2.9792,-2.9792,-2.9792,-2.9792,-2.9792,-2.9792,-2.9202,-2.7482,-2.6861,-2.5824,-2.4117,-2.4958,-2.5887,-2.6483,-2.8009,-2.8298,-2.6659,0.0,-2.6209,-2.7511,-2.6566,-2.666,-2.8147,-2.821,-2.8804,-3.0085,-3.0603,-3.2142,-3.4621,-3.5333,-3.5291,-3.4664,-3.4428,-3.3869,-3.3081,-3.3081,-3.3081,-3.3106,-3.3533,-3.3709,-3.3759,-3.4311,-3.4788,-3.519,-3.5454,-3.5805,-3.6194,-2.3133,-2.4019,-2.4981,-2.509,-2.5972,-2.6745,-2.6989,-2.7417,-2.7351,-2.6589,-2.685,-2.7229,-2.767,-2.7284,-2.7604,-2.8876,-2.6688,-2.5896,-2.7525,-2.6549,-2.664,-2.8244,-2.7067,-2.6547,-2.6904,-2.6498,-2.6977,-2.8298,-2.8298,-2.8719,-2.9564,-2.9383,-2.975,-3.0543,-3.0874,-3.0999,-3.0999,-3.0798,-3.1157,-3.1847,-3.2136,-3.2993,-3.4027,-3.4543,-3.5052,-3.5504,-3.5504,-3.5133,-3.4691,-3.4691,-3.4341,-3.4041,-3.4543,-3.4341,-3.3905,-3.3905,-3.3255,-3.2464,-3.2464,-3.2119,-3.1769,-3.1829,-3.1815,-3.196,-3.2464,-3.1829,-3.1193,-3.1742,-3.1402,-3.1057,-3.1057,-3.1057,-3.1057,-3.1057,-2.99,-2.8511,-2.7343,-2.5892,-2.487,-2.4682,-2.5724,-2.705,-2.8537,-2.9761,-2.998,-2.873,-2.7687,-2.7806,-2.9323,-2.8046,-2.8404,-3.0992,-3.1057,-3.1461,-3.2293,-3.3696,-3.5008,-3.6132,-3.6648,-3.6383,-3.5359,-3.4897,-3.4108,-3.3081,-3.3081,-3.3219,-3.3483,-3.3771,-3.4048,-3.4324,-3.4889,-3.5278,-3.5567,-3.583,-3.6107,-3.6358,-2.5702,-2.5643,-2.5801,-2.6478,-2.693,-2.7349,-2.7854,-2.8492,-2.8492,-2.704,-2.7484,-2.792,-2.8051,-2.7986,-2.8298,-2.9317,-2.862,-2.8363,-2.8939,-2.8427,-2.8427,-2.9192,-2.8492,-2.8427,-2.9192,-2.9275,-2.9372,-2.9456,-2.9456,-2.9575,-2.9862,-3.0266,-3.0625,-3.0867,-3.1467,-3.1692,-3.1692,-3.2233,-3.2402,-3.2466,-3.3856,-3.4324,-3.4312,-3.5198,-3.5504,-3.5504,-3.5504,-3.5504,-3.5504,-3.5504,-3.5504,-3.5504,-3.5504,-3.5504,-3.5504,-3.5504,-3.4905,-3.4177,-3.4027,-3.4027,-3.3808,-3.3031,-3.282,-3.289,-3.3031,-3.282,-3.2664,-3.282,-3.2678,-3.2593,-3.2593,-3.2593,-3.2412,-3.1969,-2.9673,-2.7801,-2.7455,-2.534,-2.457,-2.6675,-2.7212,-2.8427,-3.0982,-3.118,-3.1106,-3.097,-2.9359,-2.9247,-3.1074,-2.8911,-2.9257,-3.2889,-3.2674,-3.3076,-3.406,-3.6185,-3.7244,-3.736,-3.7808,-3.7496,-3.6448,-3.5359,-3.4345,-3.3326,-3.3255,-3.347,-3.3909,-3.4073,-3.4424,-3.4901,-3.5454,-3.5667,-3.573,-3.6194,-3.6358,-3.6358,-2.7193,-2.7479,-2.7977,-2.8675,-2.8711,-2.8702,-2.8798,-2.8939,-2.8939,-2.862,-2.8748,-2.9066,-2.9827,-2.9254,-2.9442,-3.097,-3.0389,-2.9628,-2.9066,-2.9566,-2.995,-3.0072,-2.995,-2.995,-3.0072,-3.0573,-3.1166,-3.1725,-3.1725,-3.2396,-3.3602,-3.3021,-3.3369,-3.4623,-3.4727,-3.4771,-3.4756,-3.4037,-3.4161,-3.4919,-3.4316,-3.4522,-3.5279,-3.5439,-3.5504,-3.5504,-3.5504,-3.5504,-3.5504,-3.5504,-3.5504,-3.5504,-3.5504,-3.5504,-3.5504,-3.5504,-3.5359,-3.5067,-3.4245,-3.4027,-3.3959,-3.3808,-3.3808,-3.4027,-3.4854,-3.3754,-3.282,-3.3602,-3.3171,-3.2593,-3.2593,-3.2593,-3.1721,-2.904,-2.8226,-2.7243,-2.5394,-2.6303,-2.7573,-2.8707,-3.0528,-3.1554,-3.1214,-3.118,-3.0908,-3.0075,-3.0433,-3.0871,-3.1154,-3.2248,-3.3377,-3.4566,-3.3101,-3.3649,-3.6429,-3.7605,-3.8463,-3.9028,-3.9133,-3.862,-3.751,-3.6448,-3.5426,-3.4454,-3.3979,-3.3822,-3.3972,-3.4901,-3.5341,-3.5466,-3.6019,-3.6232,-3.6245,-3.6332,-3.6358,-3.6358,-2.757,-2.7683,-2.8167,-2.9174,-2.9297,-2.9355,-2.9633,-3.0072,-3.0011,-2.9129,-2.938,-2.9827,-3.0269,-2.995,-3.0208,-3.1409,-3.1161,-3.0777,-3.0389,-3.0329,-3.0524,-3.0896,-3.0524,-3.0684,-3.147,-3.1764,-3.222,-3.2882,-3.2882,-3.3247,-3.3948,-3.3898,-3.4288,-3.4966,-3.534,-3.5504,-3.5439,-3.4986,-3.5067,-3.5439,-3.4986,-3.5067,-3.5504,-3.5504,-3.5504,-3.5504,-3.5504,-3.5504,-3.5504,-3.5504,-3.5504,-3.5504,-3.5504,-3.5504,-3.5504,-3.5504,-3.5504,-3.5424,-3.492,-3.4839,-3.4839,-3.4839,-3.4839,-3.492,-3.5359,-3.4787,-3.4259,-3.4706,-3.4476,-3.4192,-3.4192,-3.4192,-3.3681,-3.2239,-3.0567,-2.9021,-2.8003,-2.8346,-2.8812,-2.9254,-3.1265,-3.2593,-3.2678,-3.2749,-3.2536,-3.2119,-3.2464,-3.2749,-3.2749,-3.341,-3.4382,-3.5795,-3.564,-3.6273,-3.7708,-3.8522,-3.9095,-3.9424,-3.9424,-3.8855,-3.7753,-3.6682,-3.5845,-3.5055,-3.3964,-3.396,-3.4801,-3.5014,-3.5454,-3.6006,-3.6257,-3.6358,-3.6358,-3.6358,-3.6358,-3.6358,-2.7856,-2.7966,-2.8531,-2.9478,-2.9769,-3.0046,-3.0511,-3.1087,-3.1029,-2.9766,-3.0147,-3.0584,-3.0584,-3.0584,-3.0837,-3.1467,-3.1482,-3.1482,-3.1482,-3.0896,-3.0837,-3.1467,-3.0896,-3.1263,-3.2721,-3.2736,-3.314,-3.3963,-3.3963,-3.3963,-3.3978,-3.4487,-3.4711,-3.4741,-3.5265,-3.5504,-3.5504,-3.5504,-3.5504,-3.5504,-3.5504,-3.5504,-3.5504,-3.5504,-3.5504,-3.5504,-3.5504,-3.5504,-3.5504,-3.5504,-3.5504,-3.5504,-3.5504,-3.5504,-3.5504,-3.5504,-3.5504,-3.5504,-3.5504,-3.5504,-3.5504,-3.5504,-3.5504,-3.5504,-3.5504,-3.5504,-3.5504,-3.5504,-3.5504,-3.5504,-3.5504,-3.5504,-3.523,-3.4539,-3.2296,-3.0719,-3.0719,-3.0104,-2.9902,-3.0622,-3.2235,-3.3463,-3.3959,-3.4027,-3.3808,-3.338,-3.3739,-3.3879,-3.3606,-3.3988,-3.5107,-3.6911,-3.7883,-3.8467,-3.8631,-3.9155,-3.9424,-3.9424,-3.9424,-3.8855,-3.7753,-3.6836,-3.6049,-3.5437,-3.4206,-3.4374,-3.5516,-3.5228,-3.5604,-3.6358,-3.6358,-3.6358,-3.6358,-3.6358,-3.6358,-3.6358,-2.854,-2.9495,-3.0332,-3.0421,-3.0902,-3.1349,-3.1394,-3.1467,-3.1467,-3.1351,-3.1351,-3.1409,-3.1409,-3.1409,-3.1409,-3.1482,-3.1482,-3.1482,-3.1482,-3.1409,-3.1409,-3.1482,-3.1409,-3.2064,-3.3395,-3.3425,-3.4053,-3.5355,-3.5355,-3.5355,-3.5355,-3.5415,-3.5429,-3.5429,-3.5489,-3.5504,-3.5504,-3.5504,-3.5504,-3.5504,-3.5504,-3.5504,-3.5504,-3.5504,-3.5504,-3.5504,-3.5504,-3.5504,-3.5504,-3.5504,-3.5504,-3.5504,-3.5504,-3.5504,-3.5504,-3.5504,-3.5504,-3.5504,-3.5504,-3.5504,-3.5504,-3.5504,-3.5504,-3.5504,-3.5504,-3.5504,-3.5504,-3.5504,-3.5504,-3.5504,-3.5504,-3.5504,-3.4539,-3.1542,-3.0836,-3.0719,-3.0719,-3.0659,-3.1687,-3.4713,-3.5175,-3.492,-3.4095,-3.4027,-3.331,-3.1536,-3.3031,-3.3494,-3.2426,-3.4837,-3.688,-3.8212,-3.8347,-3.8691,-3.9334,-3.9394,-3.9424,-3.9424,-3.9424,-3.8855,-3.7782,-3.7312,-3.6456,-3.5502,-3.5353,-3.5429,-3.5579,-3.6044,-3.6282,-3.6358,-3.6358,-3.6358,-3.6358,-3.6358,-3.6358,-3.6358,-2.8607,-2.9325,-3.0058,-3.0432,-3.1076,-3.1482,-3.1482,-3.1482,-3.1482,-3.1482,-3.1482,-3.1482,-3.1482,-3.1482,-3.1482,-3.1482,-3.1482,-3.1482,-3.1482,-3.1482,-3.1719,-3.2123,-3.2138,-3.2766,-3.4068,-3.4098,-3.4562,-3.5504,-3.5504,-3.5504,-3.5504,-3.5504,-3.5504,-3.5504,-3.5504,-3.5504,-3.5504,-3.5504,-3.5504,-3.5504,-3.5504,-3.5504,-3.5504,-3.5504,-3.5504,-3.5504,-3.5504,-3.5504,-3.5504,-3.5504,-3.5504,-3.5504,-3.5504,-3.5504,-3.5504,-3.5504,-3.5504,-3.5504,-3.5504,-3.5504,-3.5504,-3.5504,-3.5504,-3.5504,-3.5504,-3.5504,-3.5504,-3.5504,-3.5504,-3.5504,-3.5504,-3.5504,-3.5096,-3.3877,-3.3698,-3.3698,-3.3698,-3.3698,-3.4148,-3.5385,-3.5504,-3.5359,-3.4986,-3.492,-3.48,-3.4534,-3.5142,-3.5488,-3.5453,-3.6851,-3.8078,-3.899,-3.9035,-3.9155,-3.9424,-3.9424,-3.9424,-3.9424,-3.9424,-3.9003,-3.8342,-3.7456,-3.6904,-3.6442,-3.5416,-3.5416,-3.6044,-3.5906,-3.6056,-3.6358,-3.6358,-3.6358,-3.6358,-3.6358,-3.6358,-3.6358,-2.8562,-2.8966,-2.9475,-3.0103,-3.0761,-3.1285,-3.1437,-3.1482,-3.1482,-3.1482,-3.1482,-3.1482,-3.1482,-3.1482,-3.1482,-3.1482,-3.1482,-3.1482,-3.1482,-3.1482,-3.1734,-3.2183,-3.2407,-3.3036,-3.4143,-3.4367,-3.4816,-3.5504,-3.5504,-3.5504,-3.5504,-3.5504,-3.5504,-3.5504,-3.5504,-3.5504,-3.5504,-3.5504,-3.5504,-3.5504,-3.5504,-3.5504,-3.5504,-3.5504,-3.5504,-3.5504,-3.5504,-3.5504,-3.5504,-3.5504,-3.5504,-3.5504,-3.5504,-3.5504,-3.5504,-3.5504,-3.5504,-3.5504,-3.5504,-3.5504,-3.5504,-3.5504,-3.5504,-3.5504,-3.5504,-3.5504,-3.5504,-3.5504,-3.5504,-3.5504,-3.5504,-3.5504,-3.5504,-3.5504,-3.5504,-3.5504,-3.5504,-3.5504,-3.5504,-3.5504,-3.5504,-3.5504,-3.5504,-3.5504,-3.5538,-3.5688,-3.6209,-3.6851,-3.7674,-3.8347,-3.8931,-3.9409,-3.9424,-3.9424,-3.9424,-3.9424,-3.9424,-3.9424,-3.9031,-3.8643,-3.8139,-3.7262,-3.6743,-3.656,-3.5669,-3.5667,-3.6332,-3.5956,-3.6031,-3.6358,-3.6358,-3.6358,-3.6358,-3.6358,-3.6358,-3.6358,-2.8472,-2.8607,-2.8816,-2.9475,-3.0103,-3.0746,-3.1377,-3.1482,-3.1482,-3.1482,-3.1482,-3.1482,-3.1482,-3.1482,-3.1482,-3.1482,-3.1482,-3.1482,-3.1482,-3.1482,-3.1482,-3.1482,-3.2168,-3.2826,-3.3499,-3.4143,-3.4816,-3.5504,-3.5504,-3.5504,-3.5504,-3.5504,-3.5504,-3.5504,-3.5504,-3.5504,-3.5504,-3.5504,-3.5504,-3.5504,-3.5504,-3.5504,-3.5504,-3.5504,-3.5504,-3.5504,-3.5504,-3.5504,-3.5504,-3.5504,-3.5504,-3.5504,-3.5504,-3.5504,-3.5504,-3.5504,-3.5504,-3.5504,-3.5504,-3.5504,-3.5504,-3.5504,-3.5504,-3.5504,-3.5504,-3.5504,-3.5504,-3.5504,-3.5504,-3.5504,-3.5504,-3.5504,-3.5504,-3.5504,-3.5504,-3.5504,-3.5504,-3.5504,-3.5504,-3.5504,-3.5504,-3.5504,-3.5504,-3.5504,-3.5067,-3.4095,-3.5592,-3.706,-3.8332,-3.905,-3.9424,-3.9424,-3.9424,-3.9424,-3.9424,-3.9424,-3.9424,-3.9424,-3.8308,-3.753,-3.7083,-3.6543,-3.603,-3.5567,-3.6119,-3.6358,-3.6358,-3.6358,-3.6358,-3.6358,-3.6358,-3.6358,-3.6358,-3.6358,-3.6358,-3.6358,-2.925,-2.9639,-2.9998,-3.0193,-3.0776,-3.13,-3.1437,-3.1482,-3.1482,-3.1482,-3.1482,-3.1482,-3.1482,-3.1482,-3.1482,-3.1482,-3.1482,-3.1482,-3.1482,-3.1958,-3.2213,-3.2213,-3.2856,-3.3739,-3.4876,-3.51,-3.5295,-3.5504,-3.5504,-3.5504,-3.5504,-3.5504,-3.5504,-3.5504,-3.5504,-3.5504,-3.5504,-3.5504,-3.5504,-3.5504,-3.5504,-3.5504,-3.5504,-3.5504,-3.5504,-3.5504,-3.5504,-3.5504,-3.5504,-3.5504,-3.5504,-3.5504,-3.5504,-3.5504,-3.5504,-3.5504,-3.5504,-3.5504,-3.5504,-3.5504,-3.5504,-3.5504,-3.5504,-3.5504,-3.5504,-3.5504,-3.5504,-3.5504,-3.5504,-3.5504,-3.5504,-3.5504,-3.5504,-3.5504,-3.5504,-3.5504,-3.5504,-3.5504,-3.5504,-3.5504,-3.5504,-3.5504,-3.5504,-3.5504,-3.5553,-3.5703,-3.7058,-3.8197,-3.9065,-3.9305,-3.9424,-3.9424,-3.9424,-3.9424,-3.9424,-3.8634,-3.8634,-3.9352,-3.7572,-3.686,-3.7083,-3.6543,-3.603,-3.5567,-3.6119,-3.6358,-3.6358,-3.6358,-3.6358,-3.6358,-3.6358,-3.6358,-3.6358,-3.6358,-3.6358,-3.6358,-2.9535,-2.9879,-3.0223,-3.0462,-3.0851,-3.121,-3.1437,-3.1482,-3.1482,-3.1482,-3.1482,-3.1482,-3.1482,-3.1482,-3.1482,-3.1482,-3.1482,-3.1586,-3.1898,-3.2048,-3.2482,-3.326,-3.3425,-3.3993,-3.507,-3.537,-3.5504,-3.5504,-3.5504,-3.5504,-3.5504,-3.5504,-3.5504,-3.5504,-3.5504,-3.5504,-3.5504,-3.5504,-3.5504,-3.5504,-3.5504,-3.5504,-3.5504,-3.5504,-3.5504,-3.5504,-3.5504,-3.5504,-3.5504,-3.5504,-3.5504,-3.5504,-3.5504,-3.5504,-3.5504,-3.5504,-3.5504,-3.5504,-3.5504,-3.5504,-3.5504,-3.5504,-3.5504,-3.5504,-3.5504,-3.5504,-3.5504,-3.5504,-3.5504,-3.5504,-3.5504,-3.5504,-3.5504,-3.5504,-3.5504,-3.5504,-3.5504,-3.5504,-3.5504,-3.5504,-3.5504,-3.5504,-3.5504,-3.5744,-3.6267,-3.7165,-3.7943,-3.8691,-3.9379,-3.9424,-3.9424,-3.9424,-3.9424,-3.9177,-3.8782,-3.7738,-3.7738,-3.8708,-3.6618,-3.6035,-3.678,-3.5987,-3.5737,-3.5893,-3.6219,-3.6358,-3.6358,-3.6358,-3.6358,-3.6358,-3.6358,-3.6358,-3.6358,-3.6358,-3.6358,-3.6358,-2.9624,-2.9759,-2.9939,-3.0492,-3.0597,-3.0806,-3.1377,-3.1482,-3.1482,-3.1482,-3.1482,-3.1482,-3.1482,-3.1482,-3.1482,-3.1482,-3.1482,-3.1735,-3.2392,-3.1928,-3.2422,-3.4218,-3.3844,-3.3858,-3.4472,-3.516,-3.5504,-3.5504,-3.5504,-3.5504,-3.5504,-3.5504,-3.5504,-3.5504,-3.5504,-3.5504,-3.5504,-3.5504,-3.5504,-3.5504,-3.5504,-3.5504,-3.5504,-3.5504,-3.5504,-3.5504,-3.5504,-3.5504,-3.5504,-3.5504,-3.5504,-3.5504,-3.5504,-3.5504,-3.5504,-3.5504,-3.5504,-3.5504,-3.5504,-3.5504,-3.5504,-3.5504,-3.5504,-3.5504,-3.5504,-3.5504,-3.5504,-3.5504,-3.5504,-3.5504,-3.5504,-3.5504,-3.5504,-3.5504,-3.5504,-3.5504,-3.5504,-3.5504,-3.5504,-3.5504,-3.5549,-3.5594,-3.5594,-3.6193,-3.7075,-3.8302,-3.8392,-3.8691,-3.9379,-3.9424,-3.9424,-3.9424,-3.9337,-3.8782,-3.7829,-3.6618,-3.6618,-3.7663,-3.5534,-3.516,-3.6226,-3.52,-3.529,-3.6282,-3.6345,-3.6358,-3.6358,-3.6358,-3.6358,-3.6358,-3.6358,-3.6358,-3.6358,-3.6358,-3.6358,-3.6358,-3.0986,-3.1106,-3.115,-3.1285,-3.13,-3.1302,-3.1452,-3.1482,-3.1482,-3.1482,-3.1482,-3.1482,-3.1482,-3.1482,-3.1482,-3.1482,-3.1482,-3.1541,-3.1676,-3.2093,-3.2497,-3.2916,-3.3784,-3.4322,-3.4472,-3.516,-3.5504,-3.5504,-3.5504,-3.5504,-3.5504,-3.5504,-3.5504,-3.5504,-3.5504,-3.5504,-3.5504,-3.5504,-3.5504,-3.5504,-3.5504,-3.5504,-3.5504,-3.5504,-3.5504,-3.5504,-3.5504,-3.5504,-3.5504,-3.5504,-3.5504,-3.5504,-3.5504,-3.5504,-3.5504,-3.5504,-3.5504,-3.5504,-3.5504,-3.5504,-3.5504,-3.5504,-3.5504,-3.5504,-3.5504,-3.5504,-3.5504,-3.5504,-3.5504,-3.5504,-3.5504,-3.5504,-3.5504,-3.5504,-3.5504,-3.5504,-3.5504,-3.5504,-3.5504,-3.5504,-3.5953,-3.6267,-3.6267,-3.6836,-3.7539,-3.8332,-3.8392,-3.8691,-3.9379,-3.9424,-3.9424,-3.9424,-3.8546,-3.8069,-3.7829,-3.5922,-3.5521,-3.6526,-3.4415,-3.4229,-3.5647,-3.5022,-3.509,-3.5742,-3.6169,-3.6358,-3.6358,-3.6358,-3.6358,-3.6358,-3.6358,-3.6358,-3.6358,-3.6358,-3.6358,-3.6358,-3.0911,-3.13,-3.1482,-3.1482,-3.1482,-3.1482,-3.1482,-3.1482,-3.1482,-3.1482,-3.1482,-3.1482,-3.1482,-3.1482,-3.1482,-3.1482,-3.1482,-3.1616,-3.1988,-3.2033,-3.2467,-3.341,-3.3814,-3.4307,-3.4951,-3.5325,-3.5504,-3.5504,-3.5504,-3.5504,-3.5504,-3.5504,-3.5504,-3.5504,-3.5504,-3.5504,-3.5504,-3.5504,-3.5504,-3.5504,-3.5504,-3.5504,-3.5504,-3.5504,-3.5504,-3.5504,-3.5504,-3.5504,-3.5504,-3.5504,-3.5504,-3.5504,-3.5504,-3.5504,-3.5504,-3.5504,-3.5504,-3.5504,-3.5504,-3.5504,-3.5504,-3.5504,-3.5504,-3.5504,-3.5504,-3.5504,-3.5504,-3.5504,-3.5504,-3.5504,-3.5504,-3.5504,-3.5504,-3.5504,-3.5504,-3.5504,-3.5504,-3.5504,-3.5624,-3.5938,-3.6282,-3.6731,-3.733,-3.7689,-3.8153,-3.8841,-3.8886,-3.9035,-3.9394,-3.9424,-3.9424,-3.9424,-3.8383,-3.7587,-3.7021,-3.5453,-3.4795,-3.5059,-3.4024,-3.4083,-3.5131,-3.5122,-3.5416,-3.5956,-3.6232,-3.6358,-3.6358,-3.6358,-3.6358,-3.6358,-3.6358,-3.6358,-3.6358,-3.6358,-3.6358,-3.6358,-3.0552,-3.115,-3.1482,-3.1482,-3.1482,-3.1482,-3.1482,-3.1482,-3.1482,-3.1482,-3.1482,-3.1482,-3.1482,-3.1482,-3.1482,-3.1482,-3.1482,-3.1764,-3.2302,-3.1839,-3.2317,-3.4068,-3.3724,-3.4068,-3.5295,-3.5444,-3.5504,-3.5504,-3.5504,-3.5504,-3.5504,-3.5504,-3.5504,-3.5504,-3.5504,-3.5504,-3.5504,-3.5504,-3.5504,-3.5504,-3.5504,-3.5504,-3.5504,-3.5504,-3.5504,-3.5504,-3.5504,-3.5504,-3.5504,-3.5504,-3.5504,-3.5504,-3.5504,-3.5504,-3.5504,-3.5504,-3.5504,-3.5504,-3.5504,-3.5504,-3.5504,-3.5504,-3.5504,-3.5504,-3.5504,-3.5504,-3.5504,-3.5504,-3.5504,-3.5549,-3.5654,-3.5669,-3.5714,-3.5818,-3.5833,-3.5833,-3.5833,-3.5833,-3.6028,-3.6582,-3.6746,-3.727,-3.8452,-3.8556,-3.8796,-3.9379,-3.9424,-3.9424,-3.9424,-3.9424,-3.9424,-3.9424,-3.8144,-3.7098,-3.6198,-3.5047,-3.4237,-3.3897,-3.3997,-3.4324,-3.4876,-3.5341,-3.5843,-3.6358,-3.6358,-3.6358,-3.6358,-3.6358,-3.6358,-3.6358,-3.6358,-3.6358,-3.6358,-3.6358,-3.6358,-3.637,-3.1255,-3.1407,-3.1482,-3.1482,-3.1482,-3.1482,-3.1482,-3.1482,-3.1482,-3.1482,-3.1482,-3.1482,-3.1482,-3.1482,-3.1482,-3.1482,-3.1482,-3.1511,-3.1601,-3.1526,-3.1898,-3.2736,-3.3245,-3.3844,-3.4607,-3.519,-3.5504,-3.5504,-3.5504,-3.5504,-3.5504,-3.5504,-3.5504,-3.5504,-3.5504,-3.5504,-3.5504,-3.5504,-3.5504,-3.5504,-3.5504,-3.5504,-3.5504,-3.5504,-3.5504,-3.5504,-3.5504,-3.5504,-3.5504,-3.5504,-3.5504,-3.5504,-3.5504,-3.5504,-3.5504,-3.5504,-3.5504,-3.5504,-3.5504,-3.5504,-3.5504,-3.5504,-3.5504,-3.5504,-3.5504,-3.5504,-3.5504,-3.5504,-3.5504,-3.5684,-3.6252,-3.6357,-3.6537,-3.706,-3.715,-3.715,-3.715,-3.715,-3.718,-3.727,-3.7778,-3.8437,-3.92,-3.9275,-3.932,-3.9409,-3.9424,-3.9424,-3.9424,-3.9424,-3.9424,-3.9424,-3.7482,-3.6369,-3.6198,-3.4249,-3.3518,-3.3909,-3.4387,-3.4901,-3.5349,-3.5516,-3.5843,-3.6358,-3.6358,-3.6358,-3.6358,-3.6358,-3.6358,-3.6358,-3.6358,-3.6358,-3.6358,-3.6358,-3.6358,-3.6433,-3.1405,-3.1482,-3.1482,-3.1482,-3.1482,-3.1482,-3.1482,-3.1482,-3.1482,-3.1482,-3.1482,-3.1482,-3.1482,-3.1482,-3.1482,-3.1482,-3.1482,-3.1482,-3.1482,-3.1884,-3.2377,-3.3036,-3.3694,-3.4367,-3.504,-3.5355,-3.5504,-3.5504,-3.5504,-3.5504,-3.5504,-3.5504,-3.5504,-3.5504,-3.5504,-3.5504,-3.5504,-3.5504,-3.5504,-3.5504,-3.5504,-3.5504,-3.5504,-3.5504,-3.5504,-3.5504,-3.5504,-3.5504,-3.5504,-3.5504,-3.5504,-3.5504,-3.5504,-3.5504,-3.5504,-3.5504,-3.5504,-3.5504,-3.5504,-3.5504,-3.5504,-3.5504,-3.5504,-3.5609,-3.5968,-3.6058,-3.5953,-3.5579,-3.5804,-3.6148,-3.6432,-3.6776,-3.709,-3.736,-3.7404,-3.7404,-3.7404,-3.7404,-3.7539,-3.7913,-3.8556,-3.908,-3.9394,-3.9424,-3.9424,-3.9424,-3.9424,-3.9424,-3.9424,-3.9424,-3.9424,-3.9424,-3.789,-3.6774,-3.6198,-3.4733,-3.4075,-3.4361,-3.4613,-3.5014,-3.5554,-3.5868,-3.6132,-3.6358,-3.6358,-3.6358,-3.6358,-3.6358,-3.6358,-3.6358,-3.6358,-3.6358,-3.6358,-3.6358,-3.6358,-3.6395]},{"header":{"parameterUnit":"m.s-1","parameterCategory":1,"la1":30.6,"la2":28.766,"lo1":-90.7593,"lo2":-88.6598,"dy":0.0162,"dx":0.0183,"nx":116,"ny":114,"refTime":"2023-06-20T12:00:00:Z","depth":0,"parameterNumber":3,"parameterNumberName":"V-component_of_WINDS"},"data":[0.0,0.0,0.0,0.0,0.0,0.0,0.0,0.0,0.0,0.0,0.0,0.0,0.0,0.0,0.0,0.0,0.0,0.0,0.0,0.0,0.0,0.0,0.0,0.0,0.0,0.0,0.0,0.0,0.0,0.0,0.0,0.0,0.0,0.0,0.0,0.0,0.0,0.0,0.0,0.0,0.0,0.0,0.0,0.0,0.0,0.0,0.0,0.0,0.0,0.0,0.0,0.0,0.0,0.0,0.0,0.0,0.0,0.0,0.0,0.0,0.0,0.0,0.0,0.0,0.0,0.0,0.0,0.0,0.0,0.0,0.0,0.0,0.0,0.0,0.0,0.0,0.0,0.0,0.0,0.0,0.0,0.0,0.0,0.0,0.0,0.0,0.0,0.0,0.0,0.0,0.0,0.0,0.0,0.0,0.0,0.0,0.0,0.0,0.0,0.0,0.0,0.0,0.0,0.0,0.0,0.0,0.0,0.0,0.0,0.0,0.0,0.0,0.0,0.0,0.0,0.0,0.0,0.0,0.0,0.0,0.0,0.0,0.0,0.0,0.0,0.0,0.0,0.0,0.0,0.0,0.0,0.0,0.0,0.0,0.0,0.0,0.0,0.0,0.0,0.0,0.0,0.0,0.0,0.0,0.0,0.0,0.0,0.0,0.0,0.0,0.0,0.0,0.0,0.0,0.0,0.0,0.0,0.0,0.0,0.0,0.0,0.0,0.0,0.0,0.0,0.0,0.0,0.0,0.0,0.0,0.0,0.0,0.0,0.0,0.0,0.0,0.0,0.0,0.0,0.0,0.0,0.0,0.0,0.0,0.0,0.0,0.0,0.0,0.0,0.0,0.0,0.0,0.0,0.0,0.0,0.0,0.0,0.0,0.0,0.0,0.0,0.0,0.0,0.0,0.0,0.0,0.0,0.0,0.0,0.0,0.0,0.0,0.0,0.0,0.0,0.0,0.0,0.0,0.0,0.0,0.0,0.0,0.0,0.0,0.0,0.0,0.0,0.0,0.0,0.0,0.0,0.0,0.0,0.0,0.0,0.0,0.0,0.0,0.0,0.0,0.0,0.0,0.0,0.0,0.0,0.0,0.0,0.0,0.0,0.0,0.0,0.0,0.0,0.0,0.0,0.0,0.0,0.0,0.0,0.0,0.0,0.0,0.0,0.0,0.0,0.0,0.0,0.0,0.0,0.0,0.0,0.0,0.0,0.0,0.0,0.0,0.0,0.0,0.0,0.0,0.0,0.0,0.0,0.0,0.0,0.0,0.0,0.0,0.0,0.0,0.0,0.0,0.0,0.0,0.0,0.0,0.0,0.0,0.0,0.0,0.0,0.0,0.0,0.0,0.0,0.0,0.0,0.0,0.0,0.0,0.0,0.0,0.0,0.0,0.0,0.0,0.0,0.0,0.0,0.0,0.0,0.0,0.0,0.0,0.0,0.0,0.0,0.0,0.0,0.0,0.0,0.0,0.0,0.0,0.0,0.0,0.0,0.0,0.0,0.0,0.0,0.0,0.0,0.0,0.0,0.0,0.0,0.0,0.0,0.0,0.0,0.0,0.0,0.0,0.0,0.0,0.0,0.0,0.0,0.0,0.0,0.0,0.0,0.0,0.0,0.0,0.0,0.0,0.0,0.0,0.0,0.0,0.0,0.0,0.0,0.0,0.0,0.0,0.0,0.0,0.0,0.0,0.0,0.0,0.0,0.0,0.0,0.0,0.0,0.0,0.0,0.0,0.0,0.0,0.0,0.0,0.0,0.0,0.0,0.0,0.0,0.0,0.0,0.0,0.0,0.0,0.0,0.0,0.0,0.0,0.0,0.0,0.0,0.0,0.0,0.0,0.0,0.0,0.0,0.0,0.0,0.0,0.0,0.0,0.0,0.0,0.0,0.0,0.0,0.0,0.0,0.0,0.0,0.0,0.0,0.0,0.0,0.0,0.0,0.0,0.0,0.0,0.0,0.0,0.0,0.0,0.0,0.0,0.0,0.0,0.0,0.0,0.0,0.0,0.0,0.0,0.0,0.0,0.0,0.0,0.0,0.0,0.0,0.0,0.0,0.0,0.0,0.0,0.0,0.0,0.0,0.0,0.0,0.0,0.0,0.0,0.0,0.0,0.0,0.0,0.0,0.0,0.0,0.0,0.0,0.0,0.0,0.0,0.0,0.0,0.0,0.0,0.0,0.0,0.0,0.0,0.0,0.0,0.0,0.0,0.0,0.0,0.0,0.0,0.0,0.0,0.0,0.0,0.0,0.0,0.0,0.0,0.0,0.0,0.0,0.0,0.0,0.0,0.0,0.0,0.0,0.0,0.0,0.0,0.0,0.0,0.0,0.0,0.0,0.0,0.0,0.0,0.0,0.0,0.0,0.0,0.0,0.0,0.0,0.0,0.0,0.0,0.0,0.0,0.0,0.0,0.0,0.0,0.0,0.0,0.0,0.0,0.0,0.0,0.0,0.0,0.0,0.0,0.0,0.0,0.0,0.0,0.0,0.0,0.0,0.0,0.0,0.0,0.0,0.0,0.0,0.0,0.0,0.0,0.0,0.0,0.0,0.0,0.0,0.0,0.0,0.0,0.0,0.0,0.0,0.0,0.0,0.0,0.0,0.0,0.0,0.0,0.0,0.0,0.0,0.0,0.0,0.0,0.0,0.0,0.0,0.0,0.0,0.0,0.0,0.0,0.0,0.0,0.0,0.0,0.0,0.0,0.0,0.0,0.0,0.0,0.0,0.0,0.0,0.0,0.0,0.0,0.0,0.0,0.0,0.0,0.0,0.0,0.0,0.0,0.0,0.0,0.0,0.0,0.0,0.0,0.0,0.0,0.0,0.0,0.0,0.0,0.0,0.0,0.0,0.0,0.0,0.0,0.0,0.0,0.0,0.0,0.0,0.0,0.0,0.0,0.0,0.0,0.0,0.0,0.0,0.0,0.0,0.0,0.0,0.0,0.0,0.0,0.0,0.0,0.0,0.0,0.0,0.0,0.0,0.0,0.0,0.0,0.0,0.0,0.0,0.0,0.0,0.0,0.0,0.0,0.0,0.0,0.0,0.0,0.0,0.0,0.0,0.0,0.0,0.0,0.0,0.0,0.0,0.0,0.0,0.0,0.0,0.0,0.0,0.0,0.0,0.0,0.0,0.0,0.0,0.0,0.0,0.0,0.0,0.0,0.0,0.0,0.0,0.0,0.0,0.0,0.0,0.0,0.0,0.0,0.0,0.0,0.0,0.0,0.0,0.0,0.0,0.0,0.0,0.0,0.0,0.0,0.0,0.0,0.0,0.0,0.0,0.0,0.0,0.0,0.0,0.0,0.0,0.0,0.0,0.0,0.0,0.0,0.0,0.0,0.0,0.0,0.0,0.0,0.0,0.0,0.0,0.0,0.0,0.0,0.0,0.0,0.0,0.0,0.0,0.0,0.0,0.0,0.0,0.0,0.0,0.0,0.0,0.0,0.0,0.0,0.0,0.0,0.0,0.0,0.0,0.0,0.0,0.0,0.0,0.0,0.0,0.0,0.0,0.0,0.0,0.0,0.0,0.0,0.0,0.0,0.0,0.0,0.0,0.0,0.0,0.0,0.0,0.0,0.0,0.0,0.0,0.0,0.0,0.0,0.0,0.0,0.0,0.0,0.0,0.0,0.0,0.0,0.0,0.0,0.0,0.0,0.0,0.0,0.0,0.0,0.0,0.0,0.0,0.0,0.0,0.0,0.0,0.0,0.0,0.0,0.0,0.0,0.0,0.0,0.0,0.0,0.0,0.0,0.0,0.0,0.0,0.0,0.0,0.0,0.0,0.0,0.0,0.0,0.0,0.0,0.0,0.0,0.0,0.0,0.0,0.0,0.0,0.0,0.0,0.0,0.0,0.0,0.0,0.0,0.0,0.0,0.0,0.0,0.0,0.0,0.0,0.0,0.0,0.0,0.0,0.0,0.0,0.0,0.0,0.0,0.0,0.0,0.0,0.0,0.0,0.0,0.0,0.0,0.0,0.0,0.0,0.0,0.0,0.0,0.0,0.0,0.0,0.0,0.0,0.0,0.0,0.0,0.0,0.0,0.0,0.0,0.0,0.0,0.0,0.0,0.0,0.0,0.0,0.0,0.0,0.0,0.0,0.0,0.0,0.0,0.0,0.0,0.0,0.0,0.0,0.0,0.0,0.0,0.0,0.0,0.0,0.0,0.0,0.0,0.0,0.0,0.0,0.0,0.0,0.0,0.0,0.0,0.0,0.0,0.0,0.0,0.0,0.0,0.0,0.0,0.0,0.0,0.0,0.0,0.0,0.0,0.0,0.0,0.0,0.0,0.0,0.0,0.0,0.0,0.0,0.0,0.0,0.0,0.0,0.0,0.0,0.0,0.0,0.0,0.0,0.0,0.0,0.0,0.0,0.0,0.0,0.0,0.0,0.0,0.0,0.0,0.0,0.0,0.0,0.0,0.0,0.0,0.0,0.0,0.0,0.0,0.0,0.0,0.0,0.0,0.0,0.0,0.0,0.0,0.0,0.0,0.0,0.0,0.0,0.0,0.0,0.0,0.0,0.0,0.0,0.0,0.0,0.0,0.0,0.0,0.0,0.0,0.0,0.0,0.0,0.0,0.0,0.0,0.0,0.0,0.0,0.0,0.0,0.0,0.0,0.0,0.0,0.0,0.0,0.0,0.0,0.0,0.0,0.0,0.0,0.0,0.0,0.0,0.0,0.0,0.0,0.0,0.0,0.0,0.0,0.0,0.0,0.0,0.0,0.0,0.0,0.0,0.0,0.0,0.0,0.0,0.0,0.0,0.0,0.0,0.0,0.0,0.0,0.0,0.0,0.0,0.0,0.0,0.0,0.0,0.0,0.0,0.0,0.0,0.0,0.0,0.0,0.0,0.0,0.0,0.0,0.0,0.0,0.0,0.0,0.0,0.0,0.0,0.0,0.0,0.0,0.0,0.0,0.0,0.0,0.0,0.0,0.0,0.0,0.0,0.0,0.0,0.0,0.0,0.0,0.0,0.0,0.0,0.0,0.0,0.0,0.0,0.0,0.0,0.0,0.0,0.0,0.0,0.0,0.0,0.0,0.0,0.0,0.0,0.0,0.0,0.0,0.0,0.0,0.0,0.0,0.0,0.0,0.0,0.0,0.0,0.0,0.0,0.0,0.0,0.0,0.0,0.0,0.0,0.0,0.0,0.0,0.0,0.0,0.0,0.0,0.0,0.0,0.0,0.0,0.0,0.0,0.0,0.0,0.0,0.0,0.0,0.0,0.0,0.0,0.0,0.0,0.0,0.0,0.0,0.0,0.0,0.0,0.0,0.0,0.0,0.0,0.0,0.0,0.0,0.0,0.0,0.0,0.0,0.0,0.0,0.0,0.0,0.0,0.0,0.0,0.0,0.0,0.0,0.0,0.0,0.0,0.0,0.0,0.0,0.0,0.0,0.0,0.0,0.0,0.0,0.0,0.0,0.0,0.0,0.0,0.0,0.0,0.0,0.0,0.0,0.0,0.0,0.0,0.0,0.0,0.0,0.0,0.0,0.0,0.0,0.0,0.0,0.0,0.0,0.0,0.0,0.0,0.0,0.0,0.0,0.0,0.0,0.0,0.0,0.0,0.0,0.0,0.0,0.0,0.0,0.0,0.0,0.0,0.0,0.0,0.0,0.0,0.0,0.0,0.0,0.0,0.0,0.0,0.0,0.0,0.0,0.0,0.0,0.0,0.0,0.0,0.0,0.0,0.0,0.0,0.0,0.0,0.0,0.0,0.0,0.0,0.0,0.0,0.0,0.0,0.0,0.0,0.0,0.0,0.0,0.0,0.0,0.0,0.0,0.0,0.0,0.0,0.0,0.0,0.0,0.0,0.0,0.0,0.0,0.0,0.0,0.0,0.0,0.0,0.0,0.0,0.0,0.0,0.0,0.0,0.0,0.0,0.0,0.0,0.0,0.0,0.0,0.0,0.0,0.0,0.0,0.0,0.0,0.0,0.0,0.0,0.0,0.0,0.0,0.0,0.0,0.0,0.0,0.0,0.0,0.0,0.0,0.0,0.0,0.0,0.0,0.0,0.0,0.0,0.0,0.0,0.0,0.0,0.0,0.0,0.0,0.0,0.0,0.0,0.0,0.0,0.0,-1.9943,-1.7731,0.0,0.0,0.0,0.0,0.0,0.0,0.0,0.0,0.0,0.0,0.0,0.0,0.0,0.0,0.0,0.0,0.0,0.0,0.0,0.0,0.0,0.0,0.0,0.0,0.0,0.0,0.0,0.0,0.0,0.0,0.0,0.0,0.0,0.0,0.0,0.0,0.0,0.0,0.0,0.0,0.0,0.0,0.0,0.0,0.0,0.0,0.0,0.0,0.0,0.0,0.0,0.0,0.0,0.0,0.0,0.0,0.0,0.0,0.0,0.0,0.0,0.0,0.0,0.0,0.0,0.0,0.0,0.0,0.0,0.0,0.0,0.0,0.0,0.0,0.0,0.0,0.0,0.0,0.0,0.0,0.0,0.0,0.0,0.0,0.0,0.0,0.0,0.0,0.0,0.0,0.0,0.0,0.0,0.0,0.0,0.0,0.0,0.0,0.0,0.0,0.0,0.0,0.0,0.0,0.0,0.0,0.0,0.0,0.0,0.0,0.0,0.0,0.0,0.0,-2.0726,-1.9941,0.0,0.0,0.0,0.0,0.0,0.0,0.0,0.0,0.0,0.0,0.0,0.0,0.0,0.0,0.0,0.0,0.0,0.0,0.0,0.0,0.0,0.0,0.0,0.0,0.0,0.0,0.0,0.0,0.0,0.0,0.0,0.0,0.0,0.0,0.0,0.0,0.0,0.0,0.0,0.0,0.0,0.0,0.0,0.0,0.0,0.0,0.0,0.0,0.0,0.0,0.0,0.0,0.0,0.0,0.0,0.0,0.0,0.0,0.0,0.0,0.0,0.0,0.0,0.0,0.0,0.0,0.0,0.0,0.0,0.0,0.0,0.0,0.0,0.0,0.0,0.0,0.0,0.0,0.0,0.0,0.0,0.0,0.0,0.0,0.0,0.0,0.0,0.0,0.0,0.0,0.0,0.0,0.0,0.0,0.0,0.0,0.0,0.0,0.0,0.0,0.0,0.0,0.0,0.0,0.0,0.0,0.0,0.0,-2.1415,-2.1218,-2.0331,-2.0998,-2.0821,-2.01,-2.2205,-2.3035,-2.2805,-2.1422,0.0,0.0,0.0,0.0,0.0,0.0,0.0,0.0,0.0,0.0,0.0,0.0,0.0,0.0,0.0,0.0,0.0,0.0,0.0,0.0,0.0,0.0,0.0,0.0,0.0,0.0,0.0,0.0,0.0,0.0,0.0,0.0,0.0,0.0,0.0,0.0,0.0,0.0,-1.6605,-1.7647,-1.8217,-1.8368,-1.833,0.0,0.0,0.0,0.0,0.0,0.0,0.0,0.0,0.0,0.0,0.0,0.0,0.0,0.0,0.0,0.0,0.0,0.0,0.0,0.0,0.0,0.0,0.0,0.0,0.0,0.0,0.0,0.0,0.0,0.0,0.0,0.0,0.0,0.0,0.0,0.0,0.0,0.0,0.0,0.0,0.0,0.0,0.0,-1.7718,-1.9906,0.0,0.0,0.0,0.0,0.0,0.0,0.0,0.0,0.0,0.0,0.0,0.0,0.0,-1.9535,-1.8792,-2.1991,-2.3141,-2.2252,-2.5413,-2.6723,-2.6355,-2.6472,-2.6439,-2.6227,-2.4932,0.0,-2.3366,-2.4056,0.0,0.0,0.0,0.0,0.0,0.0,0.0,0.0,0.0,0.0,0.0,0.0,0.0,0.0,0.0,0.0,0.0,0.0,0.0,0.0,0.0,0.0,0.0,0.0,0.0,0.0,0.0,0.0,0.0,0.0,0.0,0.0,0.0,0.0,0.0,0.0,-1.6207,-1.8074,-1.8798,-2.017,-2.088,-2.1042,-2.1296,-2.0173,-1.8111,-1.8,0.0,0.0,0.0,0.0,0.0,0.0,0.0,0.0,0.0,0.0,0.0,0.0,0.0,0.0,0.0,0.0,0.0,0.0,0.0,0.0,0.0,0.0,0.0,0.0,0.0,0.0,0.0,0.0,0.0,0.0,0.0,0.0,0.0,0.0,0.0,0.0,0.0,0.0,0.0,-1.7886,-1.9224,-2.0362,-2.0539,-2.0064,0.0,0.0,0.0,0.0,0.0,0.0,0.0,0.0,0.0,-2.1015,-2.1982,-2.2296,-2.192,-2.4779,-2.6006,-2.5545,-2.7,-2.7548,-2.7346,-2.7679,-2.8013,-2.8315,-2.7917,-2.7561,-2.7079,-2.5325,-2.4598,-2.4445,0.0,0.0,0.0,0.0,-1.9726,-2.0609,0.0,0.0,0.0,0.0,0.0,0.0,0.0,0.0,0.0,0.0,0.0,0.0,0.0,0.0,0.0,-1.1562,0.0,0.0,0.0,0.0,0.0,0.0,0.0,0.0,0.0,0.0,0.0,0.0,-1.7547,-1.9507,-2.0448,-2.1738,-2.2498,-2.279,-2.3101,-2.199,-1.9895,-1.9659,-1.8934,0.0,0.0,0.0,0.0,0.0,0.0,0.0,0.0,0.0,0.0,0.0,0.0,0.0,0.0,0.0,0.0,0.0,0.0,0.0,0.0,0.0,0.0,0.0,0.0,0.0,0.0,0.0,0.0,0.0,0.0,0.0,0.0,0.0,0.0,0.0,0.0,0.0,0.0,-1.9184,-2.0429,-2.1094,-2.1579,-2.1434,0.0,0.0,0.0,0.0,0.0,0.0,-2.217,-2.1665,-2.1907,-2.3174,-2.4411,-2.5042,-2.4977,-2.706,-2.8076,-2.795,-2.8241,-2.8263,-2.8103,-2.8745,-2.9286,-2.9734,-3.027,-3.0503,-3.027,-2.7187,-2.5838,-2.5666,-2.4981,-2.4011,-2.2958,-2.254,-2.2802,-2.3316,0.0,0.0,0.0,0.0,0.0,0.0,0.0,0.0,0.0,0.0,0.0,0.0,0.0,0.0,-1.2596,-1.3831,-1.476,-1.4519,0.0,0.0,0.0,0.0,0.0,0.0,0.0,0.0,0.0,-1.7669,-1.9684,-2.071,-2.0784,-2.1176,-2.195,-2.2978,-2.2684,-2.2154,-2.1457,-2.1279,-2.0495,-1.9188,0.0,0.0,0.0,0.0,0.0,0.0,0.0,0.0,0.0,0.0,0.0,0.0,0.0,0.0,0.0,0.0,0.0,0.0,0.0,0.0,0.0,0.0,0.0,0.0,0.0,0.0,0.0,0.0,0.0,0.0,0.0,0.0,0.0,0.0,0.0,0.0,0.0,0.0,0.0,-2.2673,-2.4325,0.0,0.0,0.0,0.0,-2.0451,-2.0373,-2.1452,-2.3859,-2.3951,-2.5045,-2.7514,-2.7659,-2.7601,-2.7331,-2.8278,-2.8525,-2.8109,-2.9889,-3.0622,-3.0456,-3.1235,-3.1644,-3.1637,-3.1439,-3.1329,-3.128,-3.0587,-2.9691,-2.8588,-2.6597,-2.5645,-2.5245,-2.3785,-2.4645,-2.6672,0.0,0.0,0.0,0.0,0.0,0.0,0.0,0.0,0.0,0.0,0.0,0.0,0.0,-1.3152,-1.4892,-1.5414,-1.7086,-1.7212,-1.5095,0.0,0.0,0.0,0.0,0.0,0.0,0.0,-1.6947,-1.7005,-1.9944,-2.1668,-2.223,-2.2329,-2.3187,-2.4587,-2.3809,-2.3626,-2.3898,-2.3433,-2.252,-2.1367,-2.0524,-1.8831,0.0,0.0,0.0,0.0,0.0,0.0,0.0,0.0,0.0,0.0,0.0,0.0,0.0,0.0,0.0,0.0,0.0,0.0,0.0,0.0,0.0,0.0,0.0,0.0,0.0,0.0,0.0,0.0,0.0,0.0,0.0,0.0,0.0,0.0,0.0,0.0,0.0,-2.2728,-2.3521,0.0,-2.4591,-2.4082,-2.3918,-2.4424,-2.4933,-2.5847,-2.7242,-2.7328,-2.7896,-2.9212,-2.9237,-2.9136,-2.8925,-2.9209,-2.9561,-2.9908,-3.045,-3.0949,-3.1402,-3.2033,-3.2305,-3.2342,-3.2757,-3.2651,-3.2155,-3.1986,-3.1372,-3.0472,-2.9732,-2.94,-2.9273,-2.871,-2.9042,-2.9807,0.0,0.0,0.0,0.0,0.0,0.0,0.0,0.0,0.0,0.0,0.0,-1.1012,-1.3303,-1.5593,-1.7255,-1.8042,-1.8941,-1.8454,-1.6087,0.0,0.0,0.0,0.0,0.0,0.0,-1.6191,-1.7952,-1.8253,-2.0251,-2.1825,-2.2956,-2.2634,-2.3395,-2.5005,-2.4329,-2.4471,-2.5201,-2.4822,-2.4099,-2.3217,-2.241,-2.0143,-1.7148,0.0,0.0,0.0,0.0,0.0,0.0,0.0,0.0,0.0,0.0,0.0,0.0,0.0,0.0,0.0,0.0,0.0,0.0,0.0,0.0,0.0,0.0,0.0,0.0,0.0,0.0,0.0,0.0,0.0,0.0,0.0,0.0,0.0,0.0,0.0,-2.2075,-2.3205,-2.4122,-2.5097,-2.6233,-2.5751,-2.5847,-2.702,-2.8118,-2.881,-2.8994,-2.9787,-3.0251,-3.0292,-3.0576,-3.0612,-3.0396,-3.0415,-3.0639,-3.1063,-3.1206,-3.1543,-3.2098,-3.2709,-3.2438,-3.155,-3.3117,-3.2915,-3.1532,-3.2585,-3.2687,-3.2155,-3.1604,-3.1568,-3.1806,-3.1806,-3.2155,-3.2614,0.0,0.0,0.0,0.0,0.0,0.0,0.0,0.0,0.0,0.0,-0.9959,-1.2692,-1.7407,-1.8485,-1.9654,-2.1676,-2.0227,-1.813,-1.5592,-1.3749,0.0,0.0,0.0,0.0,-1.6495,-1.7453,-1.9174,-2.1741,-2.0837,-2.1257,-2.2913,-2.1977,-2.2478,-2.4139,-2.4119,-2.4549,-2.5312,-2.5312,-2.5128,-2.4626,-2.2344,-2.037,-1.855,0.0,0.0,0.0,0.0,0.0,0.0,0.0,0.0,0.0,0.0,0.0,0.0,0.0,0.0,0.0,0.0,0.0,0.0,0.0,0.0,0.0,0.0,0.0,0.0,0.0,0.0,0.0,0.0,0.0,0.0,0.0,0.0,0.0,-1.8221,-2.1587,-2.4175,-2.4298,-2.6444,-2.7937,-2.8049,-2.8003,-2.7975,-2.8033,-2.954,-2.9998,-2.8965,-3.1123,-3.1903,-3.0865,-3.1582,-3.1878,-3.1682,-3.1756,-3.1654,-3.1439,-3.2228,-3.2632,-3.2706,-3.3476,-3.2213,-2.9588,-3.2562,-3.2139,-2.9606,-3.2592,-3.3844,-3.3678,-3.2082,-3.1953,-3.2651,-3.2651,-3.3615,-3.4935,0.0,0.0,0.0,0.0,0.0,0.0,0.0,0.0,0.0,0.0,-1.0848,-1.3809,-1.5827,-1.843,-2.0242,-2.0762,-1.9825,-1.8376,-1.6402,0.0,0.0,0.0,0.0,0.0,-1.8089,-1.9638,-2.1124,-2.2574,-2.2358,-2.2798,-2.3821,-2.2982,-2.3499,-2.5096,-2.4443,-2.4643,-2.5459,-2.5459,-2.5368,-2.5187,-2.4535,-2.2914,-2.0812,0.0,0.0,0.0,0.0,0.0,0.0,0.0,0.0,0.0,0.0,0.0,0.0,0.0,0.0,0.0,0.0,0.0,0.0,0.0,0.0,0.0,0.0,0.0,0.0,0.0,0.0,0.0,0.0,0.0,0.0,0.0,0.0,-2.2675,-2.2439,-2.3924,-2.5488,-2.6743,-2.7316,-2.8103,-2.9336,-2.9262,-2.9639,-3.0852,-3.1364,-3.1498,-3.1201,-3.0276,-2.9539,-2.9097,-2.9305,-2.9308,-2.905,-3.0674,-3.1777,-3.2284,-3.2504,-3.3193,-3.4348,-3.455,-3.4568,-3.4357,-3.4559,-3.4174,-3.3474,-3.4321,-3.4688,-3.4578,-3.3532,-3.3275,-3.3476,-3.3476,-3.3752,-3.3907,0.0,0.0,0.0,0.0,0.0,0.0,0.0,0.0,0.0,0.0,-1.1127,-1.4127,-1.6173,-1.8821,-2.0419,-2.0354,-1.9242,-1.7495,-1.505,0.0,0.0,0.0,0.0,-1.617,-1.9735,-2.1079,-2.2206,-2.3155,-2.2814,-2.3282,-2.4438,-2.3606,-2.3931,-2.518,-2.4679,-2.4752,-2.5288,-2.5288,-2.5339,-2.5407,-2.5405,-2.3902,-2.1659,-2.1698,-2.0448,-1.8672,-1.8621,-1.8943,-1.9142,-1.7614,0.0,0.0,0.0,0.0,0.0,0.0,0.0,0.0,0.0,0.0,0.0,0.0,0.0,0.0,0.0,0.0,0.0,0.0,0.0,0.0,0.0,0.0,0.0,0.0,-2.3542,-2.5914,-2.6498,-2.7106,-2.7812,-2.8676,-2.9254,-2.9935,-3.0812,-3.0731,-3.1054,-3.2015,-3.2448,-3.2446,-3.2008,-3.1694,-3.0847,-2.9345,-3.0847,-3.1169,-3.0068,-3.2293,-3.3678,-3.4156,-3.4156,-3.4651,-3.555,-3.555,-3.5101,-3.4365,-3.5193,-3.4807,-3.3684,-3.5009,-3.555,-3.5514,0.0,0.0,0.0,0.0,-3.5422,-3.4715,0.0,0.0,0.0,0.0,0.0,0.0,0.0,0.0,0.0,0.0,0.0,-1.3875,-1.7236,-1.9072,-2.0052,-1.9993,-1.8266,-1.5827,0.0,0.0,0.0,-1.5209,-1.6648,-1.8629,-2.1373,-2.2022,-2.2759,-2.3649,-2.2881,-2.3291,-2.4785,-2.4002,-2.4058,-2.4804,-2.4804,-2.4926,-2.5107,-2.5107,-2.5294,-2.5597,-2.5512,-2.4083,-2.2044,-2.2044,-2.0642,-1.8667,-1.8667,-1.8667,-1.8628,-1.8333,0.0,0.0,0.0,0.0,0.0,0.0,0.0,0.0,0.0,0.0,0.0,0.0,0.0,0.0,0.0,0.0,0.0,0.0,0.0,0.0,0.0,0.0,0.0,0.0,-2.6154,-2.8739,-3.0053,-3.0538,-3.0598,-3.0278,-3.1521,-3.2348,-3.2221,-3.2182,-3.22,-3.2275,-3.3008,-3.3074,-3.2214,0.0,0.0,0.0,0.0,-3.4952,-3.2924,-3.5266,-3.6376,-3.6303,-3.6376,-3.6431,-3.6431,-3.6523,-3.5064,-3.2576,-3.5349,-3.4935,-3.2478,-3.5276,-3.6486,-3.6541,-3.6376,-3.6725,-3.7434,-3.7875,-3.7323,-3.6358,0.0,0.0,0.0,0.0,0.0,0.0,0.0,0.0,0.0,-0.8452,-1.0989,-1.3401,-1.5499,-1.7174,-1.8138,-1.8122,-1.5868,-1.3883,0.0,0.0,-1.1437,-1.7318,-1.7256,-1.8907,-2.2813,-2.3026,-2.3574,-2.4544,-2.4374,-2.4469,-2.4804,-2.462,-2.4639,-2.4804,-2.4804,-2.5163,-2.58,-2.58,-2.6212,-2.6794,-2.6147,-2.5428,-2.4753,-2.4753,-2.443,-2.4013,-2.4013,-2.4013,-2.3696,-2.1634,-2.106,-2.1194,-2.1194,0.0,0.0,0.0,0.0,0.0,0.0,0.0,0.0,0.0,0.0,0.0,0.0,0.0,0.0,0.0,0.0,0.0,0.0,0.0,0.0,-2.6461,-2.8871,-3.089,-3.158,-3.2335,-3.2543,-3.1769,-3.1823,-3.2166,-3.2773,-3.2617,-3.2773,-3.3419,-3.3622,-3.3928,-3.4365,-3.3142,-3.2437,-3.2437,-3.3185,-3.3371,-3.29,-3.5791,-3.6927,-3.6303,-3.6945,0.0,-3.7276,-3.7936,-3.7881,-3.736,-3.7955,-3.7526,-3.6415,-3.703,-3.7643,-3.812,-3.6798,-3.6395,-3.6332,-3.4637,-3.4989,-3.6056,0.0,0.0,0.0,0.0,0.0,0.0,0.0,0.0,0.0,0.0,-0.9296,-1.1382,-1.3422,-1.5269,-1.6478,-1.6771,-1.4156,0.0,0.0,-1.1893,-1.345,-1.7909,-1.8871,-2.0351,-2.2598,-2.3373,-2.4002,-2.4495,-2.4336,-2.4336,-2.4495,-2.4336,-2.4336,-2.4513,-2.4923,-2.5385,-2.5881,-2.6274,-2.6737,-2.7156,-2.6761,-2.6488,-2.6269,-2.5456,-2.5151,-2.5151,-2.5151,-2.5151,-2.4972,-2.3755,-2.3354,-2.3365,-2.3476,-2.2901,-2.1713,0.0,0.0,0.0,0.0,0.0,0.0,0.0,0.0,0.0,0.0,0.0,0.0,0.0,0.0,-2.2221,0.0,0.0,-2.6466,-2.7737,-2.9806,-3.1552,-3.2439,-3.3652,-3.3971,-3.2695,-3.2832,-3.3125,-3.3358,-3.328,-3.3366,-3.377,-3.4174,-3.4596,-3.4972,-3.4733,-3.4257,-3.3512,-3.5383,-3.5863,-3.4717,-3.7761,-3.8891,-3.8102,-3.8505,-3.8689,-3.8707,-3.9111,-3.9294,-3.9313,-3.9735,-3.9441,-3.8689,-3.8689,-3.8927,-3.9184,-3.7973,-3.7496,-3.7349,-3.6214,-3.6517,-3.7331,0.0,0.0,0.0,0.0,0.0,0.0,0.0,0.0,0.0,0.0,-0.7552,-0.92,-1.1457,-1.3313,-1.4373,0.0,0.0,0.0,0.0,-1.3877,-1.5723,-1.8453,-2.062,-2.1951,-2.2325,-2.3566,-2.417,-2.4094,-2.3837,-2.3795,-2.3996,-2.3795,-2.3928,-2.4368,-2.5069,-2.5667,-2.6154,-2.6804,-2.7252,-2.7546,-2.7378,-2.7209,-2.6926,-2.5477,-2.4975,-2.5016,-2.4861,-2.4804,-2.4818,-2.4911,-2.4962,-2.4986,-2.516,-2.5192,-2.4319,-1.9764,-1.9763,0.0,0.0,0.0,0.0,0.0,0.0,0.0,0.0,0.0,-2.1932,-2.2745,-2.3853,-2.4869,-2.5523,-2.6629,-2.7934,-2.9508,-3.1033,-3.2355,-3.3273,-3.4414,-3.468,-3.3314,-3.3727,-3.4043,-3.3815,-3.3807,-3.3862,-3.4027,-3.4623,-3.5137,-3.5477,-3.6909,-3.6969,-3.5277,-3.8424,-3.924,-3.7396,-4.0013,-4.0946,-4.012,-4.012,-4.012,-4.012,-4.012,-4.012,-4.0175,-4.0836,-4.0744,-4.012,-3.9955,-3.99,-3.9808,-3.9019,-3.8707,-3.8707,-3.8707,-3.8707,-3.8707,0.0,0.0,0.0,0.0,0.0,0.0,0.0,0.0,0.0,0.0,0.0,0.0,0.0,0.0,0.0,0.0,0.0,0.0,-1.2386,-1.4008,-1.6622,-2.0403,-2.1752,-2.2759,-2.3487,-2.3964,-2.4036,-2.3774,-2.3714,-2.3566,-2.3323,-2.3566,-2.4093,-2.4842,-2.5226,-2.6211,-2.7573,-2.7647,-2.8128,-2.8736,-2.8021,-2.7303,-2.6567,-2.5685,-2.5558,-2.5759,-2.5054,-2.4804,-2.4804,-2.4832,-2.4814,-2.4832,-2.4861,-2.4861,-2.4298,-2.1463,0.0,-2.012,-1.5921,-1.4035,-1.3739,-1.5812,-1.8059,-2.0089,0.0,0.0,-2.7478,-2.7525,-2.9438,-3.1317,-3.2083,-3.3556,-3.4645,-3.4636,-3.4852,-3.4952,-3.4788,-3.432,-3.3915,-3.3732,-3.3787,-3.3842,-3.3788,-3.3807,-3.41,-3.4807,-3.4935,-3.5661,-3.7129,-3.8083,-3.8762,-3.9246,-4.0359,-4.0836,-4.0593,-4.1625,-4.1772,-4.0983,-4.0983,-4.0983,-4.0983,-4.0983,-4.0983,-4.0983,-4.1075,-4.1056,-4.0928,-4.0194,-3.99,-3.9808,-3.9019,-3.8707,-3.8707,-3.8707,-3.8707,-3.8707,0.0,0.0,0.0,0.0,0.0,0.0,0.0,0.0,0.0,0.0,0.0,0.0,0.0,0.0,0.0,0.0,0.0,0.0,-1.1659,-1.3319,-1.5958,-1.9786,-2.0846,-2.1777,-2.2692,-2.3311,-2.3544,-2.3414,-2.3212,-2.3141,-2.3189,-2.3141,-2.3389,-2.395,-2.4998,-2.5841,-2.6549,-2.7677,-2.8349,-2.8621,-2.8521,-2.8026,-2.72,-2.6392,-2.5908,-2.5299,-2.2629,-2.1656,0.0,0.0,-2.1832,-2.2171,-2.4167,-2.4179,-2.3139,-2.1475,-2.0709,0.0,-1.8326,-1.8392,-1.9279,0.0,-2.3157,-2.5504,-2.6712,-2.8724,-3.0501,-3.1089,-3.2444,-3.3719,-3.4404,-3.4423,-3.4701,0.0,-3.5221,-3.4759,-3.4972,-3.4697,-3.4156,-3.322,-3.1925,-3.15,-3.2484,-3.3316,-3.3787,-3.3795,-3.5009,-3.6468,-3.8102,-3.8524,-3.9276,-4.0561,-4.0928,-4.1332,-4.1791,-4.2598,-4.2598,-4.1809,-4.1809,-4.1809,-4.1809,-4.1809,-4.2047,-4.247,-4.2011,-4.2066,-4.2433,-4.1625,-4.1295,-4.1222,-4.0414,-4.0102,-3.9992,-3.9056,-3.8707,-3.8781,0.0,0.0,0.0,0.0,0.0,0.0,0.0,0.0,0.0,0.0,0.0,0.0,0.0,0.0,0.0,0.0,0.0,0.0,0.0,-1.3394,-1.5747,-1.9046,-2.0246,-2.115,-2.1879,-2.2753,-2.3141,-2.3069,-2.2822,-2.2789,-2.2958,-2.2772,-2.297,-2.3457,-2.4668,-2.5313,-2.563,-2.702,-2.7625,-2.7651,-2.8069,-2.773,-2.6944,-2.6463,-2.5366,-2.3695,-2.0526,-1.9383,0.0,0.0,-1.9026,-1.9885,-2.2239,-2.2609,-2.1913,-2.0586,-1.9569,-1.9052,-1.9938,0.0,0.0,-2.4741,-2.7154,-2.9476,-3.1053,-3.2038,-3.2974,-3.4204,-3.4759,-3.5198,-3.5847,-3.4971,-3.4617,-3.6048,-3.5202,-3.4518,-3.4945,-3.4605,-3.3752,-3.2194,-3.0346,-2.9368,-2.977,-3.1686,-3.3128,-3.379,-3.5367,-3.7,-3.8615,-3.9129,-3.99,-4.1075,-4.1534,-4.2047,-4.2635,-4.3204,-4.3204,-4.2635,-4.2415,-4.2415,-4.2635,-4.2635,-4.2947,-4.3461,-4.2873,-4.2947,-4.3424,-4.2635,-4.2304,-4.2213,-4.1423,-4.1111,-4.0965,-3.979,-3.9368,-3.946,0.0,0.0,0.0,0.0,0.0,0.0,0.0,0.0,0.0,0.0,0.0,0.0,0.0,0.0,0.0,0.0,0.0,0.0,0.0,-1.4881,-1.6689,-1.8816,-2.0611,-2.1576,-2.1611,-2.2658,-2.3045,-2.2721,-2.2695,-2.2563,-2.2321,-2.2573,-2.318,-2.3998,-2.431,-2.4867,-2.5585,-2.5664,-2.5681,-2.5707,-2.6039,-2.5723,-2.5018,-2.5319,-2.3511,-2.0714,-1.9763,0.0,0.0,0.0,-1.7302,-1.8856,-1.8507,-1.9758,0.0,-1.8807,-1.7169,-1.6704,0.0,0.0,-2.0923,-2.556,-2.7966,-2.9991,-3.3015,-3.4321,-3.5367,-3.703,-3.6754,-3.6479,-3.7287,-3.6754,-3.624,-3.6285,-3.555,-3.5,-3.499,-3.3652,-3.2139,-3.0631,-2.9731,-2.8128,0.0,-2.8372,-3.2101,-3.5909,-3.6248,-3.7,-3.8615,-4.0194,-4.1056,-4.1111,-4.2598,-4.3424,-4.3442,-4.3479,-4.3479,-4.3442,-4.2671,-4.2708,-4.3442,-4.3442,-4.3461,-4.3497,-4.3461,-4.3461,-4.3424,-4.2635,-4.2304,-4.2213,-4.1423,-4.1111,-4.1111,-4.1056,-4.1038,-4.1038,0.0,0.0,0.0,0.0,0.0,0.0,0.0,0.0,0.0,0.0,0.0,0.0,0.0,0.0,0.0,0.0,0.0,0.0,0.0,-1.2835,-1.4796,-1.7475,-1.9013,-2.003,-2.0542,-2.0881,-2.1284,-2.1685,-2.1685,-2.1922,-2.231,-2.2388,-2.259,-2.2907,-2.3481,-2.388,-2.4195,-2.4931,-2.525,-2.5304,-2.5628,-2.5428,-2.4689,-2.2636,-2.1352,-1.996,0.0,0.0,0.0,0.0,0.0,-1.4739,-1.6715,-1.75,-1.749,-1.6325,-1.7833,-1.9948,-2.0223,0.0,-2.6103,-2.8779,-3.1419,-3.3876,-3.5834,-3.6872,-3.7459,-3.7477,-3.5616,-3.4057,-3.4404,-3.2519,-3.1603,-3.3684,-3.2974,-3.2808,-3.4734,-3.1977,-3.0275,-3.1691,-2.8957,0.0,0.0,0.0,0.0,-3.2478,-3.4895,-3.7477,-4.0157,-4.0304,-4.1038,-4.2635,-4.269,-4.2947,-4.3479,-4.3497,-4.3497,-4.3497,-4.3222,-4.3222,-4.3497,-4.3497,-4.3497,-4.3497,-4.3497,-4.3497,-4.3461,-4.3204,-4.3094,-4.3057,-4.28,-4.269,-4.269,-4.269,-4.269,-4.2616,0.0,0.0,0.0,0.0,0.0,0.0,0.0,0.0,0.0,0.0,0.0,0.0,0.0,0.0,0.0,0.0,0.0,0.0,0.0,0.0,-1.3275,-1.5641,-1.687,-1.7834,-1.8586,-1.8927,-1.9545,-2.0492,-2.0567,-2.0901,-2.1471,-2.1471,-2.1471,-2.1488,-2.1989,-2.2192,-2.2237,-2.2973,-2.3271,-2.3273,-2.3133,-2.2878,-2.2339,-1.9885,-1.8528,0.0,0.0,0.0,0.0,0.0,0.0,-1.2691,-1.4602,-1.5106,-1.5177,-1.6232,-1.8529,-2.1006,-2.2401,-2.6007,-2.9919,-3.2384,-3.4733,-3.6734,-3.7794,-3.7981,-3.7776,-3.7191,-3.4669,-3.2327,-3.1647,-2.9798,-2.8968,-3.0789,-3.0559,-3.1098,-3.376,-3.1404,-3.0015,-3.1617,-2.9235,-2.8406,0.0,0.0,0.0,-3.147,-3.4284,-3.6998,-3.9326,-3.954,-4.067,-4.2983,-4.2837,-4.2983,-4.3479,-4.3497,-4.3497,-4.3497,-4.3497,-4.3497,-4.3497,-4.3497,-4.307,-4.2359,-4.3162,-4.3051,-4.2378,-4.318,-4.3497,-4.3497,-4.3497,-4.3497,-4.3497,-4.3497,-4.3497,-4.3424,0.0,0.0,0.0,0.0,0.0,0.0,0.0,0.0,0.0,0.0,0.0,0.0,0.0,0.0,0.0,0.0,0.0,0.0,0.0,0.0,0.0,-1.3546,-1.4389,-1.5191,-1.5958,-1.6893,-1.789,-1.896,-1.9194,-1.9519,-1.9858,-1.9807,-1.9807,-1.9841,-1.9807,-1.9807,-1.9807,-1.9807,-1.9807,-1.9721,-1.876,-1.8366,-1.8266,-1.7074,0.0,0.0,0.0,0.0,0.0,0.0,0.0,0.0,0.0,-1.2988,-1.432,-1.8298,-1.9298,-2.0365,-2.6041,-2.9414,-3.2249,-3.6133,-3.7633,-3.8267,-3.8726,-3.7646,-3.6396,-3.5985,-3.365,-3.1057,0.0,0.0,-2.805,-2.7787,-2.8442,-2.9817,-3.2199,-3.1831,-3.1096,0.0,0.0,0.0,0.0,0.0,0.0,-3.3072,0.0,-3.5929,-3.6756,-3.8294,-4.0141,-4.2286,-4.3094,-4.3497,-4.3497,-4.3497,-4.3497,-4.3497,-4.3497,-4.3497,-4.3497,-4.3497,-4.2359,-4.0481,-4.2584,-4.2304,-4.0537,-4.264,-4.3497,-4.3497,-4.3497,-4.3497,-4.3497,-4.3497,-4.3497,-4.3497,0.0,0.0,0.0,0.0,0.0,0.0,0.0,0.0,0.0,0.0,0.0,0.0,0.0,0.0,0.0,0.0,0.0,0.0,0.0,0.0,0.0,0.0,0.0,0.0,0.0,0.0,0.0,0.0,0.0,-1.728,-1.7893,-1.73,-1.7334,-1.7893,-1.73,-1.7021,-1.7021,-1.7021,-1.7021,-1.6986,0.0,-1.6765,-1.6632,0.0,0.0,0.0,0.0,0.0,0.0,0.0,0.0,0.0,0.0,-1.6871,-1.7294,-1.8589,-2.2399,-2.6395,-2.7238,-3.1515,-3.6156,-3.7808,-3.7912,-3.7504,-3.6893,-3.6025,-3.4413,-3.1102,-2.8027,-2.5488,0.0,0.0,0.0,-2.6339,-2.6463,0.0,-3.1362,-3.0801,0.0,-3.2094,0.0,-3.3013,-3.4961,-3.6417,0.0,0.0,-3.6999,-3.8725,-4.0712,-4.1227,-4.1967,-4.3149,-4.3387,-4.3497,-4.3497,-4.3497,-4.3497,-4.3497,-4.3497,-4.3497,-4.3497,-4.3497,-4.3198,-4.2695,-4.3256,-4.3198,-4.2713,-4.3256,-4.3497,-4.3497,-4.3497,-4.3497,-4.3497,-4.3497,-4.3497,-4.3497,0.0,0.0,0.0,0.0,0.0,0.0,0.0,0.0,0.0,0.0,0.0,0.0,0.0,0.0,0.0,0.0,0.0,0.0,0.0,0.0,0.0,0.0,0.0,0.0,0.0,0.0,0.0,0.0,0.0,0.0,0.0,-1.5749,-1.5993,-1.6729,-1.6291,-1.6098,-1.6098,-1.6098,0.0,0.0,0.0,0.0,0.0,0.0,0.0,0.0,0.0,0.0,0.0,0.0,0.0,-1.6185,-1.9573,-2.0743,-2.1242,-2.3553,0.0,-3.0214,-3.1242,-3.4727,-3.8191,-3.8648,-3.7991,-3.6689,-3.4758,-3.2947,-3.0734,-2.7266,-2.4487,0.0,-2.0578,0.0,0.0,0.0,0.0,0.0,-2.9628,-3.0008,-3.0532,0.0,-3.3308,0.0,-3.7764,-3.9074,-3.9577,0.0,-3.8918,-3.9423,-4.0775,-4.1193,-4.2014,-4.3442,-4.3497,-4.3497,-4.3497,-4.3497,-4.3497,-4.3497,-4.3497,-4.3497,-4.3497,-4.3497,-4.2959,-4.2115,-4.3088,-4.2941,-4.2134,-4.3106,-4.3497,-4.3497,-4.3497,-4.3497,-4.3497,-4.3497,-4.3497,-4.3497,0.0,0.0,0.0,0.0,0.0,0.0,0.0,0.0,0.0,0.0,0.0,0.0,0.0,0.0,0.0,0.0,0.0,0.0,0.0,0.0,0.0,0.0,0.0,0.0,0.0,0.0,0.0,0.0,0.0,0.0,0.0,0.0,0.0,0.0,0.0,0.0,0.0,0.0,0.0,0.0,0.0,0.0,0.0,0.0,0.0,0.0,0.0,0.0,0.0,0.0,-1.7506,-1.8877,-2.2962,-2.4569,-2.5764,-2.9884,-3.1618,-3.2821,-3.5773,-3.7818,-3.9106,-3.9005,-3.7804,-3.5851,-3.2887,-2.97,-2.6679,-2.4218,0.0,-2.0191,-1.8507,-1.9216,-2.053,-2.2006,0.0,-2.6043,-2.7399,-2.9442,-3.0999,-3.1496,-3.3777,-3.626,-3.8793,-4.0024,-4.1162,-4.2359,-4.0702,-3.96,-3.9608,-4.0267,-4.1527,-4.3458,-4.3497,-4.3497,-4.3497,-4.3497,-4.3497,-4.3497,-4.3497,-4.3497,-4.3497,-4.3497,-4.247,-4.0748,-4.2677,-4.2415,-4.0785,-4.2699,-4.3497,-4.3497,-4.3497,-4.3497,-4.3497,-4.3497,-4.3497,-4.3497,0.0,0.0,0.0,0.0,0.0,0.0,0.0,0.0,0.0,0.0,-0.4728,-0.5016,0.0,0.0,0.0,0.0,0.0,0.0,0.0,0.0,0.0,0.0,0.0,0.0,0.0,0.0,0.0,0.0,0.0,0.0,0.0,0.0,0.0,0.0,0.0,0.0,0.0,0.0,0.0,0.0,0.0,0.0,0.0,0.0,0.0,0.0,0.0,0.0,0.0,0.0,-1.8395,-2.1849,-2.5846,-2.8403,-3.0037,-3.0475,-3.3104,-3.5807,-3.5335,-3.75,-3.9749,-3.914,-3.7398,-3.5209,-3.2832,-2.9109,0.0,0.0,-1.9619,-1.8324,-1.8627,-1.8961,-2.0368,-2.387,0.0,0.0,0.0,0.0,-3.208,0.0,0.0,0.0,0.0,0.0,0.0,0.0,-4.2959,-4.2702,-4.2702,-4.2831,-4.3106,-4.3479,-4.3497,-4.3497,-4.3497,-4.3497,-4.3497,-4.3497,-4.3497,-4.3497,-4.3497,-4.3497,-4.3293,-4.2941,-4.333,0.0,-4.2975,-4.3348,-4.3497,-4.3497,-4.3497,-4.3497,-4.3497,-4.3497,-4.3497,-4.3497,0.0,0.0,0.0,0.0,0.0,0.0,0.0,-0.4875,-0.4888,-0.4853,-0.4827,-0.4955,-0.5332,-0.5031,0.0,0.0,0.0,0.0,0.0,0.0,0.0,0.0,0.0,0.0,0.0,0.0,0.0,0.0,0.0,0.0,0.0,0.0,0.0,0.0,0.0,0.0,0.0,0.0,0.0,0.0,0.0,0.0,0.0,0.0,0.0,0.0,0.0,0.0,0.0,0.0,-1.7736,-2.1221,-2.6239,-2.9634,-3.1828,-3.2196,-3.4738,-3.7204,-3.6353,-3.8069,-3.9715,-3.821,-3.6146,-3.3313,-2.8955,0.0,0.0,0.0,-1.6666,-1.6103,-1.6483,0.0,0.0,0.0,0.0,0.0,0.0,0.0,0.0,0.0,0.0,0.0,0.0,0.0,0.0,-4.1643,-4.176,-4.2286,-4.3458,-4.3497,-4.3497,-4.3497,-4.3497,-4.3497,-4.3497,-4.3497,-4.3497,-4.3497,-4.3497,-4.3497,-4.3497,-4.3497,-4.3497,-4.3497,-4.3497,-4.2846,-4.187,-4.3015,-4.2827,-4.1907,-4.3051,-4.3497,-4.3497,-4.3497,-4.3497,-4.3497,0.0,0.0,0.0,0.0,0.0,0.0,0.0,-0.4987,-0.4976,-0.4903,-0.4894,-0.487,-0.4801,-0.4805,-0.5143,0.0,0.0,0.0,0.0,0.0,0.0,0.0,0.0,0.0,0.0,0.0,0.0,-1.0836,0.0,0.0,0.0,0.0,0.0,0.0,0.0,0.0,0.0,0.0,0.0,0.0,0.0,0.0,0.0,0.0,0.0,0.0,0.0,0.0,0.0,0.0,-1.6664,-1.9309,-2.4591,-2.8578,-3.1627,-3.3029,-3.5283,-3.7359,-3.7603,-3.8751,-3.936,-3.7297,-3.4962,-3.1681,-2.5954,-2.2563,0.0,0.0,-1.4946,-1.4897,-1.5335,0.0,0.0,0.0,0.0,0.0,0.0,0.0,0.0,0.0,0.0,0.0,0.0,0.0,0.0,-4.0848,-4.0903,-4.1662,-4.3422,-4.3497,-4.3497,-4.3497,-4.3497,-4.3497,-4.3497,-4.3497,-4.3497,-4.3497,-4.3497,-4.3497,-4.3497,-4.3497,-4.3497,-4.3497,-4.3497,-4.223,-4.0381,-4.2584,-4.2207,-4.0436,-4.264,-4.3497,-4.3497,-4.3497,-4.3497,-4.3497,0.0,0.0,0.0,0.0,0.0,0.0,0.0,-0.4928,-0.4976,-0.4903,-0.4894,-0.487,-0.4801,-0.4849,-0.5194,0.0,0.0,0.0,0.0,0.0,0.0,0.0,0.0,0.0,0.0,0.0,0.0,-1.1956,-1.3578,0.0,0.0,0.0,0.0,0.0,0.0,-1.4095,0.0,0.0,0.0,0.0,0.0,0.0,0.0,0.0,0.0,0.0,0.0,0.0,0.0,0.0,0.0,-1.7255,-2.0298,-2.4453,-2.8694,-3.1039,0.0,0.0,-3.8214,-3.8986,-3.8717,-3.7178,-3.4556,-3.1404,-2.7587,0.0,0.0,-1.7772,-1.6399,-1.6169,-1.807,-1.9129,-2.0474,0.0,0.0,-2.2844,0.0,0.0,0.0,0.0,0.0,0.0,0.0,0.0,0.0,-4.2996,-4.3217,-4.3275,-4.3479,-4.3497,-4.3497,-4.3497,-4.3497,-4.3497,-4.3497,-4.3497,-4.3497,-4.3497,-4.3497,-4.3497,-4.3497,-4.3497,-4.3497,-4.3497,-4.3497,-4.223,0.0,-4.2584,-4.2207,-4.0436,-4.264,-4.3497,-4.3497,-4.3497,-4.3497,-4.3497,0.0,0.0,0.0,0.0,0.0,0.0,-0.4928,-0.5,-0.5046,-0.4973,-0.4956,-0.4916,-0.4805,-0.4856,-0.5014,0.0,0.0,0.0,0.0,0.0,0.0,0.0,0.0,0.0,0.0,0.0,0.0,-1.2095,-1.3233,0.0,0.0,0.0,0.0,0.0,0.0,-1.4316,-1.404,0.0,0.0,0.0,0.0,0.0,0.0,0.0,0.0,0.0,0.0,0.0,0.0,0.0,0.0,0.0,-1.6395,-1.8763,0.0,0.0,-2.9704,-3.3158,-3.4116,-3.6328,-3.7753,-3.5351,-3.3508,-3.0815,-2.5114,0.0,0.0,-1.6409,-1.5329,-1.538,-1.6682,-1.7594,-1.8901,-2.1243,0.0,0.0,0.0,0.0,0.0,0.0,0.0,0.0,0.0,0.0,-4.0211,-4.1434,-4.1527,-4.2078,-4.344,-4.3497,-4.3497,-4.3497,-4.3497,-4.3497,-4.3497,-4.3497,-4.3497,-4.3497,-4.3497,-4.3497,-4.3497,-4.3497,-4.3497,-4.3497,-4.3497,-4.1527,0.0,-4.2041,-4.1434,-3.8618,-4.2134,-4.3497,-4.3497,-4.3497,-4.3497,-4.3497,0.0,0.0,0.0,0.0,0.0,-0.5019,-0.5008,-0.505,-0.5083,-0.5,-0.5,-0.496,-0.4835,-0.4867,-0.4997,-0.526,0.0,0.0,0.0,0.0,0.0,0.0,0.0,0.0,0.0,0.0,0.0,-1.2095,-1.2913,-1.3721,0.0,0.0,-1.4488,-1.4488,0.0,0.0,0.0,0.0,0.0,0.0,0.0,0.0,0.0,0.0,0.0,0.0,0.0,0.0,0.0,0.0,0.0,0.0,0.0,0.0,0.0,0.0,-2.5949,-2.9868,-3.0797,-3.3722,-3.6011,-3.366,-3.1873,-2.9157,0.0,0.0,0.0,-1.5231,-1.4873,-1.5368,-1.5949,-1.6922,-1.8291,-2.0367,0.0,-2.3345,0.0,0.0,0.0,0.0,0.0,0.0,0.0,0.0,-4.1169,-4.1169,-4.1169,-4.1852,-4.3422,-4.3497,-4.3497,-4.3497,-4.3497,-4.3497,-4.3497,-4.3497,-4.3497,-4.3497,-4.3497,-4.3162,-4.2548,-4.3217,-4.3143,-4.2548,-4.3201,-4.1379,0.0,-4.1963,-4.1317,-3.8334,-4.2041,-4.3497,-4.3497,-4.3497,-4.3497,-4.3497,0.0,0.0,0.0,0.0,0.0,0.0,-0.5014,-0.5063,-0.5083,-0.5,-0.5,-0.4975,-0.4897,-0.4894,-0.5238,-0.6109,0.0,0.0,0.0,0.0,0.0,0.0,0.0,0.0,0.0,0.0,0.0,-1.2095,-1.2913,-1.3721,-1.4488,-1.4488,-1.4488,-1.4488,0.0,0.0,0.0,0.0,0.0,0.0,0.0,0.0,0.0,0.0,0.0,0.0,0.0,0.0,0.0,0.0,0.0,0.0,0.0,0.0,0.0,0.0,-2.2521,-2.6194,-2.9489,-3.189,-3.3271,-3.2493,-2.9666,-2.6107,0.0,0.0,0.0,-1.4922,-1.5771,-1.689,-1.689,-1.8207,-1.9689,-2.0982,-2.1927,0.0,0.0,0.0,0.0,0.0,0.0,0.0,0.0,0.0,-4.3461,-4.3461,-4.3461,0.0,-4.3497,-4.3497,-4.3497,-4.3497,-4.3497,-4.3497,-4.3497,-4.3497,-4.3497,-4.3497,-4.3497,-4.2359,-4.0306,-4.2492,-4.2304,-4.0362,-4.2548,-4.2212,0.0,-4.2584,-4.2189,-4.0399,-4.264,-4.3497,-4.3497,-4.3497,-4.3497,-4.3497,0.0,0.0,0.0,0.0,0.0,0.0,0.0,-0.5087,-0.5093,-0.5081,-0.5022,-0.4975,-0.4897,-0.5353,-0.5808,-0.6162,0.0,0.0,0.0,0.0,0.0,0.0,0.0,0.0,0.0,0.0,-1.0737,-1.2095,-1.2352,-1.3178,-1.4488,-1.4488,-1.4488,-1.4499,-1.4611,0.0,0.0,0.0,0.0,0.0,0.0,0.0,0.0,0.0,0.0,0.0,0.0,0.0,0.0,0.0,0.0,0.0,0.0,0.0,0.0,0.0,0.0,0.0,-2.3649,-2.5882,-2.7425,-2.6148,-2.4965,-2.3215,-1.9691,0.0,0.0,-1.4922,-1.5343,-1.6261,-1.6798,-1.7784,-1.9086,-2.091,-2.1927,0.0,0.0,0.0,0.0,0.0,0.0,0.0,0.0,0.0,-4.187,-4.3403,-4.2097,-4.1907,-4.344,-4.3497,-4.3497,-4.3497,-4.3497,-4.3497,-4.3497,-4.3497,-4.3497,-4.3497,-4.3497,-4.2341,-4.0269,-4.2474,-4.2286,-4.0325,-4.2529,-4.223,-4.0381,-4.2584,-4.2207,-4.0436,-4.264,-4.3497,-4.3497,-4.3497,-4.325,-4.3014,0.0,0.0,0.0,0.0,0.0,0.0,0.0,-0.5091,-0.5097,-0.5097,-0.5039,-0.5117,-0.5405,-0.5789,-0.6338,-0.7117,0.0,0.0,0.0,0.0,0.0,0.0,0.0,0.0,0.0,-0.9698,-1.0341,-1.1654,-1.1948,-1.2774,-1.4059,-1.4371,-1.4488,-1.4517,-1.4645,0.0,0.0,0.0,0.0,0.0,0.0,0.0,-1.4015,0.0,0.0,0.0,0.0,0.0,0.0,0.0,0.0,0.0,0.0,0.0,0.0,0.0,-1.6073,0.0,0.0,-2.1993,-2.3598,-2.2606,-2.1814,0.0,0.0,0.0,0.0,0.0,-1.5754,-1.6893,-1.6899,-1.8194,-1.9552,-2.0442,-2.2384,0.0,0.0,0.0,0.0,0.0,0.0,0.0,0.0,-4.188,-4.2004,-4.3403,-4.2226,-4.2041,-4.344,-4.3497,-4.3497,-4.3497,-4.3497,-4.3497,-4.3497,-4.3497,-4.3497,-4.3497,-4.3497,-4.2341,-4.0269,-4.2474,-4.2286,-4.0325,-4.2529,-4.2732,0.0,-4.2938,-4.2695,-4.1569,-4.2941,-4.3497,-4.3497,-4.325,-4.2976,-4.2711,0.0,0.0,0.0,0.0,0.0,0.0,0.0,0.0,-0.5116,-0.5174,-0.5127,-0.5415,-0.6285,-0.632,-0.6951,-0.8654,0.0,0.0,0.0,0.0,0.0,0.0,0.0,0.0,0.0,-0.9698,-1.0094,-1.0893,-1.1654,-1.2472,-1.3317,-1.4059,-1.4462,-1.4517,-1.4645,0.0,0.0,0.0,0.0,0.0,0.0,0.0,0.0,0.0,0.0,0.0,0.0,0.0,0.0,0.0,0.0,0.0,0.0,0.0,0.0,0.0,0.0,0.0,0.0,0.0,0.0,0.0,0.0,0.0,0.0,0.0,0.0,0.0,0.0,0.0,0.0,-1.9469,-2.1041,-1.9896,0.0,0.0,0.0,0.0,0.0,0.0,0.0,0.0,-4.0694,-4.2488,-4.3497,-4.3497,-4.3497,-4.3497,-4.3497,-4.3497,-4.3497,-4.3497,-4.3497,-4.3497,-4.3497,-4.3497,-4.3458,-4.3348,-4.3458,-4.2286,-4.016,-4.2451,-4.2286,0.0,-4.2529,-4.3497,-4.3497,-4.3497,-4.3497,-4.3497,-4.3444,-4.3444,-4.3375,-4.2864,-4.2616,-4.248,0.0,0.0,0.0,0.0,0.0,0.0,0.0,0.0,0.0,0.0,-0.5954,-0.6222,-0.7053,-0.7655,-0.8199,0.0,0.0,0.0,0.0,0.0,0.0,0.0,0.0,0.0,0.0,-0.9698,-1.0094,-1.0893,-1.1095,-1.1911,-1.3298,-1.35,-1.3912,-1.4499,-1.4747,0.0,0.0,0.0,0.0,0.0,0.0,0.0,0.0,0.0,0.0,0.0,-1.4782,-1.4694,0.0,0.0,0.0,0.0,0.0,0.0,0.0,0.0,-1.4488,-1.4641,-1.5304,0.0,-1.6197,-1.6197,-1.5841,0.0,0.0,0.0,0.0,0.0,0.0,0.0,0.0,0.0,0.0,0.0,0.0,0.0,0.0,0.0,0.0,0.0,0.0,0.0,-3.963,-4.194,-4.3497,-4.3497,-4.3497,-4.3497,-4.3497,-4.3497,-4.3497,-4.3497,-4.3497,-4.3497,-4.3497,-4.3497,-4.2971,-4.1983,-4.3008,-4.1816,-3.8765,-4.2013,-4.2286,-4.0325,-4.2529,-4.3497,-4.3497,-4.3497,-4.3497,-4.3444,-4.305,-4.2902,-4.2808,-4.2244,-4.1707,-4.1358,0.0,0.0,0.0,0.0,0.0,0.0,0.0,0.0,0.0,0.0,0.0,0.0,0.0,0.0,0.0,0.0,0.0,0.0,0.0,0.0,0.0,0.0,0.0,0.0,-0.9706,-0.9698,-1.0094,-1.0893,-1.126,-1.2095,-1.3298,-1.3684,-1.4121,-1.4592,-1.484,0.0,0.0,0.0,0.0,0.0,-1.5088,0.0,0.0,0.0,0.0,0.0,-1.4973,-1.4957,0.0,-1.4371,-1.4083,-1.3945,0.0,0.0,0.0,0.0,-1.4488,-1.4488,-1.4488,-1.4488,-1.4739,-1.5674,-1.5213,-1.4855,0.0,0.0,0.0,0.0,0.0,0.0,0.0,0.0,0.0,0.0,0.0,0.0,0.0,0.0,0.0,0.0,0.0,-3.9315,0.0,-4.1702,-4.325,-4.3479,-4.3497,-4.3497,-4.3497,-4.3497,-4.3497,-4.3497,-4.3497,-4.3497,-4.3497,-4.3497,-4.2834,-4.1526,-4.2838,-4.2192,-3.981,-4.2332,-4.2846,-4.1723,-4.2187,-4.2818,-4.3424,-4.269,-4.2681,-4.3087,-4.2826,-4.2519,-4.2203,-4.1621,-4.1178,-4.0903,0.0,0.0,0.0,0.0,0.0,0.0,0.0,0.0,0.0,0.0,0.0,0.0,0.0,0.0,0.0,0.0,0.0,0.0,0.0,0.0,0.0,0.0,0.0,-0.9845,-0.9882,-0.9753,-1.0149,-1.1077,-1.1636,-1.2388,-1.3317,-1.4004,-1.446,-1.4728,-1.479,-1.4967,0.0,0.0,0.0,0.0,-1.5177,0.0,0.0,0.0,0.0,0.0,0.0,0.0,0.0,-1.4942,-1.482,-1.4687,-1.4554,0.0,0.0,0.0,0.0,0.0,-1.4488,-1.4602,-1.5178,-1.712,-1.6163,-1.546,0.0,0.0,0.0,0.0,0.0,0.0,0.0,0.0,0.0,0.0,0.0,0.0,0.0,0.0,0.0,0.0,0.0,0.0,-3.9586,-4.1645,-4.2976,-4.3339,-4.3444,-4.3444,-4.3375,-4.3463,-4.3497,-4.3497,-4.3497,-4.3497,-4.3497,-4.3497,-4.2834,-4.1526,-4.2838,-4.2797,-4.1564,-4.2894,-4.3497,-4.3406,-4.2066,-4.2197,-4.3265,-4.1928,-4.185,-4.2559,-4.248,-4.2121,-4.1578,-4.1013,-4.078,-4.072,0.0,0.0,0.0,0.0,0.0,0.0,0.0,0.0,0.0,0.0,0.0,0.0,0.0,0.0,0.0,0.0,0.0,0.0,0.0,0.0,0.0,0.0,-0.9863,-1.0154,-1.07,-1.0047,-1.0433,-1.1911,-1.1352,-1.1838,-1.3298,-1.3427,-1.3967,-1.484,-1.4244,-1.4444,-1.5189,-1.5189,-1.5189,-1.5183,-1.5082,0.0,0.0,0.0,0.0,0.0,0.0,0.0,0.0,-1.5156,-1.5244,-1.5551,-1.4754,0.0,0.0,0.0,0.0,0.0,-1.4488,-1.5092,-1.5979,-1.7277,-1.672,-1.6402,-1.8486,0.0,0.0,0.0,0.0,0.0,0.0,0.0,0.0,0.0,0.0,0.0,0.0,0.0,0.0,0.0,0.0,-4.0619,-3.8615,-4.1437,-4.3214,-4.2864,-4.325,-4.3286,-4.2864,-4.325,-4.3497,-4.3497,-4.3497,-4.3497,-4.3497,-4.3497,-4.2834,-4.1526,-4.2838,-4.2797,-4.1564,-4.2894,-4.3497,-4.3479,-4.3222,-4.3031,-4.2808,-4.2573,-4.2246,-4.1895,-4.1402,-4.1133,-4.0949,-4.0417,-4.0204,-4.0289,0.0,0.0,0.0,0.0,0.0,0.0,0.0,0.0,0.0,0.0,0.0,0.0,0.0,0.0,0.0,0.0,0.0,0.0,0.0,0.0,0.0,-0.9798,-1.0261,-1.0621,-1.0893,-1.0553,-1.114,-1.2747,-1.1948,-1.2419,-1.4068,-1.4176,-1.4478,-1.4946,-1.4672,-1.4794,-1.5209,-1.5127,-1.5088,-1.5082,0.0,0.0,0.0,0.0,0.0,0.0,0.0,0.0,0.0,0.0,-1.5363,-1.5162,-1.5228,0.0,0.0,0.0,0.0,0.0,-1.4488,-1.4924,-1.6038,-1.8838,-1.81,-1.7752,-2.1843,0.0,0.0,0.0,0.0,0.0,0.0,0.0,0.0,0.0,0.0,0.0,0.0,0.0,-3.5652,0.0,0.0,-3.9407,-3.8846,-4.1071,-4.2483,-4.2244,-4.2752,-4.2976,-4.2711,-4.3214,-4.3497,-4.3497,-4.3497,-4.3497,-4.3497,-4.3497,-4.2834,-4.1526,-4.2838,-4.2797,-4.1564,-4.2894,-4.3497,-4.3442,-4.223,-4.2068,-4.26,-4.1429,-4.1091,-4.1313,-4.0995,-4.0733,-4.0449,-4.0204,-4.007,-4.0189,0.0,0.0,0.0,0.0,0.0,0.0,0.0,0.0,0.0,0.0,0.0,0.0,0.0,0.0,0.0,0.0,0.0,0.0,0.0,0.0,-0.9916,-0.9798,-1.0569,-1.1033,-1.1168,-1.1187,-1.1875,-1.3298,-1.2704,-1.3216,-1.4756,-1.4733,-1.4816,-1.4995,-1.4929,-1.5016,-1.5189,-1.5068,-1.4995,-1.498,0.0,0.0,0.0,0.0,0.0,0.0,0.0,0.0,0.0,0.0,0.0,0.0,0.0,0.0,0.0,-1.4677,-1.4622,-1.4499,-1.4545,-1.4848,-1.6086,-1.986,0.0,-1.8908,-2.4965,0.0,0.0,0.0,0.0,0.0,0.0,0.0,0.0,0.0,0.0,0.0,-3.7533,-3.7068,-3.7182,-3.867,-3.8411,-3.8564,-3.9626,-4.098,-4.181,-4.181,-4.2342,-4.2711,-4.2711,-4.3087,-4.3321,-4.3321,-4.3321,-4.3321,-4.3321,-4.3321,-4.2852,-4.1983,-4.2889,-4.2834,-4.1989,-4.2907,-4.3321,-4.3212,-4.1524,-4.1369,-4.2154,-4.0435,-4.0132,-4.0685,-4.0685,-4.0449,-4.007,-4.007,-4.0189,-4.0426,0.0,0.0,0.0,0.0,0.0,0.0,0.0,0.0,0.0,0.0,0.0,0.0,0.0,0.0,0.0,0.0,0.0,0.0,0.0,0.0,-0.9811,-0.9798,-1.0518,-1.1251,-1.2003,-1.2003,-1.2453,-1.3298,-1.3374,-1.3905,-1.4876,-1.4206,-1.4282,-1.4976,-1.4289,-1.444,-1.5189,-1.5068,-1.4995,-1.4973,-1.4785,0.0,0.0,0.0,0.0,0.0,0.0,0.0,0.0,0.0,0.0,0.0,0.0,0.0,-1.4697,-1.4707,-1.4622,-1.4522,-1.4656,-1.5329,-1.6591,-1.9021,-1.8642,0.0,-2.5897,-2.3452,0.0,0.0,0.0,0.0,0.0,0.0,0.0,0.0,0.0,-3.5669,-3.9446,0.0,-4.0327,-4.0697,-4.1156,-4.1261,-4.0854,-4.1385,-4.181,-4.181,-4.2342,-4.2711,-4.2711,-4.275,-4.275,-4.275,-4.275,-4.275,-4.275,-4.275,-4.2959,-4.3348,-4.2959,-4.2959,-4.3348,-4.2922,-4.275,-4.2732,-4.2585,-4.1955,-4.1024,-4.0874,-4.0521,-4.0171,-4.0171,-4.0121,-4.007,-4.007,-4.0527,-4.1136,0.0,0.0,0.0,0.0,0.0,0.0,0.0,0.0,0.0,0.0,0.0,0.0,0.0,0.0,0.0,0.0,0.0,0.0,0.0,0.0,-1.0005,-1.0455,-1.1232,-1.2021,-1.2839,-1.2858,-1.3284,-1.4171,-1.4341,-1.4361,-1.4228,-1.4539,-1.482,-1.5108,-1.4744,-1.4769,-1.5049,-1.489,-1.4856,-1.4917,-1.4757,-1.4785,0.0,0.0,0.0,0.0,0.0,0.0,0.0,0.0,-1.485,-1.4995,0.0,-1.4645,-1.4581,-1.4677,-1.4955,-1.5269,-1.5402,-1.6127,-1.7635,-2.096,0.0,0.0,0.0,0.0,0.0,0.0,0.0,0.0,0.0,0.0,0.0,0.0,0.0,-3.7189,-3.9599,-4.0026,-4.0279,-4.0863,-4.1087,-4.1133,-4.0903,-4.0697,-4.06,-4.0733,-4.0394,-4.0405,-4.0856,-4.125,-4.1471,-4.1471,-4.2268,-4.2519,-4.2162,-4.2519,-4.2598,-4.2426,-4.2244,-4.2244,-4.2444,-4.2244,-4.2121,-4.2121,-4.175,-4.1313,-4.0856,-4.0528,-4.0286,-4.007,-4.007,-4.007,-4.007,-4.007,-4.0257,-4.051,0.0,0.0,0.0,0.0,0.0,0.0,0.0,0.0,0.0,0.0,0.0,0.0,0.0,0.0,0.0,0.0,0.0,0.0,0.0,-0.9789,-0.9998,-1.0498,-1.1544,-1.2352,-1.2913,-1.3461,-1.3799,-1.3905,-1.4111,-1.4214,-1.4252,-1.4908,-1.5177,-1.5133,0.0,0.0,0.0,-1.484,-1.4813,-1.4895,-1.4756,-1.4756,0.0,0.0,0.0,0.0,0.0,0.0,0.0,0.0,-1.4603,0.0,0.0,0.0,-1.4626,-1.4982,-1.5369,-1.5766,-1.6172,-1.6774,-1.8181,0.0,0.0,0.0,0.0,0.0,0.0,0.0,0.0,0.0,0.0,0.0,0.0,0.0,-3.5469,-3.7032,-3.8824,-3.9274,-3.9662,-4.0208,-4.0435,-4.0568,-4.0638,-3.9984,-3.9684,-3.9993,-3.9215,-3.899,-3.9704,-3.9937,-4.0169,-4.0415,-4.1298,-4.1689,-4.1534,-4.1937,-4.1937,-4.1534,-4.1313,-4.1464,-4.1793,-4.1621,-4.1534,-4.149,-4.1087,-4.0827,-4.0607,-4.0237,-4.007,-4.007,-4.007,-4.007,-4.007,-4.007,-4.007,-4.007,0.0,0.0,0.0,0.0,0.0,0.0,0.0,0.0,0.0,0.0,0.0,0.0,0.0,0.0,0.0,0.0,0.0,0.0,0.0,-0.9751,-0.9717,-0.9717,-1.1259,-1.2113,-1.2113,-1.381,-1.3886,-1.2232,-1.2425,-1.3442,-1.5209,-1.5209,-1.5127,-1.4995,0.0,0.0,0.0,0.0,-1.4914,-1.4895,-1.4756,-1.4707,-1.4614,0.0,0.0,0.0,0.0,0.0,0.0,0.0,-1.46,-1.4707,0.0,0.0,0.0,-1.5681,-1.582,-1.5913,-1.6861,-1.7221,-1.8057,0.0,0.0,0.0,0.0,0.0,0.0,0.0,0.0,-3.5619,-3.3485,0.0,0.0,-3.3458,-3.374,-3.4777,-3.717,-3.8166,-3.8767,-3.8967,-3.9461,-3.9876,-4.0069,-3.9394,-3.9211,-3.9749,-3.9093,-3.8919,-3.9532,-3.9021,-3.9024,-3.9742,-3.9777,-4.0141,-4.0868,-4.0886,-4.0886,-4.0903,-4.0351,-4.0672,-4.175,-4.1178,-4.0903,-4.0903,-4.0903,-4.0577,-4.007,-4.007,-4.007,-4.007,-4.007,-4.007,-4.007,-4.007,-4.007,-4.007,0.0,0.0,0.0,0.0,0.0,0.0,0.0,0.0,0.0,0.0,0.0,0.0,0.0,0.0,0.0,0.0,0.0,0.0,0.0,-1.0239,-1.081,-1.1361,-1.2398,-1.3196,-1.3783,-1.3789,-1.3896,-1.409,-1.4166,-1.446,-1.4984,-1.4984,-1.4968,-1.4965,0.0,0.0,0.0,0.0,-1.5478,-1.4812,-1.5341,-1.5218,-1.4744,0.0,0.0,0.0,0.0,0.0,0.0,0.0,0.0,0.0,0.0,0.0,0.0,-1.6599,-1.6838,-1.6945,-1.8782,-1.9101,0.0,0.0,0.0,0.0,0.0,0.0,0.0,0.0,0.0,-3.2762,-3.1345,0.0,0.0,-3.3387,-3.4255,-3.5545,-3.6842,-3.7183,-3.758,-3.8142,-3.8384,-3.8469,-3.8531,-3.7872,-3.7729,-3.8427,-3.7251,-3.683,-3.76,-3.7456,-3.7485,-3.766,-3.856,-3.8939,-3.8785,-3.9163,-3.9422,-3.9552,-3.8882,-3.9251,-4.0594,-4.0417,-4.0336,-4.0336,-4.0336,-4.0254,-4.007,-4.007,-4.007,-4.007,-4.007,-4.007,-4.007,-4.007,-4.007,-4.007,0.0,0.0,0.0,0.0,0.0,0.0,0.0,0.0,0.0,0.0,0.0,0.0,0.0,0.0,0.0,0.0,0.0,0.0,0.0,0.0,-1.1599,-1.2076,-1.2876,-1.3687,-1.4571,-1.409,-1.4154,-1.4813,-1.453,-1.4556,-1.4904,-1.4904,-1.4904,-1.4933,0.0,-1.5443,0.0,0.0,-1.5509,-1.52,-1.5357,-1.5287,-1.5077,0.0,0.0,0.0,0.0,0.0,0.0,0.0,0.0,0.0,0.0,0.0,0.0,-1.6634,-1.7225,-1.819,-2.064,0.0,0.0,0.0,0.0,0.0,0.0,0.0,0.0,0.0,0.0,-3.371,-3.2824,-3.4303,0.0,-3.4283,-3.4934,-3.5774,-3.6265,-3.6315,-3.6603,-3.7364,-3.7449,-3.7584,-3.7872,-3.7229,-3.6975,-3.7432,-3.6315,-3.5825,-3.6299,-3.6315,-3.6451,-3.6772,-3.7558,-3.7934,-3.7905,-3.8196,-3.8418,-3.8565,-3.8125,-3.8514,-3.9631,-3.9343,-3.9225,-3.9225,-3.9529,-3.9817,-4.007,-4.007,-4.007,-4.007,-4.007,-4.007,-4.007,-4.007,-4.007,-4.007,0.0,0.0,0.0,0.0,0.0,0.0,0.0,0.0,0.0,0.0,0.0,0.0,0.0,0.0,0.0,0.0,0.0,0.0,0.0,0.0,-1.2205,-1.2205,-1.2986,-1.3803,-1.4668,-1.4567,-1.4567,-1.4687,-1.3999,-1.409,-1.4868,0.0,-1.4868,-1.4859,0.0,-1.482,0.0,0.0,-1.5102,-1.5614,-1.4956,-1.5047,-1.5435,-1.4051,0.0,0.0,0.0,0.0,0.0,0.0,0.0,0.0,0.0,-1.5152,-1.7102,-1.6051,-1.7222,-1.9471,0.0,0.0,0.0,0.0,0.0,0.0,0.0,0.0,0.0,0.0,0.0,-3.6696,-3.6381,-3.635,-3.6182,-3.5694,-3.5622,-3.5622,-3.5622,-3.5622,-3.5876,-3.6586,-3.6671,-3.6941,-3.7635,-3.7077,-3.6671,-3.6671,-3.6011,-3.5622,-3.5622,-3.5622,-3.5943,-3.6654,-3.6671,-3.7009,-3.7686,-3.7702,-3.7736,-3.7804,-3.7736,-3.8125,-3.887,-3.8278,-3.8041,-3.8142,-3.8802,-3.9462,-4.007,-4.007,-4.007,-4.007,-4.007,-4.007,-4.007,-4.007,-4.007,-4.007,0.0,0.0,0.0,0.0,0.0,0.0,0.0,0.0,0.0,0.0,0.0,0.0,0.0,0.0,0.0,0.0,0.0,0.0,0.0,0.0,-1.3041,-1.3041,-1.3802,-1.4345,-1.4545,-1.4511,-1.4511,-1.4545,-1.4383,-1.4393,0.0,0.0,0.0,-1.4633,0.0,-1.5145,0.0,0.0,-1.4623,-1.3893,-1.4361,-1.4632,-1.4793,-1.5068,-1.4903,0.0,0.0,0.0,0.0,0.0,0.0,0.0,-1.3555,-1.416,-1.5296,-1.5983,-1.7605,-1.982,0.0,0.0,0.0,0.0,0.0,0.0,0.0,0.0,0.0,0.0,0.0,-3.4167,-3.553,-3.5783,-3.5739,-3.5622,-3.5622,-3.5622,-3.5622,-3.5622,-3.5673,-3.5859,-3.5876,-3.5926,-3.6096,-3.596,-3.5876,-3.5876,-3.5723,-3.5622,-3.5622,-3.5622,-3.569,-3.5859,-3.5876,-3.5943,-3.6113,-3.6113,-3.6417,-3.7009,-3.64,-3.6823,-3.8159,-3.8565,-3.9073,-3.9631,-3.9766,-3.9935,-4.007,-4.007,-4.007,-4.007,-4.007,-4.007,-4.007,-4.007,-4.007,-4.007,0.0,0.0,0.0,0.0,0.0,0.0,0.0,0.0,0.0,0.0,0.0,0.0,0.0,0.0,0.0,0.0,0.0,0.0,0.0,0.0,0.0,-1.3875,-1.4279,-1.4488,-1.4488,-1.4488,-1.4488,-1.4488,-1.4488,0.0,0.0,0.0,0.0,-1.4618,0.0,-1.4709,0.0,0.0,0.0,-1.3335,-1.3758,-1.4169,-1.4543,-1.4976,-1.4628,-1.393,-1.393,0.0,0.0,0.0,0.0,0.0,0.0,0.0,-1.542,-1.5428,-1.7152,-1.9519,0.0,0.0,0.0,0.0,0.0,0.0,0.0,0.0,0.0,0.0,0.0,-3.4432,-3.5402,-3.5622,-3.5622,-3.5622,-3.5622,-3.5622,-3.5622,-3.5622,-3.5622,-3.5622,-3.5622,-3.5622,-3.5622,-3.5622,-3.5622,-3.5622,-3.5622,-3.5622,-3.5622,-3.5622,-3.5622,-3.5622,-3.5622,-3.5622,-3.5622,-3.5622,-3.5825,-3.6214,-3.5808,-3.6434,-3.7922,-3.8311,-3.887,-3.9546,-3.9546,-3.9749,-4.007,-4.007,-4.007,-4.007,-4.007,-4.007,-4.007,-4.007,-4.007,-4.007,0.0,0.0,0.0,0.0,0.0,0.0,0.0,0.0,0.0,0.0,0.0,0.0,0.0,0.0,0.0,0.0,0.0,0.0,0.0,0.0,0.0,0.0,-1.4488,-1.4488,-1.4488,-1.4488,-1.4488,-1.4488,0.0,0.0,0.0,0.0,0.0,-1.5083,0.0,0.0,0.0,0.0,0.0,0.0,0.0,0.0,-1.4488,-1.4488,-1.4004,-1.3298,-1.3298,-1.2784,-1.2113,-1.226,0.0,0.0,0.0,0.0,-1.5846,-1.4636,-1.6381,-1.8912,0.0,0.0,0.0,0.0,0.0,0.0,0.0,0.0,0.0,0.0,-3.552,-3.5622,-3.5622,-3.5622,-3.5622,-3.5622,-3.5622,-3.5622,-3.5622,-3.5622,-3.5622,-3.5622,-3.5622,-3.5622,-3.5622,-3.5622,-3.5622,-3.5622,-3.5622,-3.5622,-3.5622,-3.5622,-3.5622,-3.5622,-3.5622,-3.5622,-3.5622,-3.5622,-3.5622,-3.5622,-3.5757,-3.6552,-3.7905,-3.8041,-3.8481,-3.9174,-3.9174,-3.9529,-4.007,-4.007,-4.007,-4.007,-4.007,-4.007,-4.007,-4.007,-4.007,-4.007,0.0,0.0,0.0,0.0,0.0,0.0,0.0,0.0,0.0,0.0,0.0,0.0,0.0,0.0,0.0,0.0,0.0,0.0,-1.4239,0.0,0.0,-1.4488,-1.4488,-1.4488,-1.4488,-1.4488,-1.4488,-1.4488,0.0,0.0,0.0,0.0,0.0,-1.6641,0.0,0.0,0.0,0.0,0.0,0.0,0.0,0.0,-1.4488,-1.4488,-1.4004,-1.3298,-1.3298,-1.2784,-1.2205,-1.2894,-1.3133,0.0,0.0,0.0,-1.4587,-1.3699,-1.5704,-1.8386,0.0,0.0,0.0,0.0,0.0,0.0,0.0,0.0,0.0,0.0,-3.5165,-3.5622,-3.5622,-3.5622,-3.5622,-3.5622,-3.5622,-3.5622,-3.5622,-3.5622,-3.5622,-3.5622,-3.5622,-3.5622,-3.5622,-3.5622,-3.5622,-3.5622,-3.5622,-3.5622,-3.5622,-3.5622,-3.5622,-3.5622,-3.5622,-3.5622,-3.5622,-3.5622,-3.5622,-3.5622,-3.6299,-3.7077,-3.7922,-3.8565,-3.9242,-3.9935,-3.9935,-3.9986,-4.007,-4.007,-4.007,-4.007,-4.007,-4.007,-4.007,-4.007,-4.007,-4.007,0.0,0.0,0.0,0.0,0.0,0.0,0.0,0.0,0.0,0.0,0.0,0.0,0.0,0.0,0.0,-1.417,-1.4282,-1.435,-1.4375,-1.4453,-1.4488,-1.4488,-1.4488,-1.4297,-1.3838,-1.382,-1.36,0.0,0.0,0.0,0.0,-1.7284,-1.7364,0.0,0.0,0.0,0.0,0.0,0.0,0.0,0.0,0.0,0.0,-1.4004,-1.3893,-1.3912,-1.3464,-1.2784,-1.215,-1.2509,-1.2637,-1.2711,-1.3151,0.0,0.0,0.0,-1.5288,0.0,0.0,0.0,0.0,0.0,0.0,0.0,0.0,0.0,0.0,0.0,-3.5098,-3.5622,-3.5622,-3.5622,-3.5622,-3.5622,-3.5622,-3.5622,-3.5622,-3.5622,-3.5622,-3.5622,-3.5622,-3.5622,-3.5622,-3.5622,-3.5622,-3.5622,-3.5622,-3.5622,-3.5622,-3.5622,-3.5622,-3.5622,-3.5622,-3.5622,-3.5622,-3.6045,-3.6265,-3.6282,-3.662,-3.7178,-3.7922,-3.8244,-3.9005,-4.007,-4.007,-4.007,-4.007,-4.007,-4.007,-4.007,-4.007,-4.007,-4.007,-4.007,-4.007,-4.007,0.0,0.0,0.0,0.0,0.0,0.0,0.0,0.0,0.0,0.0,0.0,0.0,0.0,0.0,0.0,0.0,-1.4175,-1.427,-1.4411,-1.4411,-1.4453,-1.4506,-1.4297,-1.3912,-1.3317,-1.3096,0.0,0.0,0.0,0.0,-1.7372,-1.7503,-1.7896,0.0,-1.8728,0.0,0.0,0.0,0.0,0.0,0.0,0.0,0.0,0.0,-1.4462,-1.4701,-1.3893,-1.3096,-1.2388,-1.2388,-1.2388,-1.2564,-1.3353,-1.3611,0.0,0.0,0.0,0.0,0.0,0.0,0.0,0.0,0.0,0.0,0.0,0.0,0.0,0.0,-3.4735,-3.5622,-3.5622,-3.5622,-3.5622,-3.5622,-3.5622,-3.5622,-3.5622,-3.5622,-3.5622,-3.5622,-3.5622,-3.5622,-3.5622,-3.5622,-3.5622,-3.5622,-3.5622,-3.5622,-3.5622,-3.5622,-3.5622,-3.5622,-3.5622,-3.5622,-3.5622,-3.6197,-3.6485,-3.6485,-3.6485,-3.6992,-3.7905,-3.7905,-3.87,-4.007,-4.007,-4.007,-4.007,-4.007,-4.007,-4.007,-4.007,-4.007,-4.007,-4.007,-4.007,-4.007,0.0,0.0,0.0,0.0,0.0,0.0,0.0,0.0,0.0,0.0,0.0,0.0,-1.38,-1.4034,-1.4123,-1.3941,-1.4096,-1.4201,-1.4201,-1.4232,-1.4295,-1.4488,-1.3765,0.0,-1.3298,-1.2564,0.0,0.0,0.0,0.0,-1.6483,-1.6976,-1.845,-2.0633,-2.0201,-1.8913,-1.708,0.0,0.0,0.0,0.0,0.0,0.0,0.0,0.0,0.0,0.0,-1.3912,-1.3243,-1.3243,-1.3243,-1.3372,-1.4187,-1.4433,-1.4462,0.0,0.0,0.0,0.0,0.0,0.0,0.0,0.0,0.0,0.0,0.0,0.0,0.0,-3.386,-3.5622,-3.5622,-3.5622,-3.5622,-3.5622,-3.5622,-3.5622,-3.5622,-3.5622,-3.5622,-3.5622,-3.5622,-3.5622,-3.5622,-3.5622,-3.5622,-3.5622,-3.5622,-3.5622,-3.5622,-3.5622,-3.5622,-3.5622,-3.5622,-3.5622,-3.5622,-3.5656,-3.5673,-3.5673,-3.5673,-3.6468,-3.7905,-3.7905,-3.87,-4.007,-4.007,-4.007,-4.007,-4.007,-4.007,-4.007,-4.007,-4.007,-4.007,-4.007,-4.007,-4.0003,0.0,0.0,0.0,0.0,0.0,0.0,0.0,0.0,0.0,0.0,0.0,0.0,0.0,-1.3636,-1.368,-1.3709,-1.3534,-1.3479,-1.3603,-1.3061,-1.276,-1.2833,-1.2571,-1.211,-1.152,-1.1292,0.0,0.0,0.0,-1.1891,-1.4667,-1.4998,-1.6554,-1.9139,-2.0766,-1.9938,-1.7451,-1.9276,0.0,0.0,0.0,0.0,0.0,0.0,0.0,0.0,0.0,0.0,0.0,-1.6054,-1.527,-1.4793,-1.4573,-1.4488,-1.4488,-1.4488,-1.4488,0.0,0.0,0.0,0.0,0.0,0.0,0.0,0.0,0.0,0.0,-2.9841,-3.2894,-3.5209,-3.4045,-3.4814,-3.5622,-3.5622,-3.5622,-3.5622,-3.5622,-3.5622,-3.5622,-3.5622,-3.5622,-3.5622,-3.5622,-3.5622,-3.5622,-3.5622,-3.4968,-3.4891,-3.5571,-3.4951,-3.4866,-3.5588,-3.5622,-3.5859,-3.6366,-3.684,-3.7094,-3.7094,-3.7094,-3.7618,-3.8582,-3.8125,-3.87,-4.007,-4.007,-4.007,-4.007,-4.007,-4.007,-4.007,-4.007,-4.007,-4.002,-3.9542,-3.9315,-3.9209,0.0,0.0,0.0,0.0,0.0,0.0,0.0,0.0,0.0,-1.3396,0.0,0.0,0.0,0.0,-1.3391,-1.3238,-1.2692,-1.2442,-1.2654,-1.2082,-1.1761,-1.1826,-1.1623,-1.1213,-1.0583,-1.0421,0.0,0.0,0.0,0.0,0.0,-1.4,-1.5572,-1.8051,-1.9945,-2.0028,0.0,0.0,0.0,-1.7966,0.0,0.0,-1.9669,0.0,0.0,0.0,0.0,0.0,0.0,0.0,0.0,-1.6976,-1.6163,-1.5249,-1.4488,-1.4488,-1.4488,0.0,-1.7105,0.0,0.0,0.0,0.0,0.0,0.0,0.0,-2.9341,-2.8864,-3.2427,-3.5209,-3.3977,-3.478,-3.5622,-3.5622,-3.5622,-3.5622,-3.5622,-3.5622,-3.5622,-3.5622,-3.5622,-3.5622,-3.5622,-3.5622,-3.5622,-3.5622,-3.4934,-3.4857,-3.5571,-3.4917,-3.4874,-3.5588,-3.5622,-3.5876,-3.6383,-3.7144,-3.7533,-3.7533,-3.7787,-3.8294,-3.8971,-3.8481,-3.8937,-4.007,-4.007,-4.007,-4.007,-4.007,-4.007,-4.007,-4.007,-3.9952,-3.961,-3.9086,-3.8745,-3.8414,0.0,0.0,0.0,0.0,0.0,0.0,0.0,0.0,-1.3396,-1.3396,0.0,0.0,0.0,0.0,0.0,-1.256,-1.1647,-1.1189,-1.1364,-1.1346,-1.1416,-1.1604,-1.1011,-1.0682,-1.0673,-1.0065,-0.969,0.0,0.0,0.0,0.0,0.0,-1.5679,-1.7589,-1.769,-1.9062,-2.1301,0.0,-2.1816,-2.2392,0.0,-2.2376,-2.279,0.0,0.0,0.0,-2.3997,-2.3411,0.0,-2.2772,0.0,0.0,0.0,0.0,-1.4524,-1.4524,-1.4524,0.0,0.0,0.0,0.0,0.0,0.0,0.0,0.0,0.0,-2.8588,-2.8605,-3.2269,-3.5487,-3.552,-3.5571,-3.5622,-3.5622,-3.5622,-3.5622,-3.5622,-3.5622,-3.5622,-3.5622,-3.5622,-3.5622,-3.5622,-3.5622,-3.5622,-3.5622,-3.5571,-3.5571,-3.5622,-3.5622,-3.5622,-3.5622,-3.5622,-3.5622,-3.5622,-3.6417,-3.6806,-3.6823,-3.7584,-3.8328,-3.9022,-3.9005,-3.9394,-4.007,-4.007,-4.007,-4.007,-4.007,-4.007,-4.007,-4.007,-3.9558,-3.8854,-3.8854,-3.8358,-3.7632,0.0,0.0,0.0,0.0,0.0,0.0,-1.3363,-1.3396,-1.3396,0.0,0.0,0.0,-1.3462,-1.3462,-1.3202,-1.2563,-1.173,-1.111,-1.0782,-1.0103,-0.9756,-0.981,-1.0149,-1.0296,-1.0204,-1.0622,-1.0843,0.0,0.0,0.0,0.0,0.0,0.0,0.0,-1.5918,-1.7391,-1.9144,-2.1199,0.0,0.0,-2.391,-2.3947,0.0,0.0,0.0,0.0,0.0,-2.5108,-2.4207,0.0,-2.2906,-2.0325,0.0,0.0,0.0,0.0,0.0,0.0,-1.5362,0.0,0.0,0.0,0.0,0.0,0.0,0.0,0.0,-2.6481,-2.9864,-3.2866,-3.3477,-3.4678,-3.5622,-3.5622,-3.5622,-3.5622,-3.5622,-3.5622,-3.5622,-3.5622,-3.5622,-3.5622,-3.5622,-3.5622,-3.5622,0.0,-3.4891,-3.4797,-3.5571,-3.5622,-3.5622,-3.5622,-3.5622,-3.5622,-3.5622,-3.6941,-3.7601,-3.7601,-3.8345,-3.9073,-3.9766,-3.9225,-3.9394,-4.007,-4.007,-4.007,-4.007,-4.007,-3.9782,-3.9262,-3.9262,-3.8761,-3.8019,-3.7424,-3.7144,-3.6798,0.0,0.0,0.0,0.0,0.0,-1.2961,-1.3346,-1.3396,-1.3396,0.0,0.0,0.0,-1.3853,-1.3583,-1.314,-1.2464,-1.1678,-1.108,-1.0772,-1.0226,-0.9926,-0.9926,-1.0404,-1.062,-1.0544,-1.1097,-1.136,-1.1295,0.0,0.0,0.0,0.0,0.0,0.0,0.0,0.0,0.0,0.0,0.0,0.0,-2.4471,0.0,0.0,-2.6668,-2.6874,0.0,0.0,0.0,-2.7784,-2.8094,-2.579,0.0,0.0,0.0,0.0,0.0,0.0,0.0,0.0,0.0,0.0,0.0,0.0,0.0,-1.9091,-2.2289,-2.5447,0.0,-2.9867,-3.2815,-3.2788,-3.3676,-3.4415,-3.4415,-3.4415,-3.4712,-3.5487,-3.5622,-3.5622,-3.5622,-3.5622,-3.5622,-3.5622,-3.5622,-3.5622,-3.5622,-3.501,-3.4934,-3.5571,-3.5622,-3.5622,-3.5622,-3.5622,-3.5622,-3.5622,-3.7144,-3.7753,-3.7449,-3.8802,-3.9512,-3.9631,-3.9495,-3.9681,-4.007,-3.9731,-3.961,-3.9558,-3.9279,-3.9049,-3.8854,-3.858,-3.7962,-3.7263,-3.6783,-3.6384,-3.6054,0.0,0.0,-1.205,-1.2591,-1.2687,-1.2869,-1.343,-1.3532,-1.3549,0.0,-1.4141,-1.4494,-1.4494,-1.3836,-1.3108,-1.2365,-1.1654,-1.1197,-1.1113,-1.1096,-1.1096,-1.1096,-1.1288,-1.1407,-1.1407,-1.1612,-1.166,-1.1527,0.0,0.0,0.0,0.0,0.0,0.0,0.0,0.0,0.0,0.0,0.0,-2.5065,-2.4315,-2.6241,0.0,0.0,-2.9179,-3.0175,-3.1019,-3.1423,-3.16,-3.1958,-2.9281,0.0,0.0,0.0,0.0,0.0,-1.8391,0.0,0.0,0.0,0.0,0.0,0.0,0.0,-1.8839,-2.2289,-2.5675,0.0,-3.0295,-3.2978,-3.2231,-3.2225,-3.2294,-3.2256,-3.2345,-3.3088,-3.5016,-3.547,-3.552,-3.5311,-3.547,-3.5622,-3.5622,-3.5622,-3.5622,-3.5622,-3.5622,-3.5622,-3.5622,-3.5622,-3.5622,-3.5622,-3.5622,-3.5656,-3.574,-3.7,-3.7371,-3.6814,-3.8789,-3.9446,-3.8906,-3.9564,-3.9901,-3.9901,-3.9139,-3.8799,-3.8745,-3.7962,-3.8076,-3.8564,-3.7905,-3.716,-3.6508,-3.6508,-3.6054,-3.5504,0.0,0.0,-1.261,-1.3139,-1.3243,-1.3479,-1.4173,-1.4293,-1.4496,-1.5088,-1.4783,-1.4494,-1.4494,-1.3836,-1.3108,-1.2365,-1.2162,-1.1789,-1.113,-1.1096,-1.1096,-1.1096,-1.1751,-1.2105,-1.2105,-1.2714,-1.302,-1.3004,-1.3124,0.0,0.0,0.0,0.0,0.0,0.0,0.0,0.0,0.0,0.0,-2.2271,-2.4384,0.0,-2.6776,-2.9573,-2.9304,-2.7844,-3.0959,-3.1348,-3.0442,-3.0768,-3.0099,-2.8458,0.0,0.0,0.0,-1.8339,0.0,0.0,0.0,0.0,0.0,0.0,0.0,0.0,-1.9109,-2.0206,-2.1832,0.0,-2.449,-2.5583,-2.7522,-2.8596,-2.9076,-2.8813,-2.9504,-3.0831,-3.3019,-3.4644,-3.5033,-3.3528,-3.4678,-3.5622,-3.5622,-3.5622,-3.5622,-3.5622,-3.5622,-3.5622,-3.5622,-3.5622,-3.5622,-3.5622,-3.5622,-3.5926,-3.6552,-3.63,-3.6324,-3.6821,-3.7241,-3.7719,-3.8197,-3.8231,-3.8596,-3.9086,-3.8358,-3.8035,-3.7978,-3.7144,-3.6904,-3.7008,-3.6904,-3.6415,-3.5733,-3.5733,-3.5619,-3.5504,0.0,0.0,-1.2008,-1.2556,-1.2974,-1.3477,-1.4376,-1.4494,-1.4629,-1.5003,-1.4733,-1.4494,-1.4494,-1.4174,-1.365,-1.2906,-1.2854,-1.2821,-1.2804,-1.2449,-1.2398,-1.2787,-1.2821,-1.3024,-1.3396,-1.3413,-1.3583,-1.3954,-1.3583,0.0,0.0,0.0,0.0,0.0,0.0,0.0,0.0,0.0,-1.7202,-2.0856,-2.3849,0.0,-2.7571,-3.0192,-3.0505,-2.9765,-3.1651,-3.229,-3.2161,-3.1181,-3.0844,0.0,0.0,-2.4729,-2.2322,0.0,-1.8906,-1.8459,0.0,0.0,0.0,-1.843,0.0,0.0,0.0,-1.9685,-2.1202,-2.3023,-2.3805,-2.4496,-2.5637,-2.6275,-2.6595,-2.6424,-2.6842,-2.7713,-2.9265,-3.2054,-3.4033,-3.4184,-3.5016,-3.5622,-3.5622,-3.5622,-3.5622,-3.5622,-3.5622,-3.5622,-3.5622,-3.5622,-3.5622,-3.5622,-3.5622,-3.5638,-3.5713,-3.5711,-3.5694,-3.5695,-3.6126,-3.6674,-3.7335,-3.7343,-3.7681,-3.8302,-3.7557,-3.7203,-3.7144,-3.6337,-3.6054,-3.6054,-3.6054,-3.5846,-3.5504,-3.5504,-3.5504,-3.5504,-1.0217,0.0,-1.1283,-1.1827,-1.2519,-1.3334,-1.434,-1.4494,-1.4545,-1.468,-1.4697,-1.4797,-1.497,-1.4828,-1.4543,-1.4133,-1.4081,-1.4269,-1.468,-1.4321,-1.4269,-1.468,-1.4141,-1.409,-1.4716,-1.3988,-1.3904,-1.4494,-1.3752,-1.3396,0.0,0.0,0.0,0.0,0.0,0.0,0.0,0.0,0.0,-2.1139,0.0,-2.6437,-2.8755,-3.0415,-3.1423,-3.2011,-3.2417,-3.3316,-3.403,-3.1916,-3.136,-3.1312,-3.0061,-2.6833,0.0,0.0,0.0,0.0,0.0,0.0,0.0,0.0,0.0,-1.8381,0.0,0.0,0.0,0.0,0.0,0.0,0.0,0.0,0.0,0.0,0.0,0.0,0.0,-2.8509,0.0,-3.3541,-3.4109,-3.4336,-3.4336,-3.4726,-3.5148,-3.5588,-3.547,-3.547,-3.5577,-3.5379,-3.5316,-3.5577,-3.5362,-3.5071,-3.479,-3.5118,-3.5069,-3.4648,-3.5276,-3.5895,-3.6467,-3.6537,-3.6901,-3.7515,-3.6737,-3.6384,-3.6337,-3.5733,-3.5504,-3.5504,-3.5504,-3.5504,-3.5504,-3.5504,-3.5504,-3.5504,-1.0272,-1.0727,0.0,-1.191,-1.2554,-1.3334,-1.434,-1.4494,-1.4714,-1.5392,-1.5477,-1.5825,-1.67,0.0,0.0,0.0,0.0,0.0,-1.5525,-1.6188,-1.6258,-1.5508,-1.5392,-1.5392,-1.5477,-1.4749,-1.441,-1.4494,-1.3752,-1.3396,0.0,0.0,0.0,0.0,-1.4766,0.0,0.0,0.0,-2.0701,0.0,-2.5997,-2.6804,0.0,-2.9609,-3.047,-3.0713,-3.2708,-3.3579,-3.3435,0.0,-3.1292,-3.0957,0.0,-2.6792,-2.5026,-2.3604,0.0,0.0,0.0,0.0,0.0,0.0,-1.8559,0.0,0.0,0.0,-1.9477,-1.8931,0.0,0.0,0.0,0.0,0.0,0.0,0.0,0.0,-2.2677,-2.4252,-2.5822,-2.7031,-2.8714,-2.9736,-2.9736,-3.1512,-3.3491,-3.547,-3.5052,-3.4988,-3.5577,-3.4447,-3.435,-3.556,-3.4447,-3.4395,-3.5548,-3.4361,-3.4098,-3.4696,-3.4683,-3.5019,-3.5727,-3.5674,-3.6056,-3.6661,-3.5958,-3.5619,-3.5619,-3.5504,-3.5504,-3.5504,-3.5504,-3.5504,-3.5504,-3.5504,-3.5504,-3.5504,-1.0158,-1.0689,0.0,0.0,-1.2536,-1.3334,-1.434,-1.4868,-1.5105,-1.4986,-1.5325,-1.6118,0.0,0.0,0.0,0.0,0.0,-1.8872,0.0,0.0,-1.7427,-1.7136,-1.6147,-1.5595,-1.5595,-1.4885,-1.4494,-1.4494,-1.3752,-1.3396,0.0,0.0,0.0,0.0,-1.4885,0.0,-1.8597,0.0,-2.1022,0.0,0.0,0.0,0.0,-2.9916,-3.1229,-3.1436,-3.0698,-3.1808,-3.3123,0.0,-3.044,0.0,0.0,0.0,0.0,0.0,0.0,0.0,0.0,0.0,0.0,0.0,0.0,0.0,-2.1198,0.0,-1.9788,0.0,0.0,0.0,0.0,0.0,0.0,0.0,-1.9957,0.0,0.0,0.0,-2.2536,0.0,0.0,0.0,-3.0108,-2.9922,-3.0632,-3.2882,-3.2447,-3.2166,-3.2447,-3.321,-3.3853,-3.4399,-3.3887,-3.369,-3.3889,-3.3623,-3.369,-3.4014,-3.3953,-3.448,-3.5518,-3.5127,-3.5292,-3.5943,-3.5604,-3.5504,-3.5504,-3.5504,-3.5504,-3.5504,-3.5504,-3.5504,-3.5504,-3.5504,-3.5504,-3.5504,-1.0781,0.0,0.0,0.0,-1.2484,-1.3334,-1.434,-1.5157,-1.5633,0.0,0.0,0.0,-1.8531,-1.827,0.0,0.0,-2.0829,-2.0926,0.0,0.0,-1.9158,-1.9425,-1.7555,-1.653,-1.6564,-1.5802,-1.5102,-1.4494,-1.3954,-1.3785,0.0,0.0,0.0,0.0,0.0,-1.6859,-1.9411,0.0,0.0,-2.4878,-2.4859,-2.6187,-2.8341,-3.013,-3.1407,-3.1941,-2.9812,-3.0726,-3.2447,-2.8738,-2.9667,0.0,-2.871,0.0,-2.6727,0.0,0.0,0.0,-2.3291,0.0,0.0,0.0,0.0,0.0,0.0,0.0,0.0,0.0,0.0,0.0,0.0,0.0,-2.0602,-1.9816,0.0,-1.9866,0.0,-1.9113,0.0,0.0,0.0,0.0,0.0,-2.8138,-2.8202,-2.9854,-2.9931,-2.9995,-3.0182,-3.198,-3.3182,-3.3582,-3.3235,-3.2958,-3.285,-3.329,-3.3589,-3.3769,-3.3963,-3.4562,-3.5489,-3.4996,-3.504,-3.5504,-3.5504,-3.5504,-3.5504,-3.5504,-3.5504,-3.5504,-3.5504,-3.5504,-3.5504,-3.5504,-3.5504,-3.5504,-1.2591,-1.1892,0.0,0.0,0.0,0.0,-1.434,0.0,0.0,0.0,0.0,0.0,0.0,0.0,0.0,0.0,0.0,-2.1941,-2.2582,0.0,-2.1862,-2.2539,-2.0134,-1.8851,0.0,-1.8135,-1.6661,-1.4494,-1.4477,-1.4834,-1.5511,0.0,0.0,0.0,0.0,-1.8549,-2.0168,-2.3282,-2.5857,-2.7989,-2.9598,-3.0672,-3.1192,0.0,-3.0205,-3.1537,-3.142,0.0,0.0,-2.9678,-2.9204,-2.9446,-2.9911,0.0,0.0,0.0,0.0,0.0,0.0,0.0,0.0,-2.376,0.0,0.0,0.0,0.0,-2.0002,0.0,0.0,0.0,0.0,-2.0035,-1.9799,-1.9063,-1.9536,0.0,0.0,0.0,0.0,0.0,0.0,0.0,0.0,-2.5574,-2.6825,-2.6843,-2.8282,-2.9464,-3.014,-3.1099,-3.2201,-3.3531,-3.2312,-3.2197,-3.346,-3.3501,-3.386,-3.4457,-3.513,-3.5459,-3.5504,-3.5489,-3.5489,-3.5504,-3.5504,-3.5504,-3.5504,-3.5504,-3.5504,-3.5504,-3.5504,-3.5504,-3.5504,-3.5504,-3.5504,-3.5504,0.0,0.0,0.0,0.0,0.0,0.0,0.0,-1.5912,0.0,0.0,0.0,0.0,0.0,-2.3008,-2.3177,0.0,0.0,-2.5267,-2.4467,-2.4132,0.0,0.0,0.0,-2.0955,0.0,-1.9607,-1.8526,-1.6674,-1.6204,-1.6323,-1.7033,0.0,0.0,0.0,0.0,-1.8968,0.0,0.0,0.0,0.0,0.0,-2.9031,-2.9364,0.0,-3.1054,-3.1482,-3.1482,-3.1482,-3.1282,-2.9733,-2.9879,-3.0598,-2.9801,-2.9038,-2.8753,-3.0525,-2.9082,-2.7139,-2.8136,-2.8218,-2.8046,-2.7907,0.0,0.0,0.0,0.0,0.0,0.0,0.0,0.0,0.0,-2.1505,-2.1295,-2.0534,-2.0619,-2.0264,0.0,0.0,0.0,0.0,0.0,0.0,0.0,0.0,-2.2212,-2.3667,-2.3833,-2.4197,-2.4984,-2.7705,-2.9898,-3.1296,-3.1864,-3.2601,-3.3471,-3.3922,-3.4262,-3.4487,-3.5175,-3.5504,-3.5504,-3.5504,-3.5504,-3.5504,-3.5504,-3.5504,-3.5504,-3.5504,-3.5504,-3.5504,-3.5504,-3.5504,-3.5504,-3.5504,-3.5504,-3.5504,-1.4378,0.0,0.0,0.0,0.0,0.0,0.0,0.0,0.0,0.0,-2.0991,0.0,-2.4814,0.0,-2.4683,0.0,-2.5955,-2.6045,-2.6093,-2.4748,0.0,-2.5378,-2.385,0.0,0.0,0.0,-2.0766,-1.9421,-1.7856,-1.7748,-1.8959,0.0,0.0,0.0,0.0,-1.8901,-2.0332,0.0,-2.5566,0.0,0.0,-2.8819,0.0,0.0,-3.1009,-3.1482,0.0,-3.1482,-3.133,-3.0356,-3.0684,-3.13,-3.0325,-3.0175,-3.0576,-3.1552,-3.0646,-2.9508,-3.0751,-3.0922,-3.0754,-3.0872,-2.9643,0.0,-2.8292,0.0,-2.4673,0.0,0.0,0.0,0.0,-2.3264,-2.2772,-2.1758,-2.1363,-2.0737,0.0,-1.9536,0.0,0.0,0.0,0.0,0.0,-2.0267,-1.9997,-2.0643,-2.099,-2.1567,-2.2378,-2.6022,-2.8752,-3.0149,-3.1694,-3.2946,-3.3844,-3.4262,-3.4607,-3.4846,-3.5295,-3.5504,-3.5504,-3.5504,-3.5504,-3.5504,-3.5504,-3.5504,-3.5504,-3.5504,-3.5504,-3.5504,-3.5504,-3.5504,-3.5504,-3.5504,-3.5504,-3.5534,0.0,0.0,0.0,0.0,-1.4863,0.0,0.0,0.0,-2.0,0.0,-2.318,-2.2696,-2.4925,-2.3825,-2.3499,-2.4955,-2.3994,-2.4481,-2.727,-2.3999,0.0,0.0,-2.5145,-2.4179,-2.5072,0.0,0.0,0.0,-1.953,-1.9149,-2.1228,0.0,0.0,0.0,-1.8894,0.0,-1.8141,-2.3515,-2.5466,-2.517,-2.7936,-2.9978,-3.1222,-2.9748,-3.0122,-3.1482,-3.1482,-3.1482,-3.1482,-3.1482,-3.1482,-3.1482,-3.1482,-3.1988,-3.2512,-3.2512,-3.2976,-3.3653,-3.4294,-3.3969,-3.3306,-3.2457,-3.17,-3.0843,-2.9374,0.0,-2.8904,0.0,0.0,0.0,0.0,-2.5123,-2.4162,-2.2656,-2.1725,-2.094,-2.0204,-2.0737,-2.0923,0.0,0.0,0.0,0.0,-2.0228,-2.0193,-1.8019,-1.9822,-2.1421,0.0,-2.5846,-2.8572,-3.0195,-3.16,-3.3051,-3.4502,-3.449,-3.482,-3.5504,-3.5504,-3.5504,-3.5504,-3.5504,-3.5504,-3.5504,-3.5504,-3.5504,-3.5504,-3.5504,-3.5504,-3.5504,-3.5504,-3.5504,-3.5504,-3.5504,-3.5534,-3.5639,-1.6093,-1.5902,-1.5949,0.0,-1.7082,-1.8322,0.0,0.0,0.0,0.0,-2.4172,-2.4671,-2.5874,-2.6199,-2.5849,-2.4599,-2.4802,0.0,0.0,0.0,0.0,-2.752,-2.7394,-2.7069,-2.6627,-2.687,0.0,-2.5733,0.0,0.0,-2.2834,0.0,0.0,0.0,0.0,0.0,-1.8141,-2.3515,-2.6673,-2.7982,-2.7036,-2.7921,-2.9703,0.0,-2.966,-3.1482,-3.1482,-3.1482,-3.1482,-3.1482,-3.1482,-3.1482,-3.1482,-3.1988,-3.2512,-3.2512,-3.2976,-3.3546,-3.3713,-3.3653,-3.3426,-3.3228,-3.2196,-3.1121,-3.0689,-2.9728,-2.8904,-2.8904,-2.8762,-2.8367,-2.7486,-2.6246,-2.5049,-2.4146,-2.2425,-2.1312,-2.1667,0.0,0.0,-2.1684,0.0,0.0,-1.9833,-1.9572,-1.9244,-1.8674,-1.8648,-1.975,-2.2264,-2.3349,-2.6015,-3.0761,-3.0258,-3.1612,-3.5205,-3.4167,-3.4243,-3.5504,-3.5504,-3.5504,-3.5504,-3.5504,-3.5504,-3.5504,-3.5504,-3.5504,-3.5504,-3.5504,-3.5504,-3.5504,-3.5504,-3.5504,-3.5504,-3.5504,-3.5818,-3.6252,-1.6298,0.0,0.0,-1.6984,0.0,0.0,-2.1096,-2.2023,0.0,-2.5222,-2.5247,0.0,-2.6746,-2.7323,-2.7109,-2.5864,-2.5138,0.0,-2.5712,0.0,0.0,-2.7904,-2.8288,-2.8106,-2.7382,-2.8201,0.0,-2.7226,0.0,0.0,-2.349,0.0,0.0,0.0,0.0,-1.8051,0.0,-2.3195,-2.6619,-2.8633,-2.7674,-2.8455,0.0,-2.9007,-2.9819,-3.1482,-3.1482,-3.1482,-3.1482,-3.1482,-3.1661,-3.1958,-3.1958,-3.2617,-3.3365,-3.3365,-3.3844,-3.4367,-3.4367,-3.4367,-3.4367,-3.4367,-3.3698,-3.3091,-3.3091,-3.2425,-3.1765,-3.1765,-3.1574,-3.1028,-2.9987,-2.8034,-2.5954,0.0,-2.2517,0.0,0.0,0.0,0.0,0.0,-2.2214,0.0,-2.057,-1.9805,-1.9176,-1.8717,-1.8568,-1.9289,0.0,-2.2987,-2.5362,-2.8357,-2.9527,-3.0731,-3.2018,-3.1823,-3.2355,-3.3769,-3.4068,-3.4651,-3.5504,-3.5504,-3.5504,-3.5504,-3.5504,-3.5504,-3.5504,-3.5504,-3.5504,-3.5504,-3.5504,-3.5684,-3.5938,-3.5938,-3.6178,-3.6522,0.0,0.0,0.0,0.0,0.0,0.0,0.0,-2.3034,0.0,-2.7067,0.0,-2.5956,-2.7274,-2.752,-2.755,-2.732,0.0,-2.4852,-2.7205,-2.4541,-2.46,-2.8412,-2.8551,-2.8358,-2.8015,-2.8991,-2.9052,0.0,-2.4085,-2.2661,-2.3669,0.0,0.0,0.0,0.0,0.0,0.0,-2.2777,-2.5901,-2.8308,-2.8955,-2.9993,-3.1084,-2.9902,-3.0325,-3.1482,-3.1482,-3.1482,-3.1482,-3.1571,-3.2033,-3.2527,-3.2617,-3.3484,-3.4472,-3.4472,-3.4966,-3.5504,-3.5504,-3.5504,-3.5504,-3.5504,-3.5504,-3.5504,-3.5504,-3.5504,-3.5504,-3.5504,-3.5026,-3.4162,-3.2779,-2.9917,-2.6656,0.0,0.0,0.0,0.0,0.0,0.0,0.0,0.0,0.0,-2.1215,-2.0409,-1.9593,-1.8677,-1.9067,0.0,0.0,0.0,-2.5219,-2.512,-2.8824,-2.9898,-2.8113,-2.9087,-3.0368,-3.2063,-3.2273,-3.3484,-3.5504,-3.5504,-3.5504,-3.5504,-3.5504,-3.5504,-3.5504,-3.5504,-3.5504,-3.5519,-3.5609,-3.5983,-3.6492,-3.6582,-3.6656,-3.6806,0.0,0.0,0.0,0.0,0.0,-2.1999,-2.4612,-2.6012,-2.6713,-2.6551,-2.6909,-2.6995,-2.6581,-2.7161,-2.7126,-2.6048,-2.5525,0.0,0.0,0.0,0.0,-2.8517,-2.9544,-3.0078,-2.9983,-3.0713,-3.1012,-3.0836,-2.6093,-2.3896,-2.3994,-1.909,0.0,0.0,0.0,0.0,-2.3475,-2.3012,0.0,-2.9016,-2.9138,-2.9348,-2.9718,-3.0729,-3.1282,-3.1482,-3.1482,-3.1482,-3.1556,-3.2153,-3.2422,-3.2617,-3.3155,-3.3858,-3.4472,-3.4472,-3.4966,-3.5504,-3.5504,-3.5504,-3.5504,-3.5504,-3.5504,-3.5504,-3.5504,-3.5504,-3.5504,-3.5504,-3.5415,-3.504,-3.4237,-3.0403,-2.671,0.0,0.0,0.0,0.0,0.0,0.0,0.0,0.0,-2.375,0.0,-2.0347,0.0,0.0,0.0,0.0,0.0,0.0,-2.2621,-2.6196,-2.6745,-2.8182,-3.0806,-2.9826,-3.1192,-3.4786,-3.2706,-3.3036,-3.5504,-3.5504,-3.5504,-3.5504,-3.5504,-3.5504,-3.5504,-3.5504,-3.5504,-3.5549,-3.6103,-3.6387,-3.6552,-3.706,-3.7584,-3.8063,0.0,0.0,0.0,0.0,0.0,0.0,0.0,-2.6811,-2.7976,-2.7527,-2.7545,-2.742,-2.7016,-2.7665,-2.7859,-2.7215,-2.6841,-2.6916,-2.7619,-2.732,-2.7844,-2.952,-3.0178,-3.0193,-2.9535,-3.0851,-3.0866,-2.9475,-2.5726,-2.3812,-2.3575,-1.8593,0.0,0.0,0.0,-2.0576,0.0,0.0,0.0,-2.8736,-2.9894,-3.0401,-3.0452,-3.1222,-3.1749,-3.2033,-3.2033,-3.2258,-3.2542,-3.2527,-3.2961,-3.3589,-3.3903,-3.4472,-3.5011,-3.5011,-3.525,-3.5504,-3.5504,-3.5504,-3.5504,-3.5504,-3.5504,-3.5504,-3.5504,-3.5504,-3.5504,-3.5504,-3.5504,-3.503,-3.3592,-3.1363,-2.9169,-2.73,0.0,0.0,0.0,0.0,-2.386,0.0,0.0,0.0,0.0,0.0,0.0,0.0,0.0,0.0,0.0,0.0,-2.2906,-2.5347,-2.6658,-2.8012,-2.946,-2.9456,-3.08,-3.344,-3.2497,-3.326,-3.5504,-3.5504,-3.5504,-3.5504,-3.5504,-3.5504,-3.5504,-3.5504,-3.5699,-3.6043,-3.6357,-3.6896,-3.7509,-3.7808,-3.8347,-3.8871,0.0,-2.0213,0.0,0.0,-2.2832,0.0,-2.557,-2.6976,-2.8128,-2.8547,-2.7993,-2.7625,-2.7625,-2.8053,-2.8263,-2.7993,-2.7859,-2.7934,-2.8293,-2.8233,-2.8697,-2.9834,-3.0417,-3.0253,-2.925,-3.0746,-3.0507,-2.8412,-2.5749,-2.4068,-2.3193,-1.8872,-1.715,0.0,0.0,0.0,0.0,0.0,-2.8362,-2.8976,-3.0799,-3.1556,-3.1676,-3.1676,-3.2153,-3.2721,-3.2721,-3.314,-3.3619,-3.3095,-3.3619,-3.4502,-3.4651,-3.507,-3.5504,-3.5504,-3.5504,-3.5504,-3.5504,-3.5504,-3.5504,-3.5504,-3.5504,-3.5504,-3.5504,-3.5504,-3.5504,-3.5504,-3.5504,-3.4988,-3.3239,-3.2444,-3.1328,-2.8978,0.0,0.0,0.0,0.0,0.0,0.0,0.0,0.0,-2.2873,-2.2039,0.0,0.0,0.0,0.0,-2.01,0.0,-2.3119,-2.3917,-2.6268,-2.756,-2.7625,-2.8622,-3.0238,-3.2377,-3.2332,-3.344,-3.5504,-3.5504,-3.5504,-3.5504,-3.5504,-3.5579,-3.5714,-3.5714,-3.6103,-3.6701,-3.6836,-3.7509,-3.8407,-3.8556,-3.896,-3.9334,0.0,0.0,0.0,0.0,0.0,-2.5644,-2.8667,-2.7275,-2.6542,-2.8368,-2.7993,-2.7625,-2.7625,-2.7685,-2.7186,-2.5989,-2.7485,-2.7275,-2.4343,-2.7964,-2.952,-2.797,-3.0148,-3.1317,-3.1198,-3.1377,-3.1362,-3.1108,-2.8502,-2.5976,-2.3503,-2.1276,-2.0434,0.0,0.0,0.0,-2.7546,-2.7941,-2.9303,-3.118,-3.1435,-3.1884,-3.2422,-3.2422,-3.2826,-3.341,-3.341,-3.3829,-3.4382,-3.4307,-3.4382,-3.4592,-3.5205,-3.5444,-3.5504,-3.5504,-3.5504,-3.5504,-3.5504,-3.5504,-3.5504,-3.5504,-3.5504,-3.5504,-3.5504,-3.5504,-3.5504,-3.5504,-3.5504,-3.5429,-3.5239,-3.3216,-3.0713,-2.8147,-2.5818,0.0,0.0,0.0,-2.3825,-2.2851,0.0,0.0,-2.2739,-1.9959,0.0,0.0,-1.9371,0.0,0.0,-2.091,-2.0925,-2.278,-2.3653,-2.5196,-2.7595,-2.7694,-3.0238,-3.5115,-3.2751,-3.2991,-3.5504,-3.5504,-3.5504,-3.5504,-3.5504,-3.5848,-3.6402,-3.6402,-3.6761,-3.7389,-3.7973,-3.8287,-3.8467,-3.9095,-3.9364,-3.9409,0.0,0.0,0.0,0.0,0.0,0.0,0.0,-2.7829,-2.7829,-2.9026,-2.8248,-2.7625,-2.7625,-2.8344,-2.8562,-2.8038,-2.9445,-2.9789,-2.8457,-3.0088,-3.0761,-2.9983,-3.0971,-3.1482,-3.1482,-3.1482,-3.1482,0.0,-2.8083,-2.5644,-2.4178,-2.2218,-2.1999,-2.3326,-2.5334,-2.704,-2.8454,-2.9644,-3.0664,-3.1511,-3.1958,-3.2273,-3.2557,-3.2961,-3.3514,-3.4083,-3.4083,-3.4517,-3.51,-3.51,-3.51,-3.5145,-3.5415,-3.5504,-3.5504,-3.5504,-3.5504,-3.5504,-3.5504,-3.5504,-3.5504,-3.5504,-3.5504,-3.5504,-3.5504,-3.5504,-3.5504,-3.5504,-3.5504,-3.5504,-3.5504,-3.4637,-3.3051,-3.0372,-2.9215,-2.7625,0.0,0.0,0.0,-2.731,0.0,-2.5211,-2.7186,-2.2607,-2.0109,0.0,0.0,0.0,0.0,-2.1395,-2.3131,-2.554,-2.5854,-2.8023,-3.2287,-3.0746,-3.1824,-3.5489,-3.4427,-3.4472,-3.5504,-3.5504,-3.5729,-3.6088,-3.6088,-3.6447,-3.7045,-3.7045,-3.7419,-3.8018,-3.8287,-3.8646,-3.9035,-3.932,-3.9424,-3.9484,-2.7739,0.0,-2.6153,0.0,-2.7515,-2.8233,-2.7715,-2.8323,-2.8846,-2.8712,-2.8382,-2.8083,-2.7904,-2.8727,-2.9205,-2.9011,-3.0372,-3.0821,-2.9849,-3.0824,-3.1213,-3.0702,-3.1168,0.0,-3.1482,-3.1482,-3.1482,-3.1482,-2.8727,-2.6707,-2.5465,-2.4073,-2.4373,-2.6168,-2.7949,-2.9011,-2.9549,-3.0941,-3.1482,-3.1541,-3.2243,-3.2632,-3.2871,-3.3529,-3.4203,-3.4771,-3.4771,-3.51,-3.5504,-3.5504,-3.5504,-3.5504,-3.5504,-3.5504,-3.5504,-3.5504,-3.5504,-3.5504,-3.5504,-3.5504,-3.5504,-3.5504,-3.5504,-3.5504,-3.5504,-3.5504,-3.5504,-3.5504,-3.5504,-3.5504,-3.5504,-3.5504,-3.4637,-3.1973,-3.1482,-3.0612,0.0,-2.7625,0.0,-2.9205,-2.6632,-2.5959,-2.9056,-2.4283,0.0,0.0,0.0,0.0,0.0,-2.15,-2.358,-2.6096,-2.5616,-2.7799,-3.3125,-3.1315,-3.2108,-3.5504,-3.5699,-3.5789,-3.5804,-3.5983,-3.6327,-3.6761,-3.6761,-3.712,-3.7704,-3.7704,-3.8093,-3.8691,-3.8691,-3.899,-3.9439,-3.9634,-3.9709,-3.9798,-2.8457,-2.9086,-2.9714,-3.0328,-3.0447,-2.9819,-2.791,-2.8712,-2.8861,-2.6886,-2.8338,-2.931,-2.8667,-2.8607,-2.8338,-2.77,-2.9385,-2.9146,-2.5899,-2.9355,-3.0672,0.0,0.0,-3.1482,-3.1482,-3.1482,-3.1482,-3.1482,0.0,-3.0118,-2.758,-2.7565,-2.8269,-2.9579,-3.0896,-3.1437,-3.1437,-3.1467,-3.1482,-3.1541,-3.2243,-3.2901,-3.3559,-3.4218,-3.4891,-3.5489,-3.5489,-3.5489,-3.5504,-3.5504,-3.5504,-3.5504,-3.5504,-3.5504,-3.5504,-3.5504,-3.5504,-3.5504,-3.5504,-3.5504,-3.5504,-3.5504,-3.5504,-3.5504,-3.5504,-3.5504,-3.5504,-3.5504,-3.5504,-3.5504,-3.5504,-3.5504,-3.4637,-3.1973,-3.1482,-3.0612,-2.7949,-2.7625,0.0,-2.6707,-2.4313,-2.3788,-2.6378,-2.3625,0.0,0.0,0.0,0.0,0.0,-2.0835,-2.0647,-2.2724,-2.0812,-2.2364,-2.767,-2.7685,-3.0268,-3.5519,-3.6163,-3.6477,-3.6492,-3.7105,-3.7389,-3.7404,-3.7404,-3.7764,-3.8377,-3.8377,-3.8781,-3.9409,-3.9409,-3.9409,-3.9499,-4.0142,-4.0382,-4.0487,-2.6602,-2.8188,-2.9355,-2.8637,-2.9609,-3.0298,-2.9669,-2.9579,-2.9505,-2.928,-2.9445,-2.9669,-2.9879,-2.9894,-2.9804,0.0,-2.8921,-2.8831,0.0,-2.9131,-2.9355,-3.0552,-2.9909,-2.9535,-2.9535,-2.9535,-2.9535,-2.9535,-2.9983,-2.9774,-2.8936,-2.8487,-2.922,-3.0926,-3.1287,-3.1482,-3.1482,-3.1482,-3.1735,-3.2258,-3.2916,-3.3188,-3.331,-3.3908,-3.3922,-3.3533,-3.3533,-3.3891,-3.4461,-3.4461,-3.492,-3.5359,-3.4691,-3.492,-3.5504,-3.5504,-3.5504,-3.5504,-3.5504,-3.5504,-3.5504,-3.5504,-3.5504,-3.5504,-3.5504,-3.5504,-3.5504,-3.5504,-3.5504,-3.5504,-3.5504,-3.5504,-3.4637,-3.1973,-3.3051,-3.332,-3.0642,-3.0268,-3.0193,-2.9983,-2.723,-2.6557,-2.9654,-2.6572,0.0,0.0,0.0,0.0,0.0,-2.4237,-2.6183,-2.8637,-2.8098,-2.9445,-3.2946,-3.118,-3.2258,-3.6178,-3.6387,-3.6716,-3.712,-3.7315,-3.7659,-3.8078,-3.8078,-3.8467,-3.9095,-3.9095,-3.923,-3.9424,-3.9424,-3.9694,-4.0113,-4.0322,-4.0681,-4.116,-2.6066,-2.7928,-2.9325,-2.8524,-2.9744,-3.0642,-2.9909,-3.0088,-3.0193,-2.9834,-3.0088,-3.0462,-3.0851,-3.0896,-3.0896,-3.0896,-2.9774,-2.9759,-3.1362,-2.9983,-2.9804,-3.1407,-3.0357,-2.9699,-2.9699,-2.9699,-2.9699,-2.9699,-3.0118,-3.0432,-3.0672,-3.0013,-3.0492,-3.1884,-3.1586,-3.1482,-3.1467,-3.1161,-3.159,-3.2512,-3.2493,-3.2738,-3.314,-3.3374,-3.3101,-3.2593,-3.2593,-3.2961,-3.3449,-3.3449,-3.3891,-3.4327,-3.3671,-3.3891,-3.4476,-3.4839,-3.492,-3.492,-3.492,-3.492,-3.492,-3.492,-3.5213,-3.5504,-3.5504,-3.5504,-3.5504,-3.5504,-3.5504,-3.5504,-3.5504,-3.5504,-3.4966,-3.329,-3.4427,-3.4936,-3.326,-3.2168,-3.1482,-3.1482,-2.8816,-2.8173,-3.1183,-2.9295,-2.8173,0.0,0.0,0.0,-2.5944,-2.6048,-2.729,-2.9953,-3.0043,-3.133,-3.3993,-3.2362,-3.3002,-3.5908,-3.6379,-3.6939,-3.7544,-3.7942,-3.8392,-3.8781,-3.8781,-3.902,-3.9424,-3.9424,-3.9424,-3.9454,-3.9694,-4.0038,-4.0457,-4.095,-4.1399,-4.1848,-2.637,-2.8042,-2.9549,-2.9406,-3.0541,-3.0911,-2.9086,-3.0357,-3.0881,-2.9041,-3.0402,-3.1467,-3.1409,-3.1467,-3.1467,-3.1351,-3.1245,-3.1345,-3.1467,-3.1302,-3.1215,-3.1409,-3.1275,-3.12,-3.12,-3.1273,-3.1332,-3.1409,-3.1409,-3.1737,-3.2303,-3.1766,-3.1767,-3.2362,-3.1693,-3.1426,-3.1411,-3.0715,-3.1214,-3.2375,-3.1372,-3.1794,-3.2915,-3.2611,-3.2464,-3.2393,-3.2393,-3.2464,-3.2536,-3.2536,-3.2522,-3.2593,-3.2522,-3.2522,-3.2749,-3.3671,-3.3959,-3.4027,-3.4027,-3.4027,-3.4095,-3.4027,-3.4691,-3.5359,-3.5294,-3.5424,-3.5504,-3.5424,-3.5439,-3.5504,-3.5504,-3.5504,-3.5504,-3.5504,-3.5504,-3.5444,-3.525,-3.3095,-3.1407,-3.1285,-2.9235,-2.8816,-3.1228,-3.1646,-3.1676,-3.1482,0.0,0.0,0.0,-2.6728,-2.5314,-2.8038,-2.8128,-2.9295,-3.1647,-3.1722,-3.2805,-3.4939,-3.6185,-3.7149,-3.7829,-3.8855,-3.9337,-3.9424,-3.9424,-3.9424,-3.9424,-3.9469,-3.9484,-3.9559,-4.0217,-4.0502,-4.0681,-4.1908,-4.2387,-4.2506,-2.3679,-2.6791,-2.9089,-2.7521,-2.9581,-3.1317,-3.0854,-3.1183,-3.1302,-3.0896,-3.1183,-3.1278,-3.0644,-3.1146,-3.097,-2.969,-2.8963,-2.937,-3.1347,-2.9031,-2.8463,-3.0497,-2.9102,-2.8303,-2.8303,-2.8926,-2.9722,-3.0584,-3.0584,-3.0524,-3.0481,-3.0984,-3.1117,-3.104,-3.09,-3.083,-3.0844,-3.144,-3.1732,-3.1836,-3.2354,-3.2221,-3.164,-3.1556,-3.1132,-3.0419,-3.0419,-3.0908,-3.1536,-3.1536,-3.2033,-3.2464,-3.1742,-3.2033,-3.2664,-3.289,-3.3449,-3.4027,-3.4027,-3.4543,-3.4986,-3.4177,-3.4177,-3.4177,-3.3463,-3.4409,-3.5279,-3.4543,-3.4986,-3.5504,-3.5504,-3.5504,-3.5504,-3.5504,-3.5504,-3.4801,-3.2751,-3.187,-3.0776,-2.8742,-2.9744,-3.0851,-3.1422,-3.338,-3.3724,-3.1631,0.0,-3.0552,-3.0421,-2.9247,-3.0134,-3.3544,-3.3619,-3.3576,-3.3412,-3.3839,-3.4468,-3.5231,-3.5955,-3.6866,-3.7829,-3.8069,-3.862,-3.9424,-3.9424,-3.9424,-3.9454,-3.9963,-4.0172,-4.0232,-4.0891,-4.1459,-4.1938,-4.2252,-4.2671,-4.3135,-2.3955,-2.6442,-2.836,-2.7501,-2.9099,-3.0631,-3.0911,-3.0584,-3.0644,-3.1409,-3.1161,-3.0777,-3.0329,-3.0703,-3.0389,-2.9129,-2.8871,-2.9271,-3.0303,-2.8973,-2.8568,-2.9633,-2.9026,-2.8468,-2.8104,-2.8541,-2.9056,-2.969,-2.969,-2.961,-2.9435,-3.0163,-3.0406,-3.0278,-3.0472,-3.0596,-3.0596,-3.0798,-3.1157,-3.1571,-3.1305,-3.1173,-3.118,-3.0696,-3.0203,-2.9792,-2.9792,-3.0139,-3.0558,-3.0558,-3.0921,-3.1193,-3.0696,-3.0921,-3.1341,-3.1341,-3.1974,-3.2749,-3.2749,-3.3115,-3.3478,-3.3394,-3.338,-3.3241,-3.2749,-3.3394,-3.4041,-3.3449,-3.3822,-3.4192,-3.4192,-3.4192,-3.4192,-3.4192,-3.35,-3.2511,-3.1042,-3.0182,-2.9639,-2.9415,-3.0657,-3.1812,-3.254,-3.3936,-3.4185,-3.2761,-3.1571,-3.1154,-3.1861,-3.1148,-3.1824,-3.4119,-3.4192,-3.4034,-3.3734,-3.414,-3.4402,-3.4589,-3.5236,-3.6067,-3.7098,-3.7587,-3.8383,-3.9424,-3.9424,-3.9589,-3.9903,-4.0247,-4.0576,-4.0905,-4.1579,-4.2043,-4.2387,-4.2701,-4.303,-4.3329,-2.5368,-2.6554,-2.7669,-2.8024,-2.8753,-2.9457,-3.0001,-2.9504,-2.9504,-3.097,-3.0524,-3.0072,-2.995,-3.0011,-2.969,-2.8684,-2.938,-2.9628,-2.9066,-2.9566,-2.9566,-2.8812,-2.9504,-2.9566,-2.8812,-2.8894,-2.899,-2.9073,-2.9073,-2.9063,-2.8964,-2.9613,-2.9833,-2.9808,-3.0255,-3.0471,-3.0471,-2.9927,-3.0348,-3.1216,-2.9822,-2.9969,-3.0895,-3.0062,-2.9792,-2.9792,-2.9792,-2.9792,-2.9792,-2.9792,-2.9792,-2.9792,-2.9792,-2.9792,-2.9792,-2.9792,-3.0343,-3.1044,-3.118,-3.118,-3.1389,-3.2177,-3.2393,-3.2321,-3.2177,-3.2393,-3.2522,-3.2393,-3.2536,-3.2593,-3.2593,-3.2593,-3.2553,-3.225,-3.0997,-2.9943,-2.9571,-2.8642,-2.8768,-3.0821,-3.1442,-3.2273,-3.3811,-3.4027,-3.4095,-3.4245,-3.204,-3.1639,-3.3912,-3.2392,-3.1789,-3.2461,-3.2816,-3.3076,-3.3471,-3.3449,-3.3535,-3.3639,-3.4192,-3.4966,-3.5974,-3.7098,-3.8144,-3.9192,-3.9457,-3.9888,-4.0412,-4.0606,-4.1025,-4.1594,-4.2252,-4.2506,-4.2581,-4.3135,-4.3329,-4.3329,-2.5137,-2.6652,-2.7734,-2.7211,-2.8214,-2.908,-2.9178,-2.9066,-2.9066,-2.938,-2.9254,-2.8939,-2.8182,-2.8748,-2.8556,-2.704,-2.7604,-2.8363,-2.8939,-2.8427,-2.8051,-2.792,-2.8051,-2.8051,-2.792,-2.8385,-2.8809,-2.9326,-2.9326,-2.917,-2.8953,-2.9732,-3.0045,-2.9833,-2.9922,-2.9961,-2.9948,-3.0647,-3.0624,-3.0088,-3.0628,-3.0543,-2.9998,-2.9869,-2.9792,-2.9792,-2.9792,-2.9792,-2.9792,-2.9792,-2.9792,-2.9792,-2.9792,-2.9792,-2.9792,-2.9792,-2.9934,-3.0216,-3.097,-3.118,-3.1254,-3.1389,-3.1389,-3.118,-3.0432,-3.1476,-3.2393,-3.1609,-3.2033,-3.2593,-3.2593,-3.2593,-3.2139,-3.0736,-3.0268,-2.9342,-2.7113,-2.8455,-2.9568,-2.9213,-3.1065,-3.2818,-3.3916,-3.4027,-3.4327,-3.5213,-3.4097,-3.3542,-3.3998,-3.2248,-3.1535,-3.2093,-3.3684,-3.4242,-3.3675,-3.2834,-3.2706,-3.3186,-3.3275,-3.3869,-3.4979,-3.5974,-3.7007,-3.8098,-3.961,-4.0307,-4.0487,-4.1594,-4.2117,-4.2267,-4.2925,-4.318,-4.3195,-4.3299,-4.3329,-4.3329,-2.5043,-2.5815,-2.6497,-2.6733,-2.732,-2.7857,-2.8244,-2.792,-2.7986,-2.8876,-2.862,-2.8182,-2.7736,-2.8051,-2.7802,-2.6589,-2.685,-2.7229,-2.7604,-2.767,-2.7484,-2.7095,-2.7484,-2.7628,-2.7477,-2.7734,-2.8132,-2.871,-2.871,-2.8647,-2.8486,-2.9208,-2.9414,-2.934,-2.9654,-2.9792,-2.9869,-3.0279,-3.0216,-2.9869,-3.0279,-3.0216,-2.9792,-2.9792,-2.9792,-2.9792,-2.9792,-2.9792,-2.9792,-2.9792,-2.9792,-2.9792,-2.9792,-2.9792,-2.9792,-2.9792,-2.9792,-2.9856,-3.0355,-3.0419,-3.0419,-3.0419,-3.0419,-3.0355,-2.9934,-3.0508,-3.0983,-3.057,-3.0771,-3.1057,-3.1057,-3.1057,-3.0863,-3.0064,-2.9134,-2.8148,-2.6925,-2.8222,-2.9192,-2.8748,-3.0993,-3.2593,-3.2536,-3.2464,-3.2678,-3.3115,-3.2749,-3.2464,-3.2464,-3.2404,-3.2062,-3.1254,-3.2658,-3.3238,-3.2924,-3.2756,-3.2805,-3.3081,-3.3081,-3.3628,-3.4746,-3.5734,-3.6957,-3.8424,-3.9417,-4.0472,-4.1474,-4.1728,-4.2252,-4.291,-4.321,-4.3329,-4.3329,-4.3329,-4.3329,-4.3329,-2.4754,-2.5071,-2.5465,-2.631,-2.657,-2.6817,-2.7352,-2.6905,-2.6973,-2.8247,-2.7868,-2.7417,-2.7417,-2.7417,-2.7162,-2.6521,-2.6533,-2.6533,-2.6533,-2.7095,-2.7162,-2.6521,-2.7095,-2.7417,-2.7457,-2.7469,-2.7808,-2.8499,-2.8499,-2.8499,-2.8511,-2.8938,-2.9126,-2.9151,-2.9591,-2.9792,-2.9792,-2.9792,-2.9792,-2.9792,-2.9792,-2.9792,-2.9792,-2.9792,-2.9792,-2.9792,-2.9792,-2.9792,-2.9792,-2.9792,-2.9792,-2.9792,-2.9792,-2.9792,-2.9792,-2.9792,-2.9792,-2.9792,-2.9792,-2.9792,-2.9792,-2.9792,-2.9792,-2.9792,-2.9792,-2.9792,-2.9792,-2.9792,-2.9792,-2.9792,-2.9792,-2.9792,-2.9693,-2.924,-2.8075,-2.7178,-2.7178,-2.7828,-2.85,-2.8933,-3.0724,-3.1756,-3.1254,-3.118,-3.1389,-3.1815,-3.1462,-3.1455,-3.2031,-3.2536,-3.217,-3.0972,-3.1788,-3.2277,-3.2416,-3.2855,-3.3081,-3.3081,-3.3081,-3.3628,-3.4746,-3.5884,-3.733,-3.8842,-3.9698,-4.0965,-4.2327,-4.1983,-4.2432,-4.3329,-4.3329,-4.3329,-4.3329,-4.3329,-4.3329,-4.3329,-2.4054,-2.4859,-2.5564,-2.564,-2.616,-2.6539,-2.6577,-2.6521,-2.6521,-2.6658,-2.6658,-2.6589,-2.6589,-2.6589,-2.6589,-2.6533,-2.6533,-2.6533,-2.6533,-2.6589,-2.6589,-2.6533,-2.6589,-2.7024,-2.8021,-2.8047,-2.8574,-2.9666,-2.9666,-2.9666,-2.9666,-2.9716,-2.9729,-2.9729,-2.9779,-2.9792,-2.9792,-2.9792,-2.9792,-2.9792,-2.9792,-2.9792,-2.9792,-2.9792,-2.9792,-2.9792,-2.9792,-2.9792,-2.9792,-2.9792,-2.9792,-2.9792,-2.9792,-2.9792,-2.9792,-2.9792,-2.9792,-2.9792,-2.9792,-2.9792,-2.9792,-2.9792,-2.9792,-2.9792,-2.9792,-2.9792,-2.9792,-2.9792,-2.9792,-2.9792,-2.9792,-2.9792,-2.924,-2.7662,-2.7281,-2.7178,-2.7178,-2.7245,-2.7911,-2.9517,-2.9909,-3.0355,-3.1106,-3.118,-3.1888,-3.3671,-3.2177,-3.2204,-3.447,-3.2203,-3.1221,-3.2064,-3.2177,-3.2466,-3.3006,-3.3056,-3.3081,-3.3081,-3.3081,-3.3628,-3.4772,-3.6348,-3.7751,-3.8914,-4.1211,-4.2222,-4.2402,-4.2955,-4.324,-4.3329,-4.3329,-4.3329,-4.3329,-4.3329,-4.3329,-4.3329,-2.4004,-2.4607,-2.5222,-2.5536,-2.6076,-2.6533,-2.6533,-2.6533,-2.6533,-2.6533,-2.6533,-2.6533,-2.6533,-2.6533,-2.6533,-2.6533,-2.6533,-2.6533,-2.6533,-2.6533,-2.6615,-2.6954,-2.6967,-2.7494,-2.8586,-2.8612,-2.9001,-2.9792,-2.9792,-2.9792,-2.9792,-2.9792,-2.9792,-2.9792,-2.9792,-2.9792,-2.9792,-2.9792,-2.9792,-2.9792,-2.9792,-2.9792,-2.9792,-2.9792,-2.9792,-2.9792,-2.9792,-2.9792,-2.9792,-2.9792,-2.9792,-2.9792,-2.9792,-2.9792,-2.9792,-2.9792,-2.9792,-2.9792,-2.9792,-2.9792,-2.9792,-2.9792,-2.9792,-2.9792,-2.9792,-2.9792,-2.9792,-2.9792,-2.9792,-2.9792,-2.9792,-2.9792,-2.958,-2.8933,-2.8781,-2.8781,-2.8781,-2.8781,-2.9037,-2.9691,-2.9792,-2.9934,-3.0279,-3.0355,-3.0788,-3.1783,-3.1228,-3.1397,-3.263,-3.2034,-3.1951,-3.2717,-3.2754,-3.2855,-3.3081,-3.3081,-3.3081,-3.3081,-3.3081,-3.3905,-3.5288,-3.6648,-3.8215,-4.0119,-4.1285,-4.2207,-4.2955,-4.2791,-4.297,-4.3329,-4.3329,-4.3329,-4.3329,-4.3329,-4.3329,-4.3329,-2.3966,-2.4305,-2.4732,-2.5259,-2.5812,-2.6251,-2.6496,-2.6533,-2.6533,-2.6533,-2.6533,-2.6533,-2.6533,-2.6533,-2.6533,-2.6533,-2.6533,-2.6533,-2.6533,-2.6533,-2.6628,-2.7005,-2.7193,-2.772,-2.8649,-2.8837,-2.9214,-2.9792,-2.9792,-2.9792,-2.9792,-2.9792,-2.9792,-2.9792,-2.9792,-2.9792,-2.9792,-2.9792,-2.9792,-2.9792,-2.9792,-2.9792,-2.9792,-2.9792,-2.9792,-2.9792,-2.9792,-2.9792,-2.9792,-2.9792,-2.9792,-2.9792,-2.9792,-2.9792,-2.9792,-2.9792,-2.9792,-2.9792,-2.9792,-2.9792,-2.9792,-2.9792,-2.9792,-2.9792,-2.9792,-2.9792,-2.9792,-2.9792,-2.9792,-2.9792,-2.9792,-2.9792,-2.9792,-2.9792,-2.9792,-2.9792,-2.9792,-2.9792,-2.9792,-2.9792,-2.9792,-2.9792,-2.9792,-2.9792,-3.0085,-3.0751,-3.0653,-3.0922,-3.1612,-3.2177,-3.2667,-3.3068,-3.3081,-3.3081,-3.3081,-3.3081,-3.3081,-3.3081,-3.3484,-3.4491,-3.6192,-3.7425,-3.923,-4.1324,-4.1763,-4.2506,-4.3299,-4.2851,-4.294,-4.3329,-4.3329,-4.3329,-4.3329,-4.3329,-4.3329,-4.3329,-2.3891,-2.4004,-2.418,-2.4732,-2.5259,-2.5799,-2.6445,-2.6533,-2.6533,-2.6533,-2.6533,-2.6533,-2.6533,-2.6533,-2.6533,-2.6533,-2.6533,-2.6533,-2.6533,-2.6533,-2.6533,-2.6533,-2.6992,-2.7544,-2.8109,-2.8649,-2.9214,-2.9792,-2.9792,-2.9792,-2.9792,-2.9792,-2.9792,-2.9792,-2.9792,-2.9792,-2.9792,-2.9792,-2.9792,-2.9792,-2.9792,-2.9792,-2.9792,-2.9792,-2.9792,-2.9792,-2.9792,-2.9792,-2.9792,-2.9792,-2.9792,-2.9792,-2.9792,-2.9792,-2.9792,-2.9792,-2.9792,-2.9792,-2.9792,-2.9792,-2.9792,-2.9792,-2.9792,-2.9792,-2.9792,-2.9792,-2.9792,-2.9792,-2.9792,-2.9792,-2.9792,-2.9792,-2.9792,-2.9792,-2.9792,-2.9792,-2.9792,-2.9792,-2.9792,-2.9792,-2.9792,-2.9792,-2.9792,-2.9792,-3.0216,-3.1106,-3.0803,-3.1097,-3.2164,-3.2767,-3.3081,-3.3081,-3.3081,-3.3081,-3.3081,-3.3081,-3.3081,-3.3081,-3.4191,-3.5614,-3.7245,-3.9016,-4.0724,-4.2387,-4.3045,-4.3329,-4.3329,-4.3329,-4.3329,-4.3329,-4.3329,-4.3329,-4.3329,-4.3329,-4.3329,-4.3329,-2.4544,-2.487,-2.5172,-2.5335,-2.5824,-2.6264,-2.6496,-2.6533,-2.6533,-2.6533,-2.6533,-2.6533,-2.6533,-2.6533,-2.6533,-2.6533,-2.6533,-2.6533,-2.6533,-2.6816,-2.703,-2.703,-2.757,-2.831,-2.9264,-2.9453,-2.9616,-2.9792,-2.9792,-2.9792,-2.9792,-2.9792,-2.9792,-2.9792,-2.9792,-2.9792,-2.9792,-2.9792,-2.9792,-2.9792,-2.9792,-2.9792,-2.9792,-2.9792,-2.9792,-2.9792,-2.9792,-2.9792,-2.9792,-2.9792,-2.9792,-2.9792,-2.9792,-2.9792,-2.9792,-2.9792,-2.9792,-2.9792,-2.9792,-2.9792,-2.9792,-2.9792,-2.9792,-2.9792,-2.9792,-2.9792,-2.9792,-2.9792,-2.9792,-2.9792,-2.9792,-2.9792,-2.9792,-2.9792,-2.9792,-2.9792,-2.9792,-2.9792,-2.9792,-2.9792,-2.9792,-2.9792,-2.9792,-2.9792,-3.0098,-3.0764,-3.1372,-3.2051,-3.278,-3.298,-3.3081,-3.3081,-3.3081,-3.3081,-3.3081,-3.3882,-3.3882,-3.3167,-3.4884,-3.6223,-3.7245,-3.9016,-4.0724,-4.2387,-4.3045,-4.3329,-4.3329,-4.3329,-4.3329,-4.3329,-4.3329,-4.3329,-4.3329,-4.3329,-4.3329,-4.3329,-2.4782,-2.5071,-2.536,-2.5561,-2.5887,-2.6189,-2.6496,-2.6533,-2.6533,-2.6533,-2.6533,-2.6533,-2.6533,-2.6533,-2.6533,-2.6533,-2.6533,-2.6622,-2.6766,-2.6892,-2.7256,-2.7908,-2.8047,-2.8524,-2.9428,-2.9679,-2.9792,-2.9792,-2.9792,-2.9792,-2.9792,-2.9792,-2.9792,-2.9792,-2.9792,-2.9792,-2.9792,-2.9792,-2.9792,-2.9792,-2.9792,-2.9792,-2.9792,-2.9792,-2.9792,-2.9792,-2.9792,-2.9792,-2.9792,-2.9792,-2.9792,-2.9792,-2.9792,-2.9792,-2.9792,-2.9792,-2.9792,-2.9792,-2.9792,-2.9792,-2.9792,-2.9792,-2.9792,-2.9792,-2.9792,-2.9792,-2.9792,-2.9792,-2.9792,-2.9792,-2.9792,-2.9792,-2.9792,-2.9792,-2.9792,-2.9792,-2.9792,-2.9792,-2.9792,-2.9792,-2.9792,-2.9792,-2.9792,-2.9993,-3.0432,-3.1185,-3.1838,-3.2466,-3.3043,-3.3081,-3.3081,-3.3081,-3.3081,-3.3313,-3.3713,-3.4733,-3.4733,-3.3797,-3.5828,-3.7316,-3.8253,-3.9793,-4.1292,-4.2776,-4.3165,-4.3329,-4.3329,-4.3329,-4.3329,-4.3329,-4.3329,-4.3329,-4.3329,-4.3329,-4.3329,-4.3329,-2.4858,-2.4971,-2.5121,-2.5586,-2.5674,-2.585,-2.6445,-2.6533,-2.6533,-2.6533,-2.6533,-2.6533,-2.6533,-2.6533,-2.6533,-2.6533,-2.6533,-2.6747,-2.718,-2.6791,-2.7205,-2.8712,-2.8398,-2.8411,-2.8925,-2.9503,-2.9792,-2.9792,-2.9792,-2.9792,-2.9792,-2.9792,-2.9792,-2.9792,-2.9792,-2.9792,-2.9792,-2.9792,-2.9792,-2.9792,-2.9792,-2.9792,-2.9792,-2.9792,-2.9792,-2.9792,-2.9792,-2.9792,-2.9792,-2.9792,-2.9792,-2.9792,-2.9792,-2.9792,-2.9792,-2.9792,-2.9792,-2.9792,-2.9792,-2.9792,-2.9792,-2.9792,-2.9792,-2.9792,-2.9792,-2.9792,-2.9792,-2.9792,-2.9792,-2.9792,-2.9792,-2.9792,-2.9792,-2.9792,-2.9792,-2.9792,-2.9792,-2.9792,-2.9792,-2.9792,-2.9829,-2.9867,-2.9867,-3.0369,-3.111,-3.2139,-3.2215,-3.2466,-3.3043,-3.3081,-3.3081,-3.3081,-3.3154,-3.3713,-3.4664,-3.5828,-3.5828,-3.4815,-3.6958,-3.8539,-3.9708,-4.0852,-4.2058,-4.324,-4.3314,-4.3329,-4.3329,-4.3329,-4.3329,-4.3329,-4.3329,-4.3329,-4.3329,-4.3329,-4.3329,-4.3329,-2.6,-2.6101,-2.6138,-2.6251,-2.6264,-2.6382,-2.6508,-2.6533,-2.6533,-2.6533,-2.6533,-2.6533,-2.6533,-2.6533,-2.6533,-2.6533,-2.6533,-2.6584,-2.6697,-2.6929,-2.7268,-2.762,-2.8348,-2.88,-2.8925,-2.9503,-2.9792,-2.9792,-2.9792,-2.9792,-2.9792,-2.9792,-2.9792,-2.9792,-2.9792,-2.9792,-2.9792,-2.9792,-2.9792,-2.9792,-2.9792,-2.9792,-2.9792,-2.9792,-2.9792,-2.9792,-2.9792,-2.9792,-2.9792,-2.9792,-2.9792,-2.9792,-2.9792,-2.9792,-2.9792,-2.9792,-2.9792,-2.9792,-2.9792,-2.9792,-2.9792,-2.9792,-2.9792,-2.9792,-2.9792,-2.9792,-2.9792,-2.9792,-2.9792,-2.9792,-2.9792,-2.9792,-2.9792,-2.9792,-2.9792,-2.9792,-2.9792,-2.9792,-2.9792,-2.9792,-3.0168,-3.0432,-3.0432,-3.0909,-3.1499,-3.2164,-3.2215,-3.2466,-3.3043,-3.3081,-3.3081,-3.3081,-3.3953,-3.4428,-3.4664,-3.6554,-3.6944,-3.5894,-3.8055,-3.9031,-3.9073,-4.0645,-4.1818,-4.2596,-4.3105,-4.3329,-4.3329,-4.3329,-4.3329,-4.3329,-4.3329,-4.3329,-4.3329,-4.3329,-4.3329,-4.3329,-2.5937,-2.6264,-2.6533,-2.6533,-2.6533,-2.6533,-2.6533,-2.6533,-2.6533,-2.6533,-2.6533,-2.6533,-2.6533,-2.6533,-2.6533,-2.6533,-2.6533,-2.6647,-2.6841,-2.6879,-2.7243,-2.8034,-2.8373,-2.8787,-2.9327,-2.9641,-2.9792,-2.9792,-2.9792,-2.9792,-2.9792,-2.9792,-2.9792,-2.9792,-2.9792,-2.9792,-2.9792,-2.9792,-2.9792,-2.9792,-2.9792,-2.9792,-2.9792,-2.9792,-2.9792,-2.9792,-2.9792,-2.9792,-2.9792,-2.9792,-2.9792,-2.9792,-2.9792,-2.9792,-2.9792,-2.9792,-2.9792,-2.9792,-2.9792,-2.9792,-2.9792,-2.9792,-2.9792,-2.9792,-2.9792,-2.9792,-2.9792,-2.9792,-2.9792,-2.9792,-2.9792,-2.9792,-2.9792,-2.9792,-2.9792,-2.9792,-2.9792,-2.9792,-2.9892,-3.0156,-3.0444,-3.0821,-3.1323,-3.1625,-3.2014,-3.2591,-3.2629,-3.2754,-3.3056,-3.3081,-3.3081,-3.3081,-3.4108,-3.4897,-3.544,-3.7035,-3.7973,-3.8261,-3.9313,-3.9906,-4.0059,-4.1305,-4.2207,-4.2851,-4.318,-4.3329,-4.3329,-4.3329,-4.3329,-4.3329,-4.3329,-4.3329,-4.3329,-4.3329,-4.3329,-4.3329,-2.5636,-2.6138,-2.6533,-2.6533,-2.6533,-2.6533,-2.6533,-2.6533,-2.6533,-2.6533,-2.6533,-2.6533,-2.6533,-2.6533,-2.6533,-2.6533,-2.6533,-2.6653,-2.7105,-2.6716,-2.7118,-2.8586,-2.8298,-2.8586,-2.9616,-2.9741,-2.9792,-2.9792,-2.9792,-2.9792,-2.9792,-2.9792,-2.9792,-2.9792,-2.9792,-2.9792,-2.9792,-2.9792,-2.9792,-2.9792,-2.9792,-2.9792,-2.9792,-2.9792,-2.9792,-2.9792,-2.9792,-2.9792,-2.9792,-2.9792,-2.9792,-2.9792,-2.9792,-2.9792,-2.9792,-2.9792,-2.9792,-2.9792,-2.9792,-2.9792,-2.9792,-2.9792,-2.9792,-2.9792,-2.9792,-2.9792,-2.9792,-2.9792,-2.9792,-2.9829,-2.9917,-2.993,-2.9967,-3.0055,-3.0068,-3.0068,-3.0068,-3.0068,-3.0231,-3.0696,-3.0834,-3.1273,-3.2265,-3.2353,-3.2554,-3.3043,-3.3081,-3.3081,-3.3081,-3.3081,-3.3081,-3.3081,-3.4345,-3.5359,-3.6198,-3.742,-3.8868,-4.0397,-4.0516,-4.0905,-4.1564,-4.2117,-4.2716,-4.3329,-4.3329,-4.3329,-4.3329,-4.3329,-4.3329,-4.3329,-4.3329,-4.3329,-4.3329,-4.3329,-4.3329,-4.3344,-2.6226,-2.6471,-2.6533,-2.6533,-2.6533,-2.6533,-2.6533,-2.6533,-2.6533,-2.6533,-2.6533,-2.6533,-2.6533,-2.6533,-2.6533,-2.6533,-2.6533,-2.6559,-2.6634,-2.6571,-2.6766,-2.7469,-2.7896,-2.8398,-2.9038,-2.9528,-2.9792,-2.9792,-2.9792,-2.9792,-2.9792,-2.9792,-2.9792,-2.9792,-2.9792,-2.9792,-2.9792,-2.9792,-2.9792,-2.9792,-2.9792,-2.9792,-2.9792,-2.9792,-2.9792,-2.9792,-2.9792,-2.9792,-2.9792,-2.9792,-2.9792,-2.9792,-2.9792,-2.9792,-2.9792,-2.9792,-2.9792,-2.9792,-2.9792,-2.9792,-2.9792,-2.9792,-2.9792,-2.9792,-2.9792,-2.9792,-2.9792,-2.9792,-2.9792,-2.9942,-3.0419,-3.0507,-3.0658,-3.1097,-3.1173,-3.1173,-3.1173,-3.1173,-3.1198,-3.1273,-3.17,-3.2252,-3.2893,-3.2955,-3.2993,-3.3068,-3.3081,-3.3081,-3.3081,-3.3081,-3.3081,-3.3081,-3.4952,-3.6053,-3.6198,-3.8204,-3.9593,-4.0412,-4.098,-4.1594,-4.2314,-4.2327,-4.2716,-4.3329,-4.3329,-4.3329,-4.3329,-4.3329,-4.3329,-4.3329,-4.3329,-4.3329,-4.3329,-4.3329,-4.3329,-4.3419,-2.6352,-2.6533,-2.6533,-2.6533,-2.6533,-2.6533,-2.6533,-2.6533,-2.6533,-2.6533,-2.6533,-2.6533,-2.6533,-2.6533,-2.6533,-2.6533,-2.6533,-2.6533,-2.6533,-2.6753,-2.7168,-2.772,-2.8273,-2.8837,-2.9402,-2.9666,-2.9792,-2.9792,-2.9792,-2.9792,-2.9792,-2.9792,-2.9792,-2.9792,-2.9792,-2.9792,-2.9792,-2.9792,-2.9792,-2.9792,-2.9792,-2.9792,-2.9792,-2.9792,-2.9792,-2.9792,-2.9792,-2.9792,-2.9792,-2.9792,-2.9792,-2.9792,-2.9792,-2.9792,-2.9792,-2.9792,-2.9792,-2.9792,-2.9792,-2.9792,-2.9792,-2.9792,-2.9792,-2.988,-3.0181,-3.0256,-3.0168,-2.9854,-3.0043,-3.0331,-3.057,-3.0859,-3.1122,-3.1348,-3.1386,-3.1386,-3.1386,-3.1386,-3.1499,-3.1813,-3.2353,-3.2792,-3.3056,-3.3081,-3.3081,-3.3081,-3.3081,-3.3081,-3.3081,-3.3081,-3.3081,-3.3081,-3.4568,-3.5668,-3.6198,-3.7738,-3.9372,-4.095,-4.125,-4.1728,-4.2372,-4.2746,-4.306,-4.3329,-4.3329,-4.3329,-4.3329,-4.3329,-4.3329,-4.3329,-4.3329,-4.3329,-4.3329,-4.3329,-4.3329,-4.3374]}]]